[[{"header":{"parameterUnit":"m.s-1","parameterCategory":1,"la1":31.0,"la2":29.5877,"lo1":-88.7671,"lo2":-86.6584,"dy":0.0162,"dx":0.0185,"nx":115,"ny":88,"refTime":"2026-05-01T00:00:00:Z","depth":0,"parameterNumber":2,"parameterNumberName":"U-component_of_WINDS"},"data":[0.0,0.0,0.0,0.0,0.0,0.0,0.0,0.0,0.0,0.0,0.0,0.0,0.0,0.0,0.0,0.0,0.0,0.0,0.0,0.0,0.0,0.0,0.0,0.0,0.0,0.0,0.0,0.0,0.0,0.0,0.0,0.0,0.0,0.0,0.0,0.0,0.0,0.0,0.0,0.0,0.0,0.0,0.0,0.0,0.0,0.0,0.0,0.0,0.0,0.0,0.0,0.0,0.0,0.0,0.0,0.0,0.0,0.0,0.0,0.0,0.0,0.0,0.0,0.0,0.0,0.0,0.0,0.0,0.0,0.0,0.0,0.0,0.0,0.0,0.0,0.0,0.0,0.0,0.0,0.0,0.0,0.0,0.0,0.0,0.0,0.0,0.0,0.0,0.0,0.0,0.0,0.0,0.0,0.0,0.0,0.0,0.0,0.0,0.0,0.0,0.0,0.0,0.0,0.0,0.0,0.0,0.0,0.0,0.0,0.0,0.0,0.0,0.0,0.0,0.0,0.0,0.0,0.0,0.0,0.0,0.0,0.0,0.0,0.0,0.0,0.0,0.0,0.0,0.0,0.0,0.0,0.0,0.0,0.0,0.0,0.0,0.0,0.0,0.0,0.0,0.0,0.0,0.0,0.0,0.0,0.0,0.0,0.0,0.0,0.0,0.0,0.0,0.0,0.0,0.0,0.0,0.0,0.0,0.0,0.0,0.0,0.0,0.0,0.0,0.0,0.0,0.0,0.0,0.0,0.0,0.0,0.0,0.0,0.0,0.0,0.0,0.0,0.0,0.0,0.0,0.0,0.0,0.0,0.0,0.0,0.0,0.0,0.0,0.0,0.0,0.0,0.0,0.0,0.0,0.0,0.0,0.0,0.0,0.0,0.0,0.0,0.0,0.0,0.0,0.0,0.0,0.0,0.0,0.0,0.0,0.0,0.0,0.0,0.0,0.0,0.0,0.0,0.0,0.0,0.0,0.0,0.0,0.0,0.0,0.0,0.0,0.0,0.0,0.0,0.0,0.0,0.0,0.0,0.0,0.0,0.0,0.0,0.0,0.0,0.0,0.0,0.0,0.0,0.0,0.0,0.0,0.0,0.0,0.0,0.0,0.0,0.0,0.0,0.0,0.0,0.0,0.0,0.0,0.0,0.0,0.0,0.0,0.0,0.0,0.0,0.0,0.0,0.0,0.0,0.0,0.0,0.0,0.0,0.0,0.0,0.0,0.0,0.0,0.0,0.0,0.0,0.0,0.0,0.0,0.0,0.0,0.0,0.0,0.0,0.0,0.0,0.0,0.0,0.0,0.0,0.0,0.0,0.0,0.0,0.0,0.0,0.0,0.0,0.0,0.0,0.0,0.0,0.0,0.0,0.0,0.0,0.0,0.0,0.0,0.0,0.0,0.0,0.0,0.0,0.0,0.0,0.0,0.0,0.0,0.0,0.0,0.0,0.0,0.0,0.0,0.0,0.0,0.0,0.0,0.0,0.0,0.0,0.0,0.0,0.0,0.0,0.0,0.0,0.0,0.0,0.0,0.0,0.0,0.0,0.0,0.0,0.0,0.0,0.0,0.0,0.0,0.0,0.0,0.0,0.0,0.0,0.0,0.0,0.0,0.0,0.0,0.0,0.0,0.0,0.0,0.0,0.0,0.0,0.0,0.0,0.0,0.0,0.0,0.0,0.0,0.0,0.0,0.0,0.0,0.0,0.0,0.0,0.0,0.0,0.0,0.0,0.0,0.0,0.0,0.0,0.0,0.0,0.0,0.0,0.0,0.0,0.0,0.0,0.0,0.0,0.0,0.0,0.0,0.0,0.0,0.0,0.0,0.0,0.0,0.0,0.0,0.0,0.0,0.0,0.0,0.0,0.0,0.0,0.0,0.0,0.0,0.0,0.0,0.0,0.0,0.0,0.0,0.0,0.0,0.0,0.0,0.0,0.0,0.0,0.0,0.0,0.0,0.0,0.0,0.0,0.0,0.0,0.0,0.0,0.0,0.0,0.0,0.0,0.0,0.0,0.0,0.0,0.0,0.0,0.0,0.0,0.0,0.0,0.0,0.0,0.0,0.0,0.0,0.0,0.0,0.0,0.0,0.0,0.0,0.0,0.0,0.0,0.0,0.0,0.0,0.0,0.0,0.0,0.0,0.0,0.0,0.0,0.0,0.0,0.0,0.0,0.0,0.0,0.0,0.0,0.0,0.0,0.0,0.0,0.0,0.0,0.0,0.0,0.0,0.0,0.0,0.0,0.0,0.0,0.0,0.0,0.0,0.0,0.0,0.0,0.0,0.0,0.0,0.0,0.0,0.0,0.0,0.0,0.0,0.0,0.0,0.0,0.0,0.0,0.0,0.0,0.0,0.0,0.0,0.0,0.0,0.0,0.0,0.0,0.0,0.0,0.0,0.0,0.0,0.0,0.0,0.0,0.0,0.0,0.0,0.0,0.0,0.0,0.0,0.0,0.0,0.0,0.0,0.0,0.0,0.0,0.0,0.0,0.0,0.0,0.0,0.0,0.0,0.0,0.0,0.0,0.0,0.0,0.0,0.0,0.0,0.0,0.0,0.0,0.0,0.0,0.0,0.0,0.0,0.0,0.0,0.0,0.0,0.0,0.0,0.0,0.0,0.0,0.0,0.0,0.0,0.0,0.0,0.0,0.0,0.0,0.0,0.0,0.0,0.0,0.0,0.0,0.0,0.0,0.0,0.0,0.0,0.0,0.0,0.0,0.0,0.0,0.0,0.0,0.0,0.0,0.0,0.0,0.0,0.0,0.0,0.0,0.0,0.0,0.0,0.0,0.0,0.0,0.0,0.0,0.0,0.0,0.0,0.0,0.0,0.0,0.0,0.0,0.0,0.0,0.0,0.0,0.0,0.0,0.0,0.0,0.0,0.0,0.0,0.0,0.0,0.0,0.0,0.0,0.0,0.0,0.0,0.0,0.0,0.0,0.0,0.0,0.0,0.0,0.0,0.0,0.0,0.0,0.0,0.0,0.0,0.0,0.0,0.0,0.0,0.0,0.0,0.0,0.0,0.0,0.0,0.0,0.0,0.0,0.0,0.0,0.0,0.0,0.0,0.0,0.0,0.0,0.0,0.0,0.0,0.0,0.0,0.0,0.0,0.0,0.0,0.0,0.0,0.0,0.0,0.0,0.0,0.0,0.0,0.0,0.0,0.0,0.0,0.0,0.0,0.0,0.0,0.0,0.0,0.0,0.0,0.0,0.0,0.0,0.0,0.0,0.0,0.0,0.0,0.0,0.0,0.0,0.0,0.0,0.0,0.0,0.0,0.0,0.0,0.0,0.0,0.0,0.0,0.0,0.0,0.0,0.0,0.0,0.0,0.0,0.0,0.0,0.0,0.0,0.0,0.0,0.0,0.0,0.0,0.0,0.0,0.0,0.0,0.0,0.0,0.0,0.0,0.0,0.0,0.0,0.0,0.0,0.0,0.0,0.0,0.0,0.0,0.0,0.0,0.0,0.0,0.0,0.0,0.0,0.0,0.0,0.0,0.0,0.0,0.0,0.0,0.0,0.0,0.0,0.0,0.0,0.0,0.0,0.0,0.0,0.0,0.0,0.0,0.0,0.0,0.0,0.0,0.0,0.0,0.0,0.0,0.0,0.0,0.0,0.0,0.0,0.0,0.0,0.0,0.0,0.0,0.0,0.0,0.0,0.0,0.0,0.0,0.0,0.0,0.0,0.0,0.0,0.0,0.0,0.0,0.0,0.0,0.0,0.0,0.0,0.0,0.0,0.0,0.0,0.0,0.0,0.0,0.0,0.0,0.0,0.0,0.0,0.0,0.0,0.0,0.0,0.0,0.0,0.0,0.0,0.0,0.0,0.0,0.0,0.0,0.0,0.0,0.0,0.0,0.0,0.0,0.0,0.0,0.0,0.0,0.0,0.0,0.0,0.0,0.0,0.0,0.0,0.0,0.0,0.0,0.0,0.0,0.0,0.0,0.0,0.0,0.0,0.0,0.0,0.0,0.0,0.0,0.0,0.0,0.0,0.0,0.0,0.0,0.0,0.0,0.0,0.0,0.0,0.0,0.0,0.0,0.0,0.0,0.0,0.0,0.0,0.0,0.0,0.0,0.0,0.0,0.0,0.0,0.0,0.0,0.0,0.0,0.0,0.0,0.0,0.0,0.0,0.0,0.0,0.0,0.0,0.0,0.0,0.0,0.0,0.0,0.0,0.0,0.0,0.0,0.0,0.0,0.0,0.0,0.0,0.0,0.0,0.0,0.0,0.0,0.0,0.0,0.0,0.0,0.0,0.0,2.6426,0.0,0.0,0.0,0.0,0.0,0.0,0.0,0.0,0.0,0.0,0.0,0.0,0.0,0.0,0.0,0.0,0.0,0.0,0.0,0.0,0.0,0.0,0.0,0.0,0.0,0.0,0.0,0.0,0.0,0.0,0.0,0.0,0.0,0.0,0.0,0.0,0.0,0.0,0.0,0.0,0.0,0.0,0.0,0.0,0.0,0.0,0.0,0.0,0.0,0.0,0.0,0.0,0.0,0.0,0.0,0.0,0.0,0.0,0.0,0.0,0.0,0.0,0.0,0.0,0.0,0.0,0.0,0.0,0.0,0.0,0.0,0.0,0.0,0.0,0.0,0.0,0.0,0.0,0.0,0.0,0.0,0.0,0.0,0.0,0.0,0.0,0.0,0.0,0.0,0.0,0.0,0.0,0.0,0.0,0.0,0.0,0.0,0.0,0.0,0.0,0.0,0.0,0.0,0.0,0.0,0.0,0.0,0.0,0.0,0.0,2.8701,2.905,2.793,2.7081,2.6581,0.0,0.0,0.0,0.0,0.0,0.0,0.0,0.0,0.0,0.0,0.0,0.0,0.0,0.0,0.0,0.0,0.0,0.0,0.0,0.0,0.0,0.0,0.0,0.0,0.0,0.0,0.0,0.0,0.0,0.0,0.0,0.0,0.0,0.0,0.0,0.0,0.0,0.0,0.0,0.0,0.0,0.0,0.0,0.0,0.0,0.0,0.0,0.0,0.0,0.0,0.0,0.0,0.0,0.0,0.0,0.0,0.0,0.0,0.0,0.0,0.0,0.0,0.0,0.0,0.0,0.0,0.0,0.0,0.0,0.0,0.0,0.0,0.0,0.0,0.0,0.0,0.0,0.0,0.0,0.0,0.0,0.0,0.0,0.0,0.0,0.0,0.0,0.0,0.0,0.0,0.0,0.0,0.0,0.0,0.0,0.0,0.0,0.0,0.0,0.0,0.0,0.0,0.0,0.0,0.0,0.0,0.0,0.0,0.0,0.0,0.0,0.0,2.868,2.7663,2.6656,0.0,0.0,0.0,0.0,0.0,0.0,0.0,0.0,0.0,0.0,0.0,0.0,0.0,0.0,0.0,0.0,0.0,0.0,0.0,0.0,0.0,0.0,0.0,0.0,0.0,0.0,0.0,0.0,0.0,0.0,0.0,0.0,0.0,0.0,0.0,0.0,0.0,0.0,0.0,0.0,0.0,0.0,0.0,0.0,0.0,0.0,0.0,0.0,0.0,0.0,0.0,0.0,0.0,0.0,0.0,0.0,0.0,0.0,0.0,0.0,0.0,0.0,0.0,0.0,0.0,0.0,0.0,0.0,0.0,0.0,0.0,0.0,0.0,0.0,0.0,0.0,0.0,0.0,0.0,0.0,0.0,0.0,0.0,0.0,0.0,0.0,0.0,0.0,0.0,0.0,0.0,0.0,0.0,0.0,0.0,0.0,0.0,0.0,0.0,0.0,0.0,0.0,0.0,0.0,0.0,0.0,0.0,0.0,0.0,0.0,2.9004,3.1009,2.9728,0.0,2.6735,0.0,0.0,0.0,0.0,0.0,0.0,0.0,0.0,0.0,0.0,0.0,0.0,0.0,0.0,0.0,0.0,0.0,0.0,0.0,0.0,0.0,0.0,0.0,0.0,0.0,0.0,0.0,0.0,0.0,0.0,0.0,0.0,0.0,0.0,0.0,0.0,0.0,0.0,0.0,0.0,0.0,0.0,0.0,0.0,0.0,0.0,0.0,0.0,0.0,0.0,0.0,0.0,0.0,0.0,0.0,0.0,0.0,0.0,0.0,0.0,0.0,0.0,0.0,0.0,0.0,0.0,0.0,0.0,0.0,0.0,0.0,0.0,0.0,0.0,0.0,0.0,0.0,0.0,0.0,0.0,0.0,0.0,0.0,0.0,0.0,0.0,0.0,0.0,0.0,0.0,0.0,0.0,0.0,0.0,0.0,0.0,0.0,0.0,0.0,0.0,0.0,0.0,0.0,0.0,0.0,0.0,0.0,0.0,0.0,0.0,2.9194,3.0733,2.9114,2.7652,0.0,0.0,0.0,0.0,0.0,0.0,0.0,0.0,0.0,0.0,0.0,0.0,0.0,0.0,0.0,0.0,0.0,0.0,0.0,0.0,0.0,0.0,0.0,0.0,0.0,0.0,0.0,0.0,0.0,0.0,0.0,0.0,0.0,0.0,0.0,0.0,0.0,0.0,0.0,0.0,0.0,0.0,0.0,0.0,0.0,0.0,0.0,0.0,0.0,0.0,0.0,0.0,0.0,0.0,0.0,0.0,0.0,0.0,0.0,0.0,0.0,0.0,0.0,0.0,0.0,0.0,0.0,0.0,0.0,0.0,0.0,0.0,0.0,0.0,0.0,0.0,0.0,0.0,0.0,0.0,0.0,0.0,0.0,0.0,0.0,0.0,0.0,0.0,0.0,0.0,0.0,0.0,0.0,0.0,0.0,0.0,0.0,0.0,0.0,0.0,0.0,0.0,0.0,0.0,0.0,0.0,0.0,0.0,0.0,0.0,2.8992,2.9326,3.0254,2.8871,2.751,2.6424,0.0,0.0,0.0,0.0,0.0,0.0,0.0,0.0,0.0,0.0,0.0,0.0,0.0,0.0,0.0,0.0,0.0,0.0,0.0,0.0,0.0,0.0,0.0,0.0,0.0,0.0,0.0,0.0,0.0,0.0,0.0,0.0,0.0,0.0,0.0,0.0,0.0,0.0,0.0,0.0,0.0,0.0,0.0,0.0,0.0,0.0,0.0,0.0,0.0,0.0,0.0,0.0,0.0,0.0,0.0,0.0,0.0,0.0,0.0,0.0,0.0,0.0,0.0,0.0,0.0,0.0,0.0,0.0,0.0,0.0,0.0,0.0,0.0,0.0,0.0,0.0,0.0,0.0,0.0,0.0,0.0,0.0,0.0,0.0,0.0,0.0,0.0,0.0,0.0,0.0,0.0,0.0,0.0,0.0,0.0,0.0,0.0,0.0,0.0,0.0,0.0,0.0,0.0,0.0,0.0,0.0,0.0,0.0,0.0,2.949,2.9326,3.034,2.9501,2.8266,0.0,0.0,0.0,0.0,0.0,0.0,0.0,0.0,0.0,0.0,0.0,0.0,0.0,0.0,0.0,0.0,0.0,0.0,0.0,0.0,0.0,0.0,0.0,0.0,0.0,0.0,0.0,0.0,0.0,0.0,0.0,0.0,0.0,0.0,0.0,0.0,0.0,0.0,0.0,0.0,0.0,0.0,0.0,0.0,0.0,0.0,0.0,0.0,0.0,0.0,0.0,0.0,0.0,0.0,0.0,0.0,0.0,0.0,0.0,0.0,0.0,0.0,0.0,0.0,0.0,0.0,0.0,0.0,0.0,0.0,0.0,0.0,0.0,0.0,0.0,0.0,0.0,0.0,0.0,0.0,0.0,0.0,0.0,0.0,0.0,0.0,0.0,0.0,0.0,0.0,0.0,0.0,0.0,0.0,0.0,0.0,0.0,0.0,0.0,0.0,0.0,0.0,0.0,0.0,0.0,0.0,0.0,0.0,0.0,2.7673,2.8062,2.9187,3.1037,2.8688,2.7292,0.0,0.0,0.0,0.0,0.0,0.0,0.0,0.0,0.0,0.0,0.0,0.0,0.0,0.0,0.0,0.0,0.0,0.0,0.0,0.0,0.0,0.0,0.0,0.0,0.0,0.0,0.0,0.0,0.0,0.0,0.0,0.0,0.0,0.0,0.0,0.0,0.0,0.0,0.0,0.0,0.0,0.0,0.0,0.0,0.0,0.0,0.0,0.0,0.0,0.0,0.0,0.0,0.0,0.0,0.0,0.0,0.0,0.0,0.0,0.0,0.0,0.0,0.0,0.0,0.0,0.0,0.0,0.0,0.0,0.0,0.0,0.0,0.0,0.0,0.0,0.0,0.0,0.0,0.0,0.0,0.0,0.0,0.0,0.0,0.0,0.0,0.0,0.0,0.0,0.0,0.0,0.0,0.0,0.0,0.0,0.0,0.0,0.0,0.0,0.0,0.0,0.0,0.0,0.0,0.0,0.0,0.0,0.0,0.0,2.7167,0.0,2.9626,0.0,2.8284,2.6724,0.0,0.0,0.0,0.0,0.0,0.0,0.0,0.0,0.0,0.0,0.0,0.0,0.0,0.0,0.0,0.0,0.0,0.0,0.0,0.0,0.0,0.0,0.0,0.0,0.0,0.0,0.0,0.0,0.0,0.0,0.0,0.0,0.0,0.0,0.0,0.0,0.0,0.0,0.0,0.0,0.0,0.0,0.0,0.0,0.0,0.0,0.0,0.0,0.0,0.0,0.0,0.0,0.0,0.0,0.0,0.0,0.0,0.0,0.0,0.0,0.0,0.0,0.0,0.0,0.0,0.0,0.0,0.0,0.0,0.0,0.0,0.0,0.0,0.0,0.0,0.0,0.0,0.0,0.0,0.0,0.0,0.0,0.0,0.0,0.0,0.0,0.0,0.0,0.0,0.0,0.0,0.0,0.0,0.0,0.0,0.0,0.0,0.0,0.0,0.0,0.0,0.0,0.0,0.0,0.0,0.0,0.0,0.0,2.7004,2.9529,3.0367,3.0513,3.0032,2.8344,2.6787,0.0,0.0,0.0,0.0,0.0,0.0,0.0,0.0,0.0,0.0,0.0,0.0,0.0,0.0,0.0,0.0,0.0,0.0,0.0,0.0,0.0,0.0,0.0,0.0,0.0,0.0,0.0,0.0,0.0,0.0,0.0,0.0,0.0,0.0,0.0,0.0,0.0,0.0,0.0,0.0,0.0,0.0,0.0,0.0,0.0,0.0,0.0,0.0,0.0,0.0,0.0,0.0,0.0,0.0,0.0,0.0,0.0,0.0,0.0,0.0,0.0,0.0,0.0,0.0,0.0,0.0,0.0,0.0,0.0,0.0,0.0,0.0,0.0,0.0,0.0,0.0,0.0,0.0,0.0,0.0,0.0,0.0,0.0,0.0,0.0,0.0,0.0,0.0,0.0,0.0,0.0,0.0,0.0,0.0,0.0,0.0,0.0,0.0,0.0,0.0,0.0,0.0,0.0,0.0,0.0,0.0,0.0,0.0,0.0,2.8245,2.9006,2.9893,3.0735,2.8166,2.6919,0.0,0.0,0.0,0.0,0.0,0.0,0.0,0.0,0.0,0.0,0.0,0.0,0.0,0.0,0.0,0.0,0.0,0.0,0.0,0.0,0.0,0.0,0.0,0.0,0.0,0.0,0.0,0.0,0.0,0.0,0.0,0.0,0.0,0.0,0.0,0.0,0.0,0.0,0.0,0.0,0.0,0.0,0.0,0.0,0.0,0.0,0.0,0.0,0.0,0.0,0.0,0.0,0.0,0.0,0.0,0.0,0.0,0.0,0.0,0.0,0.0,0.0,0.0,0.0,0.0,0.0,0.0,0.0,0.0,0.0,0.0,0.0,0.0,0.0,0.0,0.0,0.0,0.0,0.0,0.0,0.0,0.0,0.0,0.0,0.0,0.0,0.0,0.0,0.0,0.0,0.0,0.0,0.0,0.0,0.0,0.0,0.0,0.0,0.0,0.0,0.0,0.0,0.0,0.0,0.0,0.0,0.0,0.0,0.0,2.9302,2.985,3.0403,3.098,2.8677,2.756,2.7895,0.0,0.0,0.0,0.0,0.0,0.0,0.0,0.0,0.0,0.0,0.0,0.0,0.0,0.0,0.0,0.0,0.0,0.0,0.0,0.0,0.0,0.0,0.0,0.0,0.0,0.0,0.0,0.0,0.0,0.0,0.0,0.0,0.0,0.0,0.0,0.0,0.0,0.0,0.0,0.0,0.0,0.0,0.0,0.0,0.0,0.0,0.0,0.0,0.0,0.0,0.0,0.0,0.0,0.0,0.0,0.0,0.0,0.0,0.0,0.0,0.0,0.0,0.0,0.0,0.0,0.0,0.0,0.0,0.0,0.0,0.0,0.0,0.0,0.0,0.0,0.0,0.0,0.0,0.0,0.0,0.0,0.0,0.0,0.0,0.0,0.0,0.0,0.0,0.0,0.0,0.0,0.0,0.0,0.0,0.0,0.0,0.0,0.0,0.0,0.0,0.0,0.0,0.0,0.0,0.0,0.0,0.0,0.0,3.2159,3.2594,3.214,3.0806,2.9869,2.8735,0.0,0.0,0.0,0.0,0.0,0.0,0.0,0.0,0.0,0.0,0.0,0.0,0.0,0.0,0.0,0.0,0.0,0.0,0.0,0.0,0.0,0.0,0.0,0.0,0.0,0.0,0.0,0.0,0.0,0.0,0.0,0.0,0.0,0.0,0.0,0.0,0.0,0.0,0.0,0.0,0.0,0.0,0.0,0.0,0.0,0.0,0.0,0.0,0.0,0.0,0.0,0.0,0.0,0.0,0.0,0.0,0.0,0.0,0.0,0.0,0.0,0.0,0.0,0.0,0.0,0.0,0.0,0.0,0.0,0.0,0.0,0.0,0.0,0.0,0.0,0.0,0.0,0.0,0.0,0.0,0.0,0.0,0.0,0.0,0.0,0.0,0.0,0.0,0.0,0.0,0.0,0.0,0.0,0.0,0.0,0.0,0.0,0.0,0.0,0.0,0.0,0.0,0.0,0.0,0.0,0.0,0.0,0.0,0.0,3.3312,3.4649,3.4643,3.327,3.1438,3.0131,0.0,0.0,0.0,0.0,0.0,0.0,0.0,0.0,0.0,0.0,0.0,0.0,0.0,0.0,0.0,0.0,0.0,0.0,0.0,0.0,0.0,0.0,0.0,0.0,0.0,0.0,0.0,0.0,0.0,0.0,0.0,0.0,0.0,0.0,0.0,0.0,0.0,0.0,0.0,0.0,0.0,0.0,0.0,0.0,0.0,0.0,0.0,0.0,0.0,0.0,0.0,0.0,0.0,0.0,0.0,0.0,0.0,0.0,0.0,0.0,0.0,0.0,0.0,0.0,0.0,0.0,0.0,0.0,0.0,0.0,0.0,0.0,0.0,0.0,0.0,0.0,0.0,0.0,0.0,0.0,0.0,0.0,0.0,0.0,0.0,0.0,0.0,0.0,0.0,0.0,0.0,0.0,0.0,0.0,0.0,0.0,0.0,0.0,0.0,0.0,0.0,0.0,0.0,0.0,0.0,0.0,0.0,0.0,3.2852,3.4801,3.6127,3.6432,3.5611,3.367,3.1838,0.0,0.0,0.0,0.0,0.0,0.0,0.0,0.0,0.0,0.0,0.0,0.0,0.0,0.0,0.0,0.0,0.0,0.0,0.0,0.0,0.0,0.0,0.0,0.0,0.0,0.0,0.0,0.0,0.0,0.0,0.0,0.0,0.0,0.0,0.0,0.0,0.0,0.0,0.0,0.0,0.0,0.0,0.0,0.0,0.0,0.0,0.0,0.0,0.0,0.0,0.0,0.0,0.0,0.0,0.0,0.0,0.0,0.0,0.0,0.0,0.0,0.0,0.0,0.0,0.0,0.0,0.0,0.0,0.0,0.0,0.0,0.0,0.0,0.0,0.0,0.0,0.0,0.0,0.0,0.0,0.0,0.0,0.0,0.0,0.0,0.0,0.0,0.0,0.0,0.0,0.0,0.0,0.0,0.0,0.0,0.0,0.0,0.0,0.0,0.0,0.0,0.0,0.0,0.0,0.0,0.0,0.0,0.0,3.3984,3.6384,3.7191,3.7603,3.7456,3.5924,3.3603,0.0,0.0,0.0,0.0,0.0,0.0,0.0,0.0,0.0,0.0,0.0,0.0,0.0,0.0,0.0,0.0,0.0,0.0,0.0,0.0,0.0,0.0,0.0,0.0,0.0,0.0,0.0,0.0,0.0,0.0,0.0,0.0,0.0,0.0,0.0,0.0,0.0,0.0,0.0,0.0,0.0,0.0,0.0,0.0,0.0,0.0,0.0,0.0,0.0,0.0,0.0,0.0,0.0,0.0,0.0,0.0,0.0,0.0,0.0,0.0,0.0,0.0,0.0,0.0,0.0,0.0,0.0,0.0,0.0,0.0,0.0,0.0,0.0,0.0,0.0,0.0,0.0,0.0,0.0,0.0,0.0,0.0,0.0,0.0,0.0,0.0,0.0,0.0,0.0,0.0,0.0,0.0,0.0,0.0,0.0,0.0,0.0,0.0,0.0,0.0,0.0,0.0,0.0,0.0,0.0,0.0,0.0,0.0,3.5378,3.7195,3.8032,3.8142,3.7496,3.6088,3.4294,0.0,0.0,0.0,0.0,0.0,0.0,0.0,0.0,0.0,0.0,0.0,0.0,0.0,0.0,0.0,0.0,0.0,0.0,0.0,0.0,0.0,0.0,0.0,0.0,0.0,0.0,0.0,0.0,0.0,0.0,0.0,0.0,0.0,0.0,0.0,0.0,0.0,0.0,0.0,0.0,0.0,0.0,0.0,0.0,0.0,0.0,0.0,0.0,3.0723,0.0,0.0,0.0,0.0,0.0,0.0,0.0,0.0,0.0,0.0,0.0,0.0,0.0,0.0,0.0,0.0,0.0,0.0,0.0,0.0,0.0,0.0,0.0,0.0,0.0,0.0,0.0,0.0,0.0,0.0,0.0,0.0,0.0,0.0,0.0,0.0,0.0,0.0,0.0,0.0,0.0,0.0,0.0,0.0,0.0,0.0,0.0,0.0,0.0,0.0,0.0,0.0,0.0,0.0,0.0,0.0,0.0,0.0,0.0,3.6226,3.7492,3.8285,3.8505,3.8043,3.6978,3.5182,0.0,0.0,0.0,0.0,0.0,0.0,0.0,0.0,0.0,0.0,0.0,0.0,0.0,0.0,0.0,0.0,0.0,0.0,0.0,0.0,0.0,0.0,0.0,0.0,0.0,0.0,0.0,0.0,0.0,0.0,0.0,0.0,0.0,0.0,0.0,0.0,0.0,0.0,0.0,0.0,0.0,0.0,0.0,0.0,0.0,0.0,0.0,0.0,0.0,0.0,0.0,0.0,0.0,0.0,0.0,0.0,0.0,0.0,0.0,0.0,0.0,0.0,0.0,0.0,0.0,0.0,0.0,0.0,0.0,0.0,0.0,0.0,0.0,0.0,0.0,0.0,0.0,0.0,0.0,0.0,0.0,0.0,0.0,0.0,0.0,0.0,0.0,0.0,0.0,0.0,0.0,0.0,0.0,0.0,0.0,0.0,0.0,0.0,0.0,0.0,0.0,0.0,0.0,0.0,0.0,0.0,0.0,3.5125,3.6674,3.7823,3.8395,3.8755,3.8872,3.7962,3.602,3.2913,0.0,0.0,0.0,0.0,0.0,0.0,0.0,0.0,0.0,0.0,0.0,0.0,0.0,0.0,0.0,0.0,0.0,0.0,0.0,0.0,0.0,0.0,0.0,0.0,0.0,0.0,0.0,0.0,0.0,0.0,0.0,0.0,0.0,0.0,0.0,0.0,0.0,0.0,2.9678,3.1629,0.0,0.0,0.0,0.0,0.0,0.0,0.0,0.0,3.0464,0.0,0.0,0.0,0.0,0.0,0.0,0.0,0.0,0.0,0.0,0.0,0.0,0.0,0.0,0.0,0.0,0.0,0.0,0.0,0.0,0.0,0.0,0.0,0.0,0.0,0.0,0.0,0.0,0.0,0.0,0.0,0.0,0.0,0.0,0.0,0.0,0.0,0.0,0.0,0.0,0.0,0.0,0.0,0.0,0.0,0.0,0.0,0.0,0.0,0.0,0.0,0.0,0.0,0.0,0.0,0.0,3.5605,3.5371,3.6622,3.9435,3.8979,3.9015,3.9606,3.826,3.6277,3.3767,0.0,0.0,0.0,0.0,0.0,0.0,0.0,0.0,0.0,0.0,0.0,0.0,0.0,0.0,0.0,0.0,0.0,0.0,0.0,0.0,0.0,0.0,0.0,0.0,0.0,0.0,0.0,0.0,0.0,0.0,0.0,0.0,0.0,0.0,0.0,0.0,0.0,0.0,0.0,3.3944,3.4711,0.0,0.0,0.0,0.0,0.0,0.0,0.0,0.0,3.1191,0.0,0.0,0.0,0.0,0.0,0.0,0.0,0.0,0.0,0.0,0.0,0.0,0.0,0.0,0.0,0.0,0.0,0.0,0.0,0.0,0.0,0.0,0.0,0.0,0.0,0.0,0.0,0.0,0.0,0.0,0.0,0.0,0.0,0.0,0.0,0.0,0.0,0.0,0.0,0.0,0.0,0.0,0.0,0.0,0.0,0.0,0.0,0.0,0.0,0.0,0.0,0.0,0.0,0.0,0.0,3.5492,3.6883,3.8501,4.0447,4.0145,3.9937,3.9871,3.8333,3.6347,0.0,0.0,0.0,0.0,0.0,0.0,0.0,0.0,0.0,0.0,0.0,0.0,0.0,0.0,0.0,0.0,0.0,0.0,0.0,0.0,0.0,0.0,0.0,0.0,0.0,0.0,0.0,0.0,0.0,0.0,0.0,0.0,0.0,0.0,0.0,0.0,0.0,0.0,0.0,0.0,3.4747,3.5334,3.6189,0.0,0.0,0.0,0.0,0.0,0.0,3.2222,3.1962,0.0,0.0,0.0,0.0,0.0,0.0,0.0,0.0,0.0,0.0,0.0,0.0,0.0,0.0,0.0,0.0,0.0,0.0,0.0,0.0,0.0,0.0,0.0,0.0,0.0,0.0,0.0,0.0,0.0,0.0,0.0,0.0,0.0,0.0,0.0,0.0,0.0,0.0,0.0,0.0,0.0,0.0,0.0,0.0,0.0,0.0,0.0,0.0,0.0,0.0,0.0,0.0,0.0,0.0,0.0,3.5037,3.7914,4.0055,4.1246,4.1177,4.081,4.0157,3.8741,3.6677,0.0,0.0,0.0,0.0,0.0,0.0,0.0,0.0,0.0,0.0,0.0,0.0,0.0,0.0,0.0,0.0,0.0,0.0,0.0,0.0,0.0,0.0,0.0,0.0,0.0,0.0,0.0,0.0,0.0,0.0,0.0,0.0,0.0,0.0,0.0,0.0,0.0,0.0,0.0,0.0,0.0,3.6296,3.7121,3.5572,0.0,0.0,0.0,0.0,3.332,3.3463,0.0,0.0,0.0,0.0,0.0,0.0,0.0,0.0,0.0,0.0,0.0,0.0,0.0,0.0,0.0,0.0,0.0,0.0,0.0,0.0,0.0,0.0,0.0,0.0,0.0,0.0,0.0,0.0,0.0,0.0,0.0,0.0,0.0,0.0,0.0,0.0,0.0,0.0,0.0,0.0,0.0,0.0,0.0,0.0,0.0,0.0,0.0,0.0,0.0,0.0,0.0,0.0,0.0,0.0,0.0,0.0,3.4924,3.6824,3.9214,4.1952,4.1474,4.1063,4.0956,4.0088,3.7775,0.0,0.0,0.0,0.0,0.0,0.0,0.0,0.0,0.0,0.0,0.0,0.0,0.0,0.0,0.0,0.0,0.0,0.0,0.0,0.0,0.0,0.0,0.0,0.0,0.0,0.0,0.0,0.0,0.0,0.0,0.0,0.0,0.0,0.0,0.0,0.0,0.0,0.0,0.0,0.0,0.0,3.8623,3.6714,3.62,3.5752,0.0,0.0,3.5004,3.5752,3.6457,0.0,0.0,0.0,0.0,0.0,0.0,0.0,0.0,0.0,0.0,0.0,0.0,0.0,0.0,0.0,0.0,0.0,0.0,0.0,0.0,0.0,0.0,0.0,0.0,0.0,0.0,0.0,0.0,0.0,0.0,0.0,0.0,0.0,0.0,0.0,0.0,0.0,0.0,0.0,0.0,0.0,0.0,0.0,0.0,0.0,0.0,0.0,0.0,0.0,0.0,0.0,0.0,0.0,0.0,0.0,3.2956,3.5708,3.8248,4.0638,4.2878,4.2653,4.2029,4.1136,3.9859,3.7514,0.0,0.0,0.0,0.0,0.0,0.0,0.0,0.0,0.0,0.0,0.0,0.0,0.0,0.0,0.0,0.0,0.0,0.0,0.0,0.0,0.0,0.0,0.0,0.0,0.0,0.0,0.0,0.0,0.0,0.0,0.0,0.0,0.0,0.0,0.0,0.0,0.0,0.0,0.0,0.0,0.0,0.0,3.8366,3.7955,0.0,0.0,0.0,3.7209,3.7621,0.0,0.0,0.0,0.0,0.0,0.0,0.0,0.0,0.0,0.0,0.0,0.0,0.0,0.0,0.0,0.0,0.0,0.0,0.0,0.0,0.0,0.0,0.0,0.0,0.0,0.0,0.0,0.0,0.0,0.0,0.0,0.0,0.0,0.0,0.0,0.0,0.0,0.0,0.0,0.0,0.0,0.0,0.0,0.0,0.0,0.0,0.0,0.0,0.0,0.0,0.0,0.0,0.0,0.0,0.0,0.0,0.0,3.6306,3.9676,4.2103,4.3433,4.3502,4.2727,4.1136,3.9925,0.0,0.0,0.0,0.0,0.0,0.0,0.0,0.0,0.0,0.0,0.0,0.0,0.0,0.0,0.0,0.0,0.0,0.0,0.0,0.0,0.0,0.0,0.0,0.0,0.0,0.0,0.0,2.5036,0.0,0.0,0.0,0.0,0.0,0.0,0.0,0.0,0.0,0.0,0.0,0.0,0.0,0.0,3.8627,4.0014,3.9676,3.9639,0.0,0.0,3.9346,3.9562,3.9786,3.917,0.0,0.0,0.0,0.0,0.0,0.0,0.0,0.0,0.0,0.0,0.0,0.0,0.0,0.0,0.0,0.0,0.0,0.0,0.0,0.0,0.0,0.0,0.0,0.0,0.0,0.0,0.0,0.0,0.0,0.0,0.0,0.0,0.0,0.0,0.0,0.0,0.0,0.0,0.0,0.0,0.0,0.0,0.0,0.0,0.0,0.0,0.0,0.0,0.0,0.0,0.0,0.0,0.0,0.0,0.0,3.6384,4.019,4.2621,4.3469,4.3502,4.2735,4.1177,4.0989,3.8681,0.0,0.0,0.0,0.0,0.0,0.0,0.0,0.0,0.0,0.0,0.0,0.0,0.0,0.0,0.0,0.0,0.0,0.0,0.0,0.0,0.0,0.0,0.0,0.0,0.0,0.0,0.0,0.0,0.0,0.0,0.0,0.0,0.0,0.0,0.0,0.0,0.0,0.0,0.0,0.0,0.0,4.0047,4.0916,4.0952,4.1507,0.0,4.1956,4.1209,4.1952,4.2662,4.1891,3.8043,0.0,0.0,0.0,0.0,0.0,0.0,0.0,0.0,0.0,0.0,0.0,0.0,0.0,0.0,0.0,0.0,0.0,0.0,0.0,0.0,0.0,0.0,0.0,0.0,0.0,0.0,0.0,0.0,0.0,0.0,0.0,0.0,0.0,0.0,0.0,0.0,0.0,0.0,0.0,0.0,0.0,0.0,0.0,0.0,0.0,0.0,0.0,0.0,0.0,0.0,0.0,0.0,0.0,3.4878,3.7044,4.0491,4.2694,4.3469,4.3502,4.2947,4.1878,4.1364,3.904,0.0,0.0,0.0,0.0,0.0,0.0,0.0,0.0,0.0,0.0,0.0,0.0,0.0,0.0,0.0,0.0,0.0,0.0,0.0,0.0,0.0,0.0,0.0,0.0,0.0,0.0,0.0,0.0,2.8812,2.8956,2.9252,0.0,0.0,0.0,0.0,0.0,0.0,0.0,0.0,0.0,0.0,4.1103,4.2396,4.3016,0.0,0.0,4.4039,4.3415,4.3746,4.3199,4.1927,3.9357,3.8157,0.0,0.0,0.0,0.0,0.0,0.0,0.0,0.0,0.0,0.0,0.0,0.0,0.0,0.0,0.0,0.0,0.0,0.0,0.0,0.0,0.0,0.0,0.0,0.0,0.0,0.0,0.0,0.0,0.0,0.0,0.0,0.0,0.0,0.0,0.0,0.0,0.0,0.0,0.0,0.0,0.0,0.0,0.0,0.0,0.0,0.0,0.0,0.0,0.0,0.0,0.0,0.0,3.5282,3.7492,4.0899,4.2914,4.3502,4.3502,4.3102,4.2323,4.1503,3.9301,0.0,0.0,0.0,0.0,0.0,0.0,0.0,0.0,0.0,0.0,0.0,0.0,0.0,0.0,0.0,0.0,0.0,0.0,0.0,0.0,0.0,0.0,0.0,0.0,0.0,0.0,0.0,0.0,3.0317,3.0093,2.9873,0.0,0.0,0.0,0.0,0.0,0.0,0.0,0.0,0.0,0.0,4.2135,4.3942,4.4488,4.4998,4.5769,4.5002,4.4447,4.4663,4.3566,4.2107,4.0524,0.0,0.0,0.0,0.0,0.0,0.0,0.0,0.0,0.0,0.0,0.0,0.0,0.0,0.0,0.0,0.0,0.0,0.0,0.0,0.0,0.0,0.0,0.0,0.0,0.0,0.0,0.0,2.5414,0.0,0.0,2.4327,0.0,0.0,0.0,0.0,0.0,0.0,0.0,0.0,0.0,0.0,0.0,0.0,0.0,0.0,0.0,0.0,0.0,0.0,0.0,0.0,0.0,0.0,3.5819,3.7533,4.1454,4.351,4.3543,4.3506,4.3139,4.2359,4.1544,3.9562,3.634,0.0,0.0,0.0,0.0,0.0,0.0,0.0,0.0,0.0,0.0,0.0,0.0,0.0,0.0,0.0,0.0,0.0,0.0,0.0,0.0,0.0,0.0,0.0,0.0,0.0,0.0,3.124,3.0656,2.991,0.0,0.0,0.0,0.0,0.0,0.0,0.0,0.0,0.0,3.9357,4.1262,4.313,4.5484,4.5181,4.5067,4.5888,4.464,4.3832,4.4626,4.4016,4.2914,0.0,0.0,0.0,0.0,0.0,0.0,0.0,0.0,0.0,0.0,0.0,0.0,0.0,0.0,0.0,0.0,0.0,0.0,0.0,0.0,0.0,0.0,0.0,0.0,0.0,0.0,0.0,2.8277,2.7292,0.0,0.0,0.0,0.0,0.0,0.0,0.0,0.0,0.0,0.0,0.0,3.2326,3.3584,0.0,0.0,0.0,0.0,0.0,0.0,0.0,0.0,0.0,0.0,0.0,0.0,3.6927,3.9141,4.2502,4.4562,4.5044,4.4562,4.4154,4.3892,4.2608,3.9856,3.5558,0.0,0.0,0.0,0.0,0.0,0.0,0.0,0.0,0.0,0.0,0.0,0.0,0.0,0.0,0.0,0.0,0.0,0.0,0.0,0.0,0.0,0.0,0.0,0.0,0.0,3.0537,0.0,0.0,0.0,0.0,0.0,0.0,0.0,0.0,0.0,0.0,0.0,3.8872,4.0483,4.2107,4.3795,4.5626,4.6131,4.6792,0.0,0.0,0.0,0.0,0.0,0.0,0.0,0.0,0.0,0.0,0.0,0.0,0.0,0.0,4.2614,3.8305,3.7481,3.7569,3.7959,0.0,0.0,0.0,0.0,0.0,0.0,0.0,0.0,0.0,0.0,0.0,0.0,0.0,0.0,3.0714,2.997,2.9467,0.0,0.0,0.0,0.0,0.0,0.0,0.0,0.0,3.3212,3.4386,3.4629,3.5607,3.5829,3.5376,3.5347,3.3735,0.0,0.0,0.0,0.0,0.0,0.0,0.0,0.0,3.7817,4.0068,4.3085,4.5108,4.5814,4.5104,4.47,4.4659,4.2869,3.997,3.5998,3.4104,3.2125,0.0,0.0,0.0,0.0,0.0,0.0,0.0,0.0,0.0,0.0,0.0,0.0,0.0,0.0,0.0,0.0,0.0,0.0,0.0,0.0,0.0,0.0,0.0,3.1233,0.0,0.0,0.0,0.0,0.0,0.0,0.0,0.0,0.0,3.7517,3.9394,4.1258,4.2612,4.3901,4.5149,4.6172,0.0,0.0,0.0,0.0,0.0,0.0,0.0,4.4745,4.4745,4.4782,4.508,4.5842,4.6824,4.7292,4.658,0.0,0.0,4.1745,4.1114,4.1455,4.207,4.2611,4.2915,4.2781,4.3709,4.4401,0.0,0.0,0.0,0.0,3.2621,0.0,0.0,0.0,3.3586,3.3515,0.0,3.2586,0.0,0.0,0.0,0.0,3.0922,3.3691,0.0,0.0,3.6547,3.7574,3.7004,3.7703,3.7658,3.7094,3.8364,3.766,3.5154,3.1913,0.0,0.0,0.0,0.0,0.0,0.0,3.8534,4.0451,4.3327,4.5177,4.5961,4.5214,4.4773,4.4663,4.2424,4.0039,3.7746,3.6791,3.4878,3.1724,3.076,0.0,0.0,0.0,0.0,0.0,0.0,0.0,0.0,0.0,0.0,0.0,0.0,0.0,0.0,0.0,0.0,0.0,0.0,0.0,0.0,3.2209,0.0,0.0,0.0,0.0,0.0,0.0,0.0,0.0,0.0,0.0,4.0003,4.1356,4.3223,4.5553,0.0,0.0,0.0,0.0,4.7787,4.6434,4.6108,4.614,4.6214,4.6792,4.7223,4.7259,0.0,0.0,4.8598,4.8468,4.8295,4.7448,4.8128,4.8371,4.7546,4.6509,4.6442,4.7656,4.6923,4.6507,4.707,4.6825,4.6517,3.755,0.0,0.0,0.0,0.0,3.6261,3.7028,3.785,3.6977,3.6417,3.6096,3.5071,0.0,0.0,0.0,0.0,0.0,0.0,3.5942,3.6705,3.8361,3.9424,3.9952,4.0703,4.094,4.0709,4.0081,3.9399,3.8582,3.6086,3.4001,3.2384,0.0,0.0,0.0,0.0,4.0907,4.2608,4.5118,4.6824,4.7604,4.6828,4.587,4.4737,4.2902,4.1364,4.0116,3.8722,3.7037,3.4988,3.3517,0.0,0.0,0.0,0.0,0.0,0.0,0.0,0.0,0.0,0.0,0.0,0.0,0.0,0.0,0.0,0.0,0.0,0.0,0.0,3.0731,3.1436,3.201,0.0,0.0,0.0,0.0,0.0,0.0,0.0,0.0,0.0,4.2798,4.3154,4.4042,0.0,0.0,4.6461,4.7003,4.7778,4.8742,5.0073,4.9774,0.0,5.0944,5.032,4.9948,5.0508,5.146,5.2074,5.1845,5.1844,5.1643,5.0929,5.1013,5.1129,5.0834,4.9241,4.8071,4.7938,4.8361,4.8747,4.8605,4.9535,5.0484,4.0368,3.8353,3.7958,3.7983,3.8287,3.8949,3.9623,4.0246,3.9525,3.9253,3.9221,3.8233,3.7278,3.6402,3.5869,0.0,0.0,0.0,3.8402,3.9254,4.0195,4.1022,4.1657,4.2097,4.2286,4.2252,4.14,4.0961,4.0961,3.962,3.8025,3.6108,0.0,3.5981,3.6472,3.9373,4.1724,4.342,4.5332,4.6742,4.7513,4.6783,4.571,4.4385,4.3406,4.247,4.1609,4.0634,3.939,3.7775,3.6163,3.4446,0.0,0.0,0.0,0.0,0.0,0.0,0.0,0.0,0.0,0.0,0.0,3.0626,2.9309,0.0,0.0,0.0,3.038,3.1275,3.2203,3.2884,0.0,0.0,0.0,0.0,0.0,0.0,0.0,4.0737,4.278,4.4378,4.4938,4.5241,4.5903,4.7247,4.7415,4.7786,4.8896,0.0,5.043,5.2197,5.2045,5.2082,5.3031,5.2669,5.2485,5.3309,5.3577,5.37,5.3699,5.3502,5.3168,5.2781,5.2489,5.2317,5.2317,5.0839,4.981,4.9905,5.043,5.0749,5.0373,5.1171,5.1853,4.2672,4.2583,4.1738,4.0931,4.0396,4.161,4.1831,4.1379,4.1373,4.1738,4.2327,4.1603,4.0927,4.0238,3.958,0.0,3.9316,4.0696,4.1271,4.14,4.2083,4.2428,4.2469,4.2496,4.2496,4.2503,4.2394,4.2394,4.2361,4.23,4.1801,4.0759,3.8073,3.7334,3.8688,4.0076,4.1663,4.3325,4.4613,4.5634,4.6472,4.571,4.4873,4.3992,4.3899,4.3388,4.2385,4.2268,4.155,4.002,3.8403,3.66,3.4601,0.0,0.0,0.0,0.0,0.0,0.0,0.0,0.0,0.0,0.0,0.0,0.0,0.0,0.0,0.0,3.2349,0.0,3.4541,3.5688,0.0,0.0,0.0,3.8405,3.8498,4.0735,4.2516,4.3135,0.0,0.0,4.6561,4.7388,4.8376,4.9745,4.986,5.0371,5.1894,5.2073,5.2467,5.3317,5.3386,5.3433,5.3692,5.4087,5.4574,5.5226,5.5003,5.4484,5.4407,5.3826,5.3345,5.3296,5.2802,5.2412,5.2427,5.1844,5.1764,5.2926,5.2656,5.2272,5.2156,5.1848,5.1609,4.5744,4.5691,4.5494,4.4014,4.186,4.2697,4.2976,4.2882,4.2875,4.2983,4.3085,4.2388,4.1921,4.1752,4.1582,4.1521,4.1508,4.188,4.2354,4.2882,4.3058,4.347,4.4032,4.4066,4.4066,4.4032,4.3436,4.3118,4.3125,4.2564,4.1878,4.1112,4.0365,4.0028,4.0087,4.2154,4.3439,4.3902,4.4798,4.5886,4.7096,4.6372,4.5802,4.5433,4.478,4.3889,4.2661,4.1959,4.1262,4.043,3.8699,3.7057,3.5607,3.2831,0.0,0.0,0.0,0.0,0.0,0.0,0.0,0.0,0.0,3.2634,3.0553,0.0,3.2595,0.0,3.3469,3.4585,3.5757,3.6636,0.0,0.0,3.9811,4.1091,4.2027,4.4015,4.5015,4.4313,4.5843,4.7119,4.7554,4.8674,5.0014,5.1438,5.1052,5.1184,5.2681,5.2912,5.3427,5.4706,5.5032,5.5323,5.5776,5.5629,5.5455,5.5616,5.5059,5.4574,5.4567,5.3956,5.3448,5.3448,5.3345,5.3206,5.3188,5.305,5.3058,5.3343,5.2827,5.2295,5.2328,5.2606,5.2935,4.6786,4.6786,4.6786,4.5846,4.4323,4.4756,4.4918,4.4918,4.4925,4.4918,4.4891,4.4492,4.4289,4.4289,4.4296,4.412,4.3842,4.3809,4.3876,4.3944,4.3944,4.4188,4.4574,4.4574,4.477,4.5067,4.4316,4.4106,4.4377,4.368,4.3119,4.2726,4.3031,4.2916,4.2372,4.2632,4.297,4.3311,4.4053,4.5004,4.6089,4.5731,4.5354,4.5044,4.4386,4.3601,4.2715,4.1996,4.1398,4.0931,3.9627,3.8138,3.6585,3.4593,3.2778,0.0,0.0,0.0,0.0,0.0,0.0,0.0,0.0,0.0,0.0,0.0,3.415,3.4785,3.5854,3.7029,3.835,3.9462,4.0407,4.1203,4.2546,4.3658,4.4331,4.5966,4.6907,4.6617,4.7851,4.8928,4.9343,5.0339,5.1451,5.2668,5.2401,5.2621,5.3966,5.4333,5.4913,5.6367,5.6437,5.6358,5.687,5.6543,5.6245,5.6156,5.5306,5.4606,5.4591,5.4011,5.3509,5.3509,5.3509,5.3509,5.3509,5.3509,5.3509,5.3458,5.3153,5.2865,5.2851,5.3188,5.3509,4.7056,4.7097,4.7097,4.7105,4.709,4.7105,4.6962,4.6786,4.6786,4.6786,4.6786,4.6786,4.6786,4.6786,4.6786,4.6447,4.5872,4.5838,4.5507,4.4912,4.4878,4.4871,4.4871,4.4871,4.521,4.5805,4.5217,4.5203,4.5831,4.5169,4.4838,4.477,4.5372,4.5331,4.454,4.2631,4.1914,4.2428,4.3091,4.3782,4.4544,4.451,4.4238,4.3866,4.3435,4.2962,4.2495,4.1963,4.1565,4.1233,4.0508,3.9344,3.7622,3.6644,3.5278,0.0,3.3096,0.0,0.0,0.0,0.0,0.0,0.0,0.0,0.0,3.6051,3.6431,3.7681,3.8856,4.0121,4.1508,4.2882,4.3693,4.3727,4.5046,4.6,4.6136,4.7244,4.836,4.918,4.9763,5.0413,5.1175,5.1911,5.2584,5.3301,5.3534,5.3975,5.5218,5.545,5.5989,5.7641,5.7216,5.6504,5.6335,5.6342,5.6295,5.624,5.5275,5.4482,5.4404,5.3922,5.3543,5.3611,5.3577,5.3543,5.3611,5.3577,5.3551,5.3687,5.367,5.3644,5.3636,5.3678,5.3687,4.8571,4.8578,4.8578,4.8578,4.8578,4.8578,4.7902,4.6786,4.6786,4.6786,4.6786,4.6786,4.6786,4.6786,4.6786,4.6733,4.6583,4.659,4.6522,4.6394,4.6387,4.6387,4.6387,4.6394,4.6447,4.659,4.6462,4.6455,4.659,4.6455,4.6082,4.55,4.5635,4.5338,4.4608,0.0,0.0,0.0,4.3355,4.3721,4.438,4.3859,4.3414,4.3186,4.3079,0.0,4.1309,4.111,4.0845,4.0377,3.9996,0.0,0.0,0.0,0.0,0.0,0.0,0.0,0.0,0.0,0.0,0.0,3.8785,3.8045,3.7213,3.8895,4.0179,4.0478,4.1751,4.2963,4.3856,4.4756,4.5256,4.5324,4.6602,4.7718,4.83,4.8638,4.9281,5.0626,5.0405,5.0616,5.1894,5.2232,5.2603,5.3394,5.4004,5.446,5.4772,5.4917,5.5447,5.6734,5.6528,5.5558,5.4322,5.4327,5.4587,5.4084,5.3971,5.3734,5.3725,5.366,5.3754,5.416,5.3923,5.3712,5.4236,5.3923,5.3687,5.4271,5.4398,5.4389,5.4394,5.44,5.457,4.9018,4.9018,4.9018,4.9018,0.0,4.9018,4.8781,4.8417,4.8045,4.7902,4.7868,4.7868,4.7868,4.7902,4.7868,4.7699,4.7361,4.7353,4.7158,4.6793,4.6786,4.6786,4.6786,4.6786,4.6989,4.7319,4.6962,4.6989,4.7319,4.6996,4.659,4.6237,4.6602,4.6609,4.6244,4.6218,4.5669,4.4539,4.4546,4.487,4.5508,4.4836,4.4395,4.4176,4.3539,0.0,0.0,0.0,0.0,0.0,0.0,0.0,0.0,0.0,0.0,3.8703,3.8448,3.8448,3.8679,3.9581,4.0436,4.1127,4.2054,4.1807,3.9918,4.1672,4.3037,4.3396,4.4133,4.485,4.5616,4.6346,4.6913,4.7319,4.83,4.9154,4.9492,4.989,5.0364,5.1032,5.1217,5.1657,5.2731,5.29,5.3036,5.3424,5.3816,5.4229,5.4619,5.527,5.6075,5.6763,5.6935,5.631,5.4984,5.4942,5.4762,5.4275,5.4048,5.389,5.3585,5.3509,5.3611,5.3957,5.3721,5.3644,5.3923,5.3721,5.3729,5.4389,5.4584,5.4895,5.5427,5.5396,5.5246,4.939,4.9375,4.9383,4.9383,4.9383,4.9383,4.9729,5.027,4.9627,0.0,0.0,4.9416,4.9323,4.9187,4.9187,4.8774,4.8124,4.809,4.7752,4.7199,4.7199,4.7199,4.7199,4.7199,4.7488,4.8048,4.7488,4.7496,4.8048,4.7462,4.7199,4.7259,4.7793,4.809,4.809,4.809,4.7515,4.6338,4.5899,4.6007,4.6556,4.5865,4.5423,4.5247,4.4048,4.3347,4.3235,4.2038,4.1299,4.116,4.0536,4.0139,4.018,4.0805,4.128,4.1581,4.2151,4.2361,4.2043,4.3125,4.3599,4.3098,4.4952,4.5196,4.3078,4.4195,4.5311,4.6034,4.6094,4.6447,4.73,4.7936,4.8563,4.9315,4.9932,5.0304,5.0507,5.0871,5.1269,5.1573,5.2029,5.2604,5.334,5.3611,5.3687,5.3721,5.3966,5.4152,5.4933,5.6046,5.6667,5.6616,5.7024,5.716,5.6136,5.5837,5.5908,5.473,5.4454,5.4194,5.3678,5.3509,5.3543,5.3788,5.3619,5.3577,5.3644,5.3619,5.3771,5.4457,5.4735,5.52,5.636,5.6297,5.5963,5.0855,5.0905,5.0905,5.0897,5.0897,5.0905,5.0964,5.1032,5.0939,5.0897,5.0897,5.0897,5.0533,4.994,4.994,4.956,4.8841,4.8841,4.8774,4.8714,4.8672,4.8672,4.8672,4.8672,4.8748,4.8841,4.8748,4.874,4.8808,4.8748,4.8714,4.8714,4.8808,4.8841,4.8841,4.8841,4.874,4.8503,4.665,4.573,4.5831,4.5142,4.4751,4.4659,4.3898,4.3389,4.3356,4.261,4.213,4.2107,4.2012,4.1944,4.1937,4.2059,4.2406,4.3024,4.3186,4.3768,4.4945,4.5256,4.5602,4.615,4.7049,4.6906,4.5425,4.6015,4.6793,4.7515,4.7582,4.8165,4.9432,4.9703,5.0033,5.0769,5.0964,5.1277,5.1826,5.1547,5.1742,5.2824,5.2638,5.2638,5.3441,5.4059,5.4406,5.4507,5.4837,5.5539,5.6068,5.6668,5.6539,5.6124,5.6459,5.6557,5.5809,5.5204,5.4967,5.4661,5.4084,5.378,5.3543,5.3509,5.3687,5.4296,5.3856,5.3746,5.4194,5.3923,5.3932,5.4483,5.5067,5.573,5.661,5.6626,5.6735,5.1201,5.1201,5.1201,5.1201,5.1235,5.1615,5.1792,5.1852,5.2249,5.1945,5.1235,5.1201,5.0998,5.071,5.0702,5.0533,5.0186,5.0186,5.0194,5.0186,5.0186,5.0194,5.0194,5.0194,5.0194,5.0186,5.0194,5.0186,5.0186,5.0186,5.0186,5.0153,4.9796,4.9593,4.956,4.9221,4.9018,4.8984,4.7996,4.7481,4.7488,4.6786,4.6372,4.638,4.5635,4.5222,4.5222,4.4519,4.4147,4.4147,4.3748,4.3714,4.412,4.4147,4.4478,4.5188,4.5256,4.5568,4.6244,4.6677,4.7225,4.7943,4.868,4.8815,4.8146,4.8037,4.8308,4.9018,4.9086,4.9518,5.0574,5.0702,5.1014,5.1725,5.1784,5.1961,5.2258,5.2452,5.2562,5.2833,5.2942,5.3247,5.3991,5.4406,5.4778,5.5099,5.5539,5.5733,5.5683,5.597,5.6252,5.6271,5.6268,5.5886,5.5278,5.5216,5.4835,5.4177,5.4067,5.3889,5.3636,5.3509,5.3653,5.3923,5.3687,5.3644,5.4,5.3754,5.4,5.4932,5.5035,5.555,5.6378,5.6515,5.6362,5.17,5.1742,5.1708,5.1716,5.1776,5.2325,5.257,5.263,5.3213,5.2833,5.181,5.1708,5.1607,5.148,5.1438,5.1344,5.1235,5.1201,5.1201,5.1201,5.1201,5.1201,5.1201,5.1201,5.1201,5.1201,5.1201,5.1201,5.1201,5.1201,5.1201,5.1167,5.0642,5.0346,5.0346,4.9796,4.9492,4.9484,4.9518,4.9315,4.8984,4.8436,4.8157,4.809,4.7428,4.7056,4.7015,4.6346,4.5974,4.5933,4.5406,4.5345,4.5906,4.5974,4.6278,4.6947,4.7064,4.7199,4.7537,4.8063,4.874,4.945,4.9999,5.0346,5.0312,4.9822,4.9729,5.0236,5.0346,5.0642,5.1277,5.1446,5.175,5.2469,5.257,5.2596,5.263,5.3137,5.3281,5.2739,5.3145,5.3746,5.4372,5.4609,5.4879,5.5471,5.5699,5.5437,5.504,5.5268,5.5674,5.6021,5.5944,5.5565,5.4964,5.5114,5.4919,5.3847,5.4033,5.3957,5.3636,5.3509,5.3509,5.3543,5.3543,5.3509,5.3509,5.3509,5.3915,5.4762,5.4805,5.5,5.5892,5.5788,5.5581,5.3272,5.3306,5.3205,5.3272,5.3239,5.334,5.334,5.3374,5.3475,5.3441,5.3205,5.3306,5.2833,5.2266,5.2198,5.1886,5.1302,5.1235,5.1269,5.1269,5.1201,5.1201,5.1302,5.1235,5.1201,5.1269,5.1269,5.1336,5.1336,5.1269,5.1235,5.1201,5.1125,5.1108,5.1066,5.0998,5.0964,5.0998,5.099,5.0356,4.9086,4.8909,4.8909,4.8917,4.8191,4.7785,4.7793,4.7083,4.6691,4.6691,4.6658,4.6624,4.6725,4.6725,4.7022,4.7752,4.7819,4.8368,4.9601,4.9838,5.0168,5.0897,5.1032,5.11,5.11,5.1074,5.0998,5.1141,5.1133,5.1412,5.2097,5.2198,5.2503,5.3171,5.3306,5.3374,5.334,5.345,5.3484,5.3416,5.3408,5.3788,5.4439,5.4642,5.4947,5.5597,5.5699,5.5665,5.5496,5.5141,5.4938,5.504,5.5277,5.5597,5.5395,5.5006,5.4617,5.4363,5.3949,5.367,5.3534,5.3509,5.3509,5.3509,5.3509,5.3509,5.3577,5.3509,5.3602,5.4398,5.4652,5.4733,5.4813,5.489,5.5082,5.3509,5.3509,5.3509,5.3509,5.3509,5.3509,5.3509,5.3509,5.3509,5.3509,5.3509,5.3509,5.3315,5.301,5.301,5.2833,5.2562,5.2562,5.2562,5.2562,5.2554,5.2562,5.2562,5.2554,5.2562,5.2562,5.2554,5.2554,5.2562,5.2562,5.2562,5.2494,5.2122,5.1852,5.1818,5.1404,5.1201,5.1201,5.1201,5.0889,5.0389,5.0288,5.0093,4.9661,4.9357,4.8977,4.8563,4.824,4.8105,4.8105,4.8105,4.8105,4.8105,4.8105,4.8443,4.9146,4.9619,5.0127,5.0702,5.0736,5.0871,5.1201,5.1607,5.1852,5.1886,5.2291,5.2562,5.2528,5.2122,5.2164,5.2875,5.3002,5.3179,5.3441,5.3509,5.3509,5.3509,5.3509,5.3509,5.3509,5.3509,5.3754,5.4473,5.4972,5.5336,5.5665,5.5699,5.5699,5.5665,5.5437,5.5302,5.5268,5.553,5.5225,5.4693,5.4194,5.4025,5.3923,5.3712,5.3509,5.3577,5.3509,5.3509,5.3543,5.3611,5.3814,5.4126,5.422,5.4321,5.4848,5.5476,5.5778,5.5347,5.5252,5.5437,5.4084,5.4118,5.4093,5.4084,5.4084,5.4093,5.4118,5.4118,5.4093,5.4126,5.4084,5.4084,5.4084,5.405,5.3721,5.3509,5.3509,5.3509,5.3509,5.3509,5.3509,5.3509,5.3509,5.3509,5.3509,5.3509,5.3475,5.3475,5.3509,5.3509,5.3509,5.3408,5.2909,5.2638,5.257,5.2089,5.1852,5.1844,5.181,5.1852,5.181,5.181,5.1378,5.0507,5.0405,5.0135,4.9619,4.9619,4.9586,4.9612,4.9586,4.9619,4.9612,4.9619,4.9856,5.0371,5.0897,5.1302,5.148,5.1514,5.1607,5.1852,5.2359,5.2638,5.2731,5.3137,5.3475,5.3408,5.2968,5.2909,5.3374,5.3509,5.3509,5.3509,5.3509,5.3509,5.3509,5.3509,5.3509,5.3509,5.3509,5.3788,5.4532,5.5387,5.5978,5.5767,5.5699,5.5699,5.5699,5.5665,5.5665,5.5699,5.5699,5.5293,5.4321,5.4287,5.4109,5.4118,5.4219,5.4253,5.4118,5.4109,5.4109,5.4515,5.4211,5.4219,5.4727,5.4964,5.5092,5.603,5.6497,5.6377,5.5727,5.5712,5.569,5.5597,5.5597,5.5597,5.553,5.5564,5.553,5.5564,5.5462,5.553,5.5564,5.5496,5.553,5.5564,5.5428,5.4186,5.3509,5.3509,5.3543,5.3543,5.3509,5.3509,5.3509,5.3509,5.3509,5.3509,5.3611,5.3611,5.3543,5.3509,5.3509,5.3509,5.3475,5.3408,5.3408,5.3374,5.3272,5.3374,5.3239,5.3239,5.3306,5.334,5.3332,5.2596,5.137,5.1167,5.1108,5.1032,5.1066,5.1058,5.1066,5.0998,5.1032,5.1066,5.1074,5.1108,5.1167,5.1201,5.1573,5.2156,5.2266,5.257,5.3205,5.3306,5.3441,5.3441,5.3441,5.3509,5.3509,5.3408,5.3408,5.3475,5.3509,5.3509,5.3509,5.3509,5.3509,5.3509,5.3577,5.3509,5.3577,5.3678,5.4025,5.4609,5.5852,5.6215,5.5936,5.5733,5.58,5.5936,5.5834,5.5868,5.5868,5.5868,5.5699,5.5597,5.5259,5.5369,5.5302,5.5124,5.5428,5.5564,5.5589,5.5521,5.5462,5.5293,5.5293,5.553,5.5699,5.5784,5.6175,5.627,5.608,5.6296,5.5879,5.5959,5.5699,5.5699,5.5699,5.5699,5.5699,5.5699,5.5699,5.5699,5.5699,5.5699,5.5699,5.5699,5.5699,5.5656,5.5158,5.4659,5.4228,5.4203,5.3957,5.3543,5.3509,5.3754,5.4169,5.4194,5.4203,5.4194,5.4203,5.3966,5.3543,5.3509,5.3509,5.3509,5.3509,5.3509,5.3509,5.3509,5.3509,5.3509,5.3509,5.3509,5.3509,5.3509,5.3205,5.2697,5.2156,5.1683,5.1235,5.1201,5.1201,5.1201,5.1201,5.1201,5.1235,5.1649,5.1886,5.1953,5.2393,5.2799,5.301,5.3069,5.3408,5.4067,5.3754,5.3721,5.3991,5.3788,5.3509,5.3509,5.3509,5.3509,5.3509,5.3509,5.3509,5.3509,5.3509,5.3543,5.3611,5.3881,5.4194,5.4262,5.4558,5.5031,5.5268,5.5775,5.6147,5.6384,5.6384,5.6587,5.7002,5.7103,5.7002,5.707,5.7103,5.7112,5.7103,5.6181,5.5708,5.5665,5.5631,5.5665,5.5733,5.5868,5.58,5.5902,5.5902,5.6105,5.6249,5.6689,5.6765,5.6865,5.6896,5.6792,5.7091,5.6786,5.6874,5.6427,5.6418,5.6418,5.6409,5.6418,5.6418,5.6418,5.6418,5.6418,5.6384,5.6418,5.6418,5.6418,5.635,5.6172,5.564,5.4972,5.471,5.4203,5.3551,5.3509,5.389,5.4473,5.4363,5.4507,5.4837,5.4676,5.4347,5.3864,5.3619,5.3619,5.3856,5.3856,5.3991,5.4152,5.4219,5.4118,5.3915,5.3864,5.3754,5.3543,5.3509,5.3509,5.3408,5.2976,5.2461,5.1953,5.1945,5.1953,5.1919,5.1953,5.181,5.1649,5.2021,5.2291,5.2393,5.3036,5.3509,5.3509,5.3509,5.3712,5.416,5.3814,5.3754,5.416,5.3788,5.3543,5.3509,5.3509,5.3509,5.3543,5.3712,5.3754,5.3611,5.3721,5.3856,5.3881,5.4499,5.4896,5.5031,5.5572,5.5969,5.6071,5.6283,5.6655,5.7103,5.7137,5.7417,5.7789,5.79,5.79,5.79,5.7798,5.7764,5.7688,5.7011,5.6664,5.663,5.6486,5.635,5.6215,5.6283,5.6274,5.635,5.6486,5.6689,5.707,5.7552,5.7789,5.7866,5.7719,5.7461,5.7667,5.7771,5.7654,5.7857,5.7798,5.7866,5.7755,5.7688,5.7688,5.7823,5.7721,5.7755,5.7654,5.7586,5.7764,5.7654,5.7654,5.7036,5.6427,5.5708,5.5108,5.4329,5.3543,5.3509,5.389,5.455,5.4033,5.4422,5.5505,5.4871,5.4609,5.4575,5.3991,5.3923,5.4507,5.4609,5.4871,5.5622,5.5462,5.52,5.4676,5.4473,5.416,5.3611,5.3509,5.3509,5.3509,5.3441,5.3416,5.3441,5.3374,5.3306,5.334,5.3382,5.3103,5.2435,5.2401,5.2367,5.2503,5.3112,5.3475,5.3509,5.3509,5.3509,5.3712,5.3551,5.3585,5.3754,5.3611,5.3509,5.3509,5.3577,5.3577,5.3712,5.4194,5.4338,5.3754,5.4203,5.4609,5.4735,5.5234,5.5733,5.5868,5.6418,5.6765,5.6934,5.7239,5.7611,5.7688,5.7755,5.7755,5.7857,5.79,5.79,5.79,5.79,5.79,5.79,5.7866,5.7832,5.7764,5.762,5.7451,5.7315,5.7282,5.7205,5.7248,5.7214,5.7417,5.7383,5.7823,5.7832,5.79,5.79,5.79,5.79,5.79,5.79,5.79,5.79,5.79,5.79,5.79,5.79,5.79,5.79,5.79,5.79,5.79,5.79,5.79,5.7857,5.7654,5.7137,5.6452,5.6156,5.5175,5.378,5.3543,5.3957,5.4473,5.4397,5.4761,5.5361,5.4422,5.4397,5.5074,5.4609,5.4634,5.52,5.5336,5.5462,5.5708,5.5665,5.5336,5.4676,5.4609,5.4236,5.3577,5.3509,5.3509,5.3509,5.3509,5.3721,5.4194,5.378,5.3509,5.3509,5.3509,5.3382,5.3179,5.3103,5.3145,5.3137,5.334,5.3509,5.3509,5.3509,5.3721,5.4025,5.378,5.3822,5.4101,5.3822,5.3577,5.3611,5.3957,5.427,5.4372,5.4905,5.4997,5.4338,5.4905,5.5378,5.5513,5.6021,5.6655,5.7128,5.7417,5.7552,5.7552,5.7857,5.7958,5.7967,5.7967,5.8001,5.7967,5.8069,5.79,5.79,5.79,5.8103,5.8238,5.834,5.834,5.8195,5.8094,5.7934,5.79,5.79,5.79,5.79,5.79,5.79,5.79,5.79,5.79,5.7967,5.8001,5.7967,5.79,5.8035,5.8272,5.79,5.79,5.79,5.806,5.8287,5.8321,5.833,5.8321,5.8287,5.8161,5.7958,5.79,5.79,5.7823,5.762,5.7239,5.6799,5.6519,5.564,5.449,5.4321,5.4727,5.5387,5.5725,5.5852,5.5911,5.5166,5.5209,5.6012,5.5403,5.5234,5.5631,5.5978,5.6114,5.6114,5.608,5.575,5.5074,5.4744,5.4236,5.3712,5.3754,5.378,5.3585,5.3746,5.3991,5.416,5.3712,5.3644,5.3721,5.3416,5.3179,5.3441,5.3239,5.3179,5.3441,5.3509,5.3509,5.3509,5.3509,5.3678,5.4025,5.3991,5.4093,5.4473,5.4296,5.4312,5.4422,5.4727,5.5006,5.5108,5.5674,5.5843,5.548,5.5818,5.6224,5.6494,5.6934,5.7306,5.7721,5.7866,5.79,5.79,5.8229,5.8297,5.8321,5.8533,5.8703,5.8703,5.878,5.8703,5.8669,5.8872,5.8939,5.8838,5.8804,5.8813,5.8601,5.8355,5.806,5.79,5.79,5.79,5.79,5.79,5.79,5.79,5.79,5.7934,5.801,5.8352,5.8558,5.8786,5.8906,5.9075,5.8035,5.8026,5.7992,5.8389,5.8921,5.8921,5.8853,5.8844,5.8945,5.8549,5.7992,5.79,5.79,5.7721,5.734,5.7036,5.6765,5.6384,5.6114,5.5877,5.5834,5.608,5.6393,5.6842,5.69,5.6731,5.6528,5.663,5.6824,5.6114,5.58,5.6046,5.6587,5.6867,5.6867,5.6867,5.6461,5.5606,5.5006,5.4363,5.3611,5.4059,5.4236,5.3644,5.4203,5.4372,5.4186,5.4084,5.4093,5.427,5.3179,5.29,5.3247,5.2773,5.2841,5.3475,5.3543,5.3619,5.3585,5.3814,5.3847,5.3983,5.4431,5.4685,5.4812,5.5166,5.5395,5.5471,5.5665,5.5775,5.5868,5.6418,5.6799,5.6925,5.69,5.7137,5.773,5.79,5.8026,5.8026,5.7992,5.8069,5.8229,5.8761,5.8989,5.9158,5.9539,5.9742,5.981,5.9708,5.9979,5.9911,5.9674,5.9607,5.9404,5.9404,5.9413,5.9268,5.8998,5.877,5.8432,5.8398,5.8432,5.8364,5.8195,5.8103,5.818,5.8426,5.8594,5.8907,5.9226,5.95,5.9609,5.9623,5.9684,5.9505,5.9471,5.893,5.8819,5.8979,5.8989,5.8684,5.8321,5.8819,5.8592,5.8026,5.79,5.79,5.7866,5.7688,5.762,5.7485,5.7349,5.7315,5.7315,5.7315,5.6689,5.6147,5.6215,5.6562,5.6722,5.6452,5.6562,5.7485,5.6867,5.6756,5.7306,5.7374,5.7552,5.762,5.7518,5.69,5.5868,5.553,5.4769,5.378,5.378,5.3991,5.4338,5.4541,5.5074,5.5784,5.5919,5.5108,5.3856,5.3484,5.3272,5.3577,5.3374,5.3408,5.3678,5.4059,5.4296,5.4397,5.4761,5.5056,5.5133,5.5234,5.5403,5.5403,5.5572,5.5699,5.5809,5.6147,5.6519,5.663,5.7205,5.7789,5.8244,5.7974,5.7789,5.8026,5.838,5.8718,5.8761,5.9167,5.9336,5.9447,5.9607,5.981,5.9834,6.0047,6.025,6.0385,6.0385,6.0486,6.0216,6.0013,6.0047,6.0013,6.0013,5.9979,5.9902,5.98,5.9776,5.9573,5.9505,5.9539,5.9573,5.9268,5.9109,5.934,5.9605,5.9781,5.9706,5.9892,6.0063,5.9996,6.0025,6.0115,6.008,6.0013,5.9327,5.9191,5.9394,5.9124,5.8752,5.849,5.8786,5.8583,5.8026,5.79,5.79,5.79,5.79,5.79,5.79,5.79,5.7866,5.7866,5.7832,5.7383,5.6799,5.6655,5.6867,5.7171,5.6833,5.7137,5.7688,5.7451,5.7374,5.7417,5.7755,5.7764,5.7374,5.7417,5.707,5.624,5.5868,5.5234,5.4515,5.4727,5.4862,5.5175,5.5319,5.5919,5.6316,5.6316,5.5674,5.4693,5.4456,5.4549,5.4828,5.4549,5.4549,5.4837,5.504,5.5065,5.5099,5.5471,5.5665,5.5767,5.5936,5.6147,5.6215,5.6384,5.6621,5.6722,5.7297,5.7636,5.7839,5.8389,5.8964,5.9302,5.9066,5.8838,5.8829,5.9225,5.9428,5.9564,5.98,6.0114,6.0114,6.0385,6.0544,6.0689,6.097,6.1095,6.1197,6.1061,6.096,6.0858,6.0892,6.1028,6.1095,6.1095,6.1028,6.0926,6.0791,6.0757,6.0419,6.0317,6.0216,6.0182,6.0148,6.0157,6.0287,6.0359,6.0274,6.0284,6.0467,6.0719,6.0801,6.0733,6.0782,6.0283,6.0172,5.9419,5.9462,5.981,5.9293,5.8887,5.8853,5.8955,5.8592,5.8001,5.79,5.79,5.79,5.79,5.79,5.79,5.79,5.79,5.79,5.79,5.7764,5.7688,5.762,5.7654,5.7755,5.7866,5.7832,5.7866,5.7866,5.7552,5.7383,5.7688,5.7543,5.7273,5.707,5.69,5.6655,5.6172,5.5809,5.5564,5.5877,5.5978,5.5944,5.6503,5.6528,5.6316,5.6139,5.6021,5.5936,5.58,5.5834,5.635,5.5902,5.5902,5.6224,5.5944,5.58,5.5834,5.5969,5.6105,5.635,5.6858,5.7094,5.7374,5.7848,5.8127,5.8127,5.8752,5.8955,5.9124,5.9733,6.0114,6.025,6.0216,6.0317,6.0317,6.0283,6.0216,6.025,6.0283,6.0351,6.052,6.0892,6.139,6.14,6.168,6.1782,6.1839,6.1815,6.1883,6.1951,6.2052,6.2221,6.2255,6.2255,6.2154,6.2052,6.1917,6.1714,6.1061,6.0825,6.0588,6.0564,6.0926,6.096,6.0767,6.079,6.0847,6.1031,6.1342,6.1728,6.2057,6.1795,6.1748,6.1579,6.0994,6.0216,5.9597,5.925,5.9081,5.8684,5.8195,5.8752,5.8549,5.8026,5.7934,5.7934,5.7967,5.8026,5.79,5.8026,5.8026,5.79,5.79,5.79,5.79,5.7967,5.8035,5.7967,5.7967,5.79,5.7934,5.7967,5.8026,5.7857,5.7823,5.7789,5.7823,5.7721,5.7586,5.734,5.69,5.6621,5.6316,5.5902,5.6003,5.6316,5.663,5.7349,5.7586,5.7485,5.7451,5.7451,5.7171,5.6486,5.6172,5.6147,5.5936,5.6003,5.6249,5.6553,5.6621,5.6689,5.7171,5.7669,5.8109,5.8312,5.8743,5.9336,5.937,5.9573,5.9641,5.9776,5.9877,6.0047,6.0622,6.0984,6.1187,6.1535,6.1849,6.1806,6.1409,6.1095,6.1129,6.1501,6.1883,6.1873,6.2009,6.2212,6.2221,6.2289,6.2424,6.2526,6.2627,6.2729,6.2898,6.2864,6.2966,6.2966,6.2966,6.2966,6.2966,6.2898,6.283,6.2178,6.1806,6.1782,6.1815,6.1951,6.1815,6.1443,6.1646,6.1796,6.199,6.2091,6.2207,6.2323,6.2391,6.2424,6.1985,6.1221,6.0452,5.9674,5.9022,5.8616,5.8254,5.8026,5.8287,5.8481,5.8447,5.8423,5.8592,5.8896,5.893,5.8939,5.893,5.893,5.8939,5.8973,5.8964,5.8973,5.893,5.8863,5.8795,5.8524,5.8423,5.8558,5.877,5.8626,5.8626,5.8804,5.8297,5.8152,5.8287,5.8127,5.7712,5.7451,5.7315,5.7103,5.6799,5.6731,5.7094,5.7814,5.8524,5.8939,5.8939,5.893,5.8939,5.8727,5.8143,5.7365,5.6833,5.6731,5.6858,5.7297,5.7568,5.8051,5.8398,5.8703,5.9066,5.9462,5.953,5.9699,5.9979,6.008,6.008,6.0182,6.0419,6.0757,6.1139,6.1477,6.1873,6.2337,6.2642,6.3014,6.3159,6.2482,6.1806,6.1941,6.2415,6.2753,6.2922,6.3057,6.3328,6.3429,6.3463,6.3575,6.3642,6.3744,6.3642,6.371,6.3599,6.3599,6.3609,6.3642,6.37,6.3734,6.3768,6.3768,6.3497,6.3294,6.3169,6.2966,6.2594,6.2357,6.212,6.2391,6.2526,6.2376,6.2343,6.24,6.2458,6.256,6.2492,6.1815,6.1061,6.025,5.9496,5.8819,5.8321,5.8127,5.8127,5.8195,5.8761,5.909,5.9182,5.9438,5.9911,5.9979,6.0047,6.0047,6.0003,5.9844,5.9844,5.9844,5.9844,5.9877,5.98,5.9766,5.9361,5.9225,5.9496,5.9674,5.953,5.9404,5.9742,5.8939,5.8736,5.8921,5.8626,5.8364,5.8364,5.8364,5.833,5.8263,5.8229,5.8558,5.9056,5.9539,5.9877,5.9877,5.9911,5.9979,6.008,6.008,5.9404,5.8635,5.8263,5.8457,5.909,5.9056,5.9225,5.9573,5.9911,6.0013,6.0216,6.0283,6.0385,6.0486,6.0655,6.0689,6.0892,6.1264,6.1931,6.2492,6.2763,6.3057,6.3453,6.3656,6.3961,6.4208,6.3429,6.2932,6.2888,6.3294,6.3599,6.3802,6.3971,6.4343,6.4613,6.4647,6.4647,6.4681,6.4613,6.441,6.4241,6.4106,6.4072,6.4072,6.414,6.4241,6.4343,6.4444,6.4478,6.4468,6.4174,6.3812,6.3328,6.3,6.2898,6.2932,6.3193,6.3135,6.2749,6.2851,6.3225,6.3108,6.2773,6.2787,6.1028,6.0216,5.9496,5.8752,5.8229,5.8583,5.8819,5.8912,5.9404,5.9776,5.9911,5.9936,5.9979,6.0182,6.0114,6.0114,6.0317,6.0351,6.0283,6.0283,6.0283,6.0283,6.0351,6.0419,6.0452,6.0622,6.0351,6.0148,6.0182,5.9979,6.0114,6.008,5.9776,5.9742,5.981,5.9751,5.9505,5.9438,5.9471,5.9505,5.9505,5.9597,5.9674,5.9945,6.025,6.0317,6.025,6.0148,6.008,6.008,6.008,5.9979,5.981,5.9742,5.981,5.9868,5.9936,6.008,6.0317,6.025,6.052,6.0892,6.1163,6.1467,6.1806,6.2009,6.2009,6.2178,6.2618,6.3183,6.3308,6.369,6.4174,6.441,6.4444,6.4546,6.4613,6.4478,6.4241,6.4275,6.44,6.4434,6.458,6.4749,6.5019,6.5189,6.5155,6.5121,6.5087,6.4986,6.4783,6.4647,6.4512,6.4512,6.4512,6.458,6.4681,6.4816,6.4884,6.4908,6.484,6.4647,6.4309,6.4241,6.4072,6.3971,6.4038,6.4005,6.395,6.3714,6.3949,6.4164,6.3882,6.3627,6.3863,6.0825,6.008,5.9699,5.9158,5.866,5.9259,5.9564,5.9631,5.9945,6.0351,6.0622,6.0747,6.096,6.1206,6.1308,6.1308,6.1274,6.1298,6.1308,6.1264,6.1298,6.1298,6.1231,6.1231,6.1467,6.167,6.1434,6.124,6.124,6.0892,6.0926,6.1061,6.0588,6.0283,6.0511,6.025,6.0182,6.0148,6.0148,6.0148,6.0182,6.0452,6.0689,6.0791,6.1095,6.1274,6.1298,6.1308,6.1308,6.1308,6.1308,6.1264,6.1264,6.124,6.1139,6.0858,6.0757,6.0926,6.1206,6.1298,6.1545,6.1849,6.2168,6.254,6.2956,6.326,6.3439,6.3575,6.37,6.4062,6.4096,6.4478,6.4749,6.5087,6.5189,6.5358,6.5584,6.5696,6.5628,6.5517,6.5358,6.5256,6.5256,6.5459,6.5696,6.573,6.5696,6.5628,6.5561,6.5517,6.5415,6.5483,6.5459,6.5459,6.5425,6.5392,6.5381,6.5415,6.5449,6.5483,6.555,6.5483,6.5652,6.5753,6.5527,6.4918,6.458,6.441,6.4542,6.4676,6.4602,6.4579,6.4562,6.4573,6.4774,6.0926,6.0351,6.0182,5.9766,5.9385,6.0003,6.0351,6.0351,6.0564,6.097,6.1467,6.1535,6.1849,6.2255,6.2357,6.2357,6.2424,6.2323,6.2289,6.2255,6.2255,6.2323,6.2391,6.2424,6.2323,6.2221,6.2255,6.2424,6.213,6.1748,6.1907,6.1849,6.1037,6.0834,6.1264,6.1028,6.0631,6.0564,6.0554,6.0554,6.0723,6.1163,6.1535,6.1535,6.212,6.2333,6.2221,6.2188,6.2357,6.2448,6.2584,6.2651,6.2797,6.283,6.256,6.2042,6.1839,6.211,6.2415,6.2821,6.2864,6.3,6.3386,6.3622,6.3792,6.4096,6.4478,6.4613,6.4783,6.4816,6.485,6.4975,6.5358,6.574,6.5977,6.6079,6.643,6.6565,6.6497,6.6362,6.6136,6.6068,6.6068,6.6034,6.6261,6.6294,6.6227,6.6294,6.6261,6.6362,6.6362,6.6497,6.6531,6.6531,6.6464,6.6362,6.6294,6.6227,6.6261,6.6261,6.643,6.6565,6.6633,6.6531,6.6092,6.5517,6.5144,6.5009,6.5385,6.5508,6.5175,6.5171,6.5439,6.5488,6.5551,6.1255,6.1086,6.0385,6.0047,6.0114,6.0825,6.1163,6.1231,6.1738,6.2164,6.2188,6.2255,6.2255,6.2391,6.2424,6.2424,6.2424,6.2424,6.2424,6.2424,6.2424,6.2424,6.2424,6.2424,6.2492,6.2526,6.2526,6.2424,6.2526,6.2391,6.2255,6.2255,6.2255,6.2188,6.2188,6.2178,6.2154,6.212,6.211,6.211,6.2144,6.2245,6.2323,6.2357,6.2458,6.2627,6.2695,6.2729,6.2864,6.3318,6.3386,6.369,6.4208,6.4343,6.4309,6.4038,6.369,6.3274,6.3453,6.3768,6.4082,6.4082,6.4377,6.4468,6.4637,6.4671,6.485,6.4647,6.5155,6.5537,6.5696,6.6125,6.6464,6.6677,6.6812,6.6802,6.6994,6.7444,6.7377,6.7275,6.7083,6.6937,6.6869,6.6802,6.6768,6.6802,6.6836,6.6937,6.7039,6.7242,6.7275,6.7411,6.7444,6.7444,6.7478,6.7377,6.7309,6.7174,6.714,6.714,6.7242,6.7309,6.6937,6.6768,6.6396,6.6261,6.6058,6.6125,6.6396,6.6294,6.599,6.6193,6.6578,6.6502,6.6224,6.167,6.1264,6.0926,6.0791,6.0892,6.1603,6.1907,6.1985,6.2255,6.2424,6.2424,6.2424,6.2424,6.2424,6.2424,6.2424,6.2424,6.2424,6.2424,6.2458,6.2458,6.2458,6.2424,6.2458,6.2526,6.299,6.3081,6.3396,6.326,6.2797,6.2424,6.2526,6.2787,6.299,6.3091,6.3439,6.3599,6.3632,6.3632,6.3632,6.3642,6.3642,6.3632,6.3609,6.3609,6.3575,6.3565,6.3632,6.3768,6.413,6.413,6.4241,6.4512,6.458,6.458,6.458,6.4749,6.4546,6.4231,6.4512,6.4647,6.4783,6.4986,6.5392,6.5696,6.5821,6.5831,6.5855,6.6125,6.6305,6.6474,6.7005,6.7286,6.7489,6.7692,6.7884,6.7918,6.8087,6.8256,6.8155,6.8053,6.7918,6.7783,6.7715,6.776,6.7884,6.7952,6.8053,6.8155,6.8324,6.8324,6.829,6.829,6.8301,6.8368,6.8368,6.8335,6.8256,6.8256,6.8222,6.8098,6.7996,6.7614,6.7242,6.6937,6.6869,6.6903,6.6768,6.6633,6.67,6.6802,6.6802,6.6802,6.6757,6.6546,6.2076,6.1569,6.1569,6.1569,6.1612,6.2188,6.2391,6.2391,6.2391,6.2424,6.2424,6.2424,6.2424,6.2424,6.2424,6.2424,6.2424,6.2594,6.2651,6.2695,6.2864,6.3033,6.3135,6.3091,6.3294,6.3758,6.3758,6.4005,6.4005,6.3666,6.3091,6.2956,6.3531,6.3758,6.3927,6.4174,6.441,6.441,6.4444,6.4444,6.4478,6.4512,6.4512,6.4546,6.458,6.4613,6.4613,6.4546,6.4546,6.485,6.4884,6.4996,6.5256,6.5381,6.5358,6.5415,6.5662,6.5662,6.5392,6.5324,6.5144,6.5324,6.5527,6.617,6.6565,6.6903,6.7072,6.6981,6.7343,6.7411,6.7478,6.7918,6.8098,6.8368,6.8605,6.891,6.9113,6.8967,6.8831,6.8673,6.8707,6.9011,6.8876,6.8718,6.8751,6.8977,6.9079,6.9147,6.9147,6.9169,6.9034,6.8865,6.8842,6.8842,6.8887,6.8977,6.9079,6.9203,6.9237,6.9102,6.8831,6.8605,6.8301,6.7929,6.7624,6.7715,6.7918,6.7343,6.6802,6.6802,6.6802,6.6802,6.6802,6.6869,6.7005,6.2391,6.2323,6.2323,6.2289,6.2289,6.2391,6.2424,6.2424,6.2424,6.2424,6.2424,6.2458,6.2526,6.2492,6.2618,6.2627,6.2526,6.3125,6.3352,6.3656,6.4038,6.4174,6.4174,6.4174,6.4343,6.4502,6.4546,6.458,6.4681,6.4783,6.4444,6.4468,6.4512,6.4512,6.4613,6.4816,6.4952,6.4952,6.4918,6.4884,6.485,6.4816,6.4783,6.4749,6.4671,6.4603,6.4647,6.4816,6.5087,6.5595,6.5639,6.5831,6.6159,6.6261,6.6261,6.6497,6.6565,6.6667,6.6633,6.6531,6.6588,6.6656,6.6757,6.6937,6.7208,6.758,6.776,6.7895,6.8222,6.8605,6.873,6.8967,6.9011,6.9147,6.935,6.9553,6.9654,6.9508,6.9372,6.918,6.935,6.9755,6.9958,6.9755,6.962,6.9789,6.9744,6.9778,6.9654,6.962,6.944,6.9316,6.9282,6.9259,6.9202,6.9371,6.9687,6.9789,6.9756,6.9564,6.9339,6.9102,6.9022,6.8876,6.8639,6.8774,6.873,6.8053,6.7444,6.7005,6.6914,6.7326,6.7419,6.7444,6.7614,6.2424,6.2424,6.2424,6.2424,6.2424,6.2424,6.2424,6.2424,6.2424,6.2424,6.2458,6.2844,6.3081,6.3183,6.3599,6.3734,6.3768,6.4005,6.413,6.4231,6.4478,6.458,6.4613,6.4749,6.4783,6.5155,6.529,6.5584,6.5956,6.5787,6.5956,6.5855,6.5537,6.5334,6.5368,6.5628,6.5821,6.5889,6.5889,6.5922,6.5956,6.5956,6.5956,6.5956,6.5956,6.5956,6.599,6.5956,6.6136,6.6305,6.6406,6.6667,6.6859,6.6937,6.714,6.7411,6.7489,6.7681,6.7918,6.7783,6.7681,6.8155,6.8222,6.8155,6.8019,6.8459,6.8605,6.8774,6.8944,6.9282,6.9147,6.9485,6.98,6.9902,7.0026,7.0218,7.0252,7.015,7.015,7.0049,7.0319,7.0692,7.0804,7.0838,7.0703,7.059,7.0489,7.0387,7.0252,7.0184,7.0083,7.0049,7.006,7.0128,7.0128,7.0262,7.0386,7.0342,7.0275,7.0196,7.0038,6.9857,6.9766,6.9665,6.9485,6.935,6.9068,6.8594,6.8232,6.7934,6.8042,6.832,6.8303,6.8043,6.8267,6.2424,6.2424,6.2424,6.2424,6.2424,6.2424,6.2424,6.2458,6.2651,6.2888,6.3101,6.3622,6.3825,6.3994,6.4299,6.4546,6.4546,6.4749,6.4884,6.5053,6.5189,6.5222,6.5256,6.5392,6.5652,6.5977,6.6034,6.6328,6.6622,6.6757,6.6869,6.6812,6.6643,6.6383,6.6136,6.6464,6.6802,6.6802,6.6802,6.6802,6.6768,6.6734,6.6734,6.669,6.6656,6.6836,6.6937,6.7039,6.7252,6.7444,6.7546,6.7523,6.7512,6.758,6.7793,6.8064,6.8335,6.8571,6.8741,6.8741,6.8493,6.8831,6.8944,6.8977,6.9113,6.9282,6.9417,6.9462,6.962,6.9755,6.9755,7.0263,7.0534,7.059,7.0725,7.0894,7.0928,7.0894,7.0962,7.103,7.1199,7.1165,7.1165,7.1165,7.1176,7.103,7.0928,7.0894,7.0894,7.0861,7.0928,7.0928,7.0962,7.1097,7.1233,7.1018,7.0793,7.0849,7.0838,7.0985,7.0861,7.0635,7.05,7.05,7.0252,6.9857,6.9744,6.9744,6.9435,6.902,6.9058,6.9009,6.8831,6.8657,6.9012,6.2424,6.2424,6.2424,6.2424,6.2492,6.2424,6.2458,6.2627,6.3226,6.3792,6.4319,6.4546,6.458,6.4613,6.485,6.4986,6.5087,6.5469,6.5672,6.5797,6.6102,6.6542,6.6565,6.6497,6.6464,6.67,6.6802,6.6836,6.7039,6.7197,6.7444,6.7726,6.7726,6.7455,6.6859,6.6802,6.6836,6.6869,6.6971,6.7072,6.7106,6.714,6.7174,6.7208,6.7208,6.7489,6.7793,6.7895,6.8132,6.8504,6.8605,6.8639,6.8673,6.8707,6.8842,6.9011,6.9045,6.9113,6.9147,6.9113,6.9282,6.9406,6.962,6.9508,6.9417,6.9722,7.0172,7.0195,7.059,7.0996,7.1165,7.1233,7.1267,7.147,7.1639,7.1706,7.1774,7.1808,7.1909,7.1977,7.1639,7.1368,7.1368,7.1402,7.1503,7.1436,7.1334,7.1289,7.1334,7.1289,7.13,7.1289,7.1289,7.1289,7.1289,7.1289,7.1233,7.1289,7.1289,7.1289,7.1289,7.1064,7.1064,7.1199,7.0962,7.0556,7.0827,7.1165,7.0521,6.9898,6.9567,6.9401,6.9256,6.9333,6.9792,6.2424,6.2458,6.2922,6.3115,6.3115,6.3149,6.3149,6.325,6.3893,6.4377,6.4681,6.5053,6.5334,6.5436,6.5797,6.5956,6.6058,6.617,6.644,6.6497,6.6768,6.6734,6.6869,6.7039,6.714,6.7411,6.7546,6.7861,6.8402,6.8155,6.8324,6.8673,6.8741,6.8571,6.8392,6.8324,6.8358,6.8335,6.8358,6.8324,6.829,6.8267,6.8233,6.8233,6.8199,6.8368,6.8639,6.8673,6.891,6.9214,6.9282,6.9282,6.9248,6.9248,6.9417,6.9688,6.9834,7.0094,7.0353,7.059,7.0556,7.0522,7.0421,7.0387,7.0624,7.0759,7.0906,7.1007,7.13,7.1639,7.1887,7.1988,7.2157,7.2699,7.2902,7.2902,7.2913,7.2902,7.2935,7.2969,7.2766,7.2597,7.2563,7.2293,7.2259,7.2124,7.2011,7.1639,7.1537,7.1402,7.1334,7.13,7.1289,7.1289,7.1334,7.1627,7.1706,7.1672,7.1503,7.1289,7.1289,7.1537,7.1503,7.1571,7.1436,7.1289,7.1334,7.1312,7.1131,7.0726,7.0333,7.0209,7.0288,7.0411,7.0737,6.2526,6.2821,6.3284,6.3646,6.3849,6.3893,6.3994,6.4309,6.4783,6.5121,6.5449,6.5899,6.6068,6.6237,6.6531,6.6802,6.6802,6.6802,6.7072,6.7106,6.7174,6.7444,6.758,6.759,6.7996,6.8233,6.8368,6.8605,6.8944,6.9045,6.9214,6.9451,6.9711,6.988,6.9711,6.9485,6.8977,6.891,6.8876,6.8944,6.8944,6.8977,6.9011,6.9011,6.9045,6.9169,6.9383,6.9519,6.9586,6.9711,6.9812,6.9812,6.9823,6.9925,7.0094,7.0466,7.0635,7.0827,7.1097,7.1571,7.1537,7.1605,7.1503,7.1436,7.1605,7.1684,7.1887,7.1988,7.1977,7.2293,7.2665,7.2766,7.3015,7.3556,7.359,7.3556,7.3522,7.3488,7.3488,7.359,7.3624,7.359,7.359,7.3387,7.3184,7.2947,7.2699,7.2326,7.2022,7.1921,7.1875,7.1875,7.1943,7.2157,7.2225,7.2327,7.2316,7.2101,7.1954,7.183,7.2124,7.2496,7.2225,7.1977,7.1943,7.1819,7.1481,7.1357,7.148,7.139,7.1086,7.1075,7.1289,7.1334,7.1402,6.2821,6.3443,6.3521,6.4005,6.4546,6.4715,6.5087,6.5662,6.5706,6.6102,6.6734,6.6667,6.6667,6.6734,6.6802,6.6802,6.6903,6.6869,6.7275,6.7715,6.7861,6.8301,6.8673,6.8842,6.8876,6.9011,6.918,6.9248,6.9214,6.9553,6.9857,7.024,7.0703,7.0827,7.0556,7.0128,6.9586,6.962,6.962,6.962,6.9643,6.9485,6.9542,6.9575,6.9586,6.9823,7.006,7.0229,7.0556,7.0827,7.1131,7.1165,7.1222,7.1255,7.1289,7.1334,7.1334,7.1402,7.1706,7.2225,7.236,7.236,7.1921,7.1988,7.2191,7.2462,7.2631,7.2913,7.3015,7.3251,7.3488,7.3556,7.3624,7.3793,7.3849,7.3827,7.3827,7.3827,7.3827,7.3894,7.3928,7.3962,7.403,7.3962,7.4063,7.403,7.386,7.3793,7.3454,7.2981,7.2947,7.2947,7.3048,7.3218,7.323,7.3039,7.2915,7.2744,7.2922,7.2921,7.3238,7.3251,7.2947,7.2699,7.2597,7.2428,7.2236,7.2146,7.2157,7.1999,7.1898,7.147,7.1537,7.1571,7.1605,6.2821,6.3545,6.4062,6.4715,6.5402,6.5933,6.6294,6.6464,6.6464,6.6633,6.6802,6.6802,6.6802,6.6802,6.6802,6.6836,6.7005,6.7275,6.7624,6.803,6.8538,6.8842,6.9079,6.9282,6.9451,6.9722,6.9925,7.0094,7.0522,7.059,7.059,7.103,7.1165,7.1267,7.1131,7.0872,7.0658,7.0522,7.0466,7.0455,7.0489,7.0455,7.0489,7.0455,7.0455,7.0703,7.0872,7.0973,7.1233,7.1334,7.1368,7.1334,7.1289,7.1334,7.1402,7.2045,7.2157,7.2293,7.2778,7.3048,7.3184,7.3206,7.2981,7.2981,7.315,7.3251,7.3341,7.3657,7.3827,7.3962,7.4187,7.4289,7.4436,7.4605,7.4627,7.4661,7.4661,7.4661,7.4661,7.4661,7.4661,7.4661,7.4706,7.4842,7.4931,7.5011,7.5011,7.4909,7.4706,7.4199,7.3928,7.3894,7.386,7.3996,7.3725,7.349,7.3433,7.3421,7.3676,7.3798,7.3689,7.3657,7.3556,7.3488,7.3421,7.3274,7.3082,7.2993,7.3005,7.3028,7.2904,7.2237,7.1774,7.1966,7.2078,6.326,6.3994,6.4715,6.5459,6.6136,6.6599,6.6802,6.6802,6.6802,6.6802,6.6802,6.6802,6.6802,6.6869,6.7106,6.7275,6.7343,6.8064,6.8571,6.9045,6.9293,6.9755,6.9857,6.9958,7.0297,7.0534,7.0669,7.0804,7.1233,7.1289,7.1267,7.1233,7.1289,7.13,7.1233,7.1199,7.1233,7.1188,7.1233,7.1289,7.1334,7.1334,7.1289,7.1368,7.1368,7.147,7.1706,7.174,7.1853,7.209,7.218,7.2191,7.2191,7.2225,7.2259,7.2812,7.2845,7.3003,7.3319,7.3759,7.3883,7.4018,7.4165,7.4368,7.4221,7.4187,7.43,7.4469,7.4503,7.4559,7.483,7.5067,7.5337,7.5608,7.5608,7.5642,7.5642,7.5642,7.5608,7.5608,7.5574,7.5574,7.5608,7.5676,7.5676,7.5506,7.5439,7.5405,7.527,7.5011,7.4796,7.4762,7.4661,7.4593,7.43,7.4165,7.43,7.4424,7.4636,7.4658,7.4356,7.4334,7.4436,7.4368,7.4266,7.403,7.3759,7.3838,7.3874,7.3842,7.3683,7.3147,7.2695,7.2731,7.2822,6.3893,6.4647,6.5469,6.6146,6.6734,6.6802,6.6802,6.6802,6.6802,6.6802,6.6802,6.6802,6.6869,6.7106,6.7489,6.7861,6.8199,6.8808,6.9383,7.0172,7.0229,7.0534,7.0894,7.1267,7.0996,7.1165,7.1267,7.1165,7.1233,7.1334,7.1334,7.1368,7.147,7.1605,7.1842,7.1808,7.1875,7.1909,7.1808,7.1774,7.1571,7.147,7.1458,7.1571,7.1672,7.1842,7.2293,7.2609,7.2812,7.3251,7.3421,7.3353,7.3319,7.3285,7.3353,7.3556,7.359,7.3793,7.4052,7.4458,7.4615,7.4886,7.5292,7.5337,7.51,7.4886,7.4965,7.5078,7.51,7.5134,7.5337,7.5371,7.5574,7.5676,7.5676,7.5676,7.5676,7.5676,7.5676,7.5676,7.5676,7.5676,7.5676,7.5676,7.5676,7.5676,7.5676,7.5676,7.5676,7.5574,7.5506,7.5439,7.527,7.5134,7.5202,7.5134,7.5337,7.5495,7.5459,7.5425,7.5067,7.5168,7.5371,7.5168,7.4864,7.4639,7.4436,7.4549,7.4537,7.4312,7.4117,7.3868,7.37,7.3709,7.3622,6.3927,6.4715,6.599,6.6633,6.6791,6.6802,6.6802,6.6802,6.6802,6.6836,6.6802,6.6869,6.7184,6.7692,6.7929,6.8335,6.891,6.9563,6.9969,7.0398,7.0703,7.0962,7.1255,7.1289,7.1289,7.1289,7.1289,7.1289,7.1334,7.1368,7.1639,7.2045,7.2124,7.2293,7.2744,7.2732,7.2732,7.2665,7.28,7.2597,7.2326,7.271,7.2981,7.2913,7.2947,7.2913,7.3218,7.3251,7.3319,7.3488,7.3488,7.3454,7.3454,7.3522,7.3827,7.4209,7.4356,7.4559,7.4864,7.5134,7.5258,7.5359,7.5574,7.5642,7.5608,7.5506,7.5473,7.5608,7.5676,7.5676,7.5709,7.5709,7.5777,7.5777,7.5811,7.5811,7.5811,7.5811,7.5811,7.5811,7.5777,7.5811,7.5845,7.5811,7.5709,7.5676,7.5676,7.5709,7.5845,7.5811,7.5845,7.5777,7.5642,7.5574,7.5709,7.5676,7.5676,7.5676,7.5584,7.563,7.5709,7.5642,7.554,7.5608,7.5439,7.5134,7.5067,7.5303,7.5224,7.4908,7.4805,7.4672,7.4807,7.485,7.4671,6.44,6.5199,6.6328,6.6802,6.6802,6.6802,6.6802,6.6869,6.7151,6.7275,6.7286,6.7343,6.7726,6.847,6.8751,6.9022,6.9688,7.0331,7.0635,7.0906,7.0996,7.1165,7.1289,7.1289,7.1289,7.1289,7.1289,7.13,7.1436,7.174,7.2112,7.2496,7.2699,7.3116,7.3522,7.3522,7.3556,7.3454,7.3827,7.3713,7.3274,7.3522,7.3522,7.3488,7.3522,7.3657,7.395,7.4018,7.4233,7.4368,7.4571,7.4571,7.4605,7.4605,7.474,7.4965,7.5134,7.527,7.5574,7.5676,7.5676,7.5676,7.5676,7.5676,7.5676,7.5574,7.5574,7.5676,7.5676,7.5676,7.5879,7.5946,7.6251,7.6386,7.6758,7.6995,7.6995,7.6995,7.6995,7.6995,7.6995,7.6995,7.6995,7.7007,7.6927,7.6927,7.6758,7.6623,7.6601,7.633,7.6251,7.6183,7.6115,7.5845,7.5676,7.5676,7.5676,7.5676,7.5676,7.5743,7.5743,7.5709,7.5676,7.5743,7.5777,7.5608,7.5642,7.5676,7.5676,7.5393,7.5427,7.5538,7.5676,7.5676,7.5371,6.5087,6.5876,6.6531,6.6802,6.6802,6.6802,6.6869,6.7072,6.7624,6.803,6.8267,6.8267,6.8639,6.9259,6.9834,7.0139,7.0477,7.0861,7.1165,7.1233,7.1233,7.1289,7.1289,7.1289,7.1402,7.1503,7.1571,7.1706,7.1887,7.2293,7.2631,7.28,7.3206,7.368,7.3725,7.3793,7.3996,7.4199,7.4458,7.4695,7.4458,7.4119,7.403,7.386,7.3827,7.4131,7.4559,7.4852,7.5168,7.5303,7.5439,7.5405,7.5417,7.5337,7.5405,7.554,7.5506,7.5574,7.5676,7.5676,7.5676,7.5676,7.5709,7.5743,7.5811,7.5879,7.5912,7.6048,7.6048,7.6048,7.6251,7.6487,7.6826,7.7096,7.7582,7.7954,7.7921,7.7921,7.7921,7.7921,7.7921,7.7921,7.7954,7.7988,7.7988,7.8056,7.8056,7.8022,7.7819,7.7345,7.7041,7.6893,7.6792,7.6454,7.5879,7.5801,7.5847,7.5676,7.5709,7.5777,7.5879,7.6048,7.6115,7.598,7.5946,7.5811,7.5709,7.5676,7.5676,7.5801,7.5676,7.5676,7.5676,7.5676,7.5676,6.5392,6.6599,6.6757,6.6802,6.6802,6.6825,6.714,6.7658,6.7861,6.8538,6.9428,6.9733,6.9902,7.0003,7.0071,7.0409,7.0939,7.1255,7.1255,7.13,7.1289,7.1289,7.1436,7.1672,7.174,7.1988,7.2259,7.2529,7.2631,7.3048,7.3578,7.404,7.4175,7.4649,7.5168,7.5134,7.5033,7.51,7.5134,7.5337,7.5405,7.5236,7.5337,7.527,7.5281,7.5371,7.5473,7.5473,7.5574,7.5642,7.5676,7.5676,7.5676,7.5676,7.5676,7.5676,7.5676,7.5811,7.5811,7.5879,7.5912,7.6048,7.6115,7.6251,7.642,7.669,7.686,7.7312,7.7312,7.7142,7.7278,7.7502,7.7773,7.7887,7.8225,7.8225,7.8225,7.8225,7.8225,7.8225,7.8225,7.8259,7.8259,7.8259,7.8293,7.8327,7.836,7.8327,7.8394,7.809,7.7819,7.765,7.7502,7.669,7.6014,7.6052,7.603,7.5847,7.5811,7.6048,7.6318,7.6623,7.6657,7.6623,7.6217,7.5946,7.5845,7.6163,7.603,7.6121,7.5801,7.5676,7.5743,7.5879,7.6048]},{"header":{"parameterUnit":"m.s-1","parameterCategory":1,"la1":31.0,"la2":29.5877,"lo1":-88.7671,"lo2":-86.6584,"dy":0.0162,"dx":0.0185,"nx":115,"ny":88,"refTime":"2026-05-01T00:00:00:Z","depth":0,"parameterNumber":3,"parameterNumberName":"V-component_of_WINDS"},"data":[0.0,0.0,0.0,0.0,0.0,0.0,0.0,0.0,0.0,0.0,0.0,0.0,0.0,0.0,0.0,0.0,0.0,0.0,0.0,0.0,0.0,0.0,0.0,0.0,0.0,0.0,0.0,0.0,0.0,0.0,0.0,0.0,0.0,0.0,0.0,0.0,0.0,0.0,0.0,0.0,0.0,0.0,0.0,0.0,0.0,0.0,0.0,0.0,0.0,0.0,0.0,0.0,0.0,0.0,0.0,0.0,0.0,0.0,0.0,0.0,0.0,0.0,0.0,0.0,0.0,0.0,0.0,0.0,0.0,0.0,0.0,0.0,0.0,0.0,0.0,0.0,0.0,0.0,0.0,0.0,0.0,0.0,0.0,0.0,0.0,0.0,0.0,0.0,0.0,0.0,0.0,0.0,0.0,0.0,0.0,0.0,0.0,0.0,0.0,0.0,0.0,0.0,0.0,0.0,0.0,0.0,0.0,0.0,0.0,0.0,0.0,0.0,0.0,0.0,0.0,0.0,0.0,0.0,0.0,0.0,0.0,0.0,0.0,0.0,0.0,0.0,0.0,0.0,0.0,0.0,0.0,0.0,0.0,0.0,0.0,0.0,0.0,0.0,0.0,0.0,0.0,0.0,0.0,0.0,0.0,0.0,0.0,0.0,0.0,0.0,0.0,0.0,0.0,0.0,0.0,0.0,0.0,0.0,0.0,0.0,0.0,0.0,0.0,0.0,0.0,0.0,0.0,0.0,0.0,0.0,0.0,0.0,0.0,0.0,0.0,0.0,0.0,0.0,0.0,0.0,0.0,0.0,0.0,0.0,0.0,0.0,0.0,0.0,0.0,0.0,0.0,0.0,0.0,0.0,0.0,0.0,0.0,0.0,0.0,0.0,0.0,0.0,0.0,0.0,0.0,0.0,0.0,0.0,0.0,0.0,0.0,0.0,0.0,0.0,0.0,0.0,0.0,0.0,0.0,0.0,0.0,0.0,0.0,0.0,0.0,0.0,0.0,0.0,0.0,0.0,0.0,0.0,0.0,0.0,0.0,0.0,0.0,0.0,0.0,0.0,0.0,0.0,0.0,0.0,0.0,0.0,0.0,0.0,0.0,0.0,0.0,0.0,0.0,0.0,0.0,0.0,0.0,0.0,0.0,0.0,0.0,0.0,0.0,0.0,0.0,0.0,0.0,0.0,0.0,0.0,0.0,0.0,0.0,0.0,0.0,0.0,0.0,0.0,0.0,0.0,0.0,0.0,0.0,0.0,0.0,0.0,0.0,0.0,0.0,0.0,0.0,0.0,0.0,0.0,0.0,0.0,0.0,0.0,0.0,0.0,0.0,0.0,0.0,0.0,0.0,0.0,0.0,0.0,0.0,0.0,0.0,0.0,0.0,0.0,0.0,0.0,0.0,0.0,0.0,0.0,0.0,0.0,0.0,0.0,0.0,0.0,0.0,0.0,0.0,0.0,0.0,0.0,0.0,0.0,0.0,0.0,0.0,0.0,0.0,0.0,0.0,0.0,0.0,0.0,0.0,0.0,0.0,0.0,0.0,0.0,0.0,0.0,0.0,0.0,0.0,0.0,0.0,0.0,0.0,0.0,0.0,0.0,0.0,0.0,0.0,0.0,0.0,0.0,0.0,0.0,0.0,0.0,0.0,0.0,0.0,0.0,0.0,0.0,0.0,0.0,0.0,0.0,0.0,0.0,0.0,0.0,0.0,0.0,0.0,0.0,0.0,0.0,0.0,0.0,0.0,0.0,0.0,0.0,0.0,0.0,0.0,0.0,0.0,0.0,0.0,0.0,0.0,0.0,0.0,0.0,0.0,0.0,0.0,0.0,0.0,0.0,0.0,0.0,0.0,0.0,0.0,0.0,0.0,0.0,0.0,0.0,0.0,0.0,0.0,0.0,0.0,0.0,0.0,0.0,0.0,0.0,0.0,0.0,0.0,0.0,0.0,0.0,0.0,0.0,0.0,0.0,0.0,0.0,0.0,0.0,0.0,0.0,0.0,0.0,0.0,0.0,0.0,0.0,0.0,0.0,0.0,0.0,0.0,0.0,0.0,0.0,0.0,0.0,0.0,0.0,0.0,0.0,0.0,0.0,0.0,0.0,0.0,0.0,0.0,0.0,0.0,0.0,0.0,0.0,0.0,0.0,0.0,0.0,0.0,0.0,0.0,0.0,0.0,0.0,0.0,0.0,0.0,0.0,0.0,0.0,0.0,0.0,0.0,0.0,0.0,0.0,0.0,0.0,0.0,0.0,0.0,0.0,0.0,0.0,0.0,0.0,0.0,0.0,0.0,0.0,0.0,0.0,0.0,0.0,0.0,0.0,0.0,0.0,0.0,0.0,0.0,0.0,0.0,0.0,0.0,0.0,0.0,0.0,0.0,0.0,0.0,0.0,0.0,0.0,0.0,0.0,0.0,0.0,0.0,0.0,0.0,0.0,0.0,0.0,0.0,0.0,0.0,0.0,0.0,0.0,0.0,0.0,0.0,0.0,0.0,0.0,0.0,0.0,0.0,0.0,0.0,0.0,0.0,0.0,0.0,0.0,0.0,0.0,0.0,0.0,0.0,0.0,0.0,0.0,0.0,0.0,0.0,0.0,0.0,0.0,0.0,0.0,0.0,0.0,0.0,0.0,0.0,0.0,0.0,0.0,0.0,0.0,0.0,0.0,0.0,0.0,0.0,0.0,0.0,0.0,0.0,0.0,0.0,0.0,0.0,0.0,0.0,0.0,0.0,0.0,0.0,0.0,0.0,0.0,0.0,0.0,0.0,0.0,0.0,0.0,0.0,0.0,0.0,0.0,0.0,0.0,0.0,0.0,0.0,0.0,0.0,0.0,0.0,0.0,0.0,0.0,0.0,0.0,0.0,0.0,0.0,0.0,0.0,0.0,0.0,0.0,0.0,0.0,0.0,0.0,0.0,0.0,0.0,0.0,0.0,0.0,0.0,0.0,0.0,0.0,0.0,0.0,0.0,0.0,0.0,0.0,0.0,0.0,0.0,0.0,0.0,0.0,0.0,0.0,0.0,0.0,0.0,0.0,0.0,0.0,0.0,0.0,0.0,0.0,0.0,0.0,0.0,0.0,0.0,0.0,0.0,0.0,0.0,0.0,0.0,0.0,0.0,0.0,0.0,0.0,0.0,0.0,0.0,0.0,0.0,0.0,0.0,0.0,0.0,0.0,0.0,0.0,0.0,0.0,0.0,0.0,0.0,0.0,0.0,0.0,0.0,0.0,0.0,0.0,0.0,0.0,0.0,0.0,0.0,0.0,0.0,0.0,0.0,0.0,0.0,0.0,0.0,0.0,0.0,0.0,0.0,0.0,0.0,0.0,0.0,0.0,0.0,0.0,0.0,0.0,0.0,0.0,0.0,0.0,0.0,0.0,0.0,0.0,0.0,0.0,0.0,0.0,0.0,0.0,0.0,0.0,0.0,0.0,0.0,0.0,0.0,0.0,0.0,0.0,0.0,0.0,0.0,0.0,0.0,0.0,0.0,0.0,0.0,0.0,0.0,0.0,0.0,0.0,0.0,0.0,0.0,0.0,0.0,0.0,0.0,0.0,0.0,0.0,0.0,0.0,0.0,0.0,0.0,0.0,0.0,0.0,0.0,0.0,0.0,0.0,0.0,0.0,0.0,0.0,0.0,0.0,0.0,0.0,0.0,0.0,0.0,0.0,0.0,0.0,0.0,0.0,0.0,0.0,0.0,0.0,0.0,0.0,0.0,0.0,0.0,0.0,0.0,0.0,0.0,0.0,0.0,0.0,0.0,0.0,0.0,0.0,0.0,0.0,0.0,0.0,0.0,0.0,0.0,0.0,0.0,0.0,0.0,0.0,0.0,0.0,0.0,0.0,0.0,0.0,0.0,0.0,0.0,0.0,0.0,0.0,0.0,0.0,0.0,0.0,0.0,0.0,0.0,0.0,0.0,0.0,0.0,0.0,0.0,0.0,0.0,0.0,0.0,0.0,0.0,0.0,0.0,0.0,0.0,0.0,0.0,0.0,0.0,0.0,0.0,0.0,0.0,0.0,0.0,0.0,0.0,0.0,0.0,0.0,0.0,0.0,0.0,0.0,0.0,0.0,0.0,0.0,0.0,0.0,0.0,0.0,0.0,0.0,0.0,0.0,0.0,0.0,0.0,0.0,0.0,0.0,0.0,0.0,0.0,0.0,0.0,0.0,0.0,0.0,0.0,0.0,0.0,0.0,0.0,0.0,0.0,0.0,0.0,0.0,0.0,0.0,0.0,0.0,0.0,0.0,0.0,0.0,0.4674,0.0,0.0,0.0,0.0,0.0,0.0,0.0,0.0,0.0,0.0,0.0,0.0,0.0,0.0,0.0,0.0,0.0,0.0,0.0,0.0,0.0,0.0,0.0,0.0,0.0,0.0,0.0,0.0,0.0,0.0,0.0,0.0,0.0,0.0,0.0,0.0,0.0,0.0,0.0,0.0,0.0,0.0,0.0,0.0,0.0,0.0,0.0,0.0,0.0,0.0,0.0,0.0,0.0,0.0,0.0,0.0,0.0,0.0,0.0,0.0,0.0,0.0,0.0,0.0,0.0,0.0,0.0,0.0,0.0,0.0,0.0,0.0,0.0,0.0,0.0,0.0,0.0,0.0,0.0,0.0,0.0,0.0,0.0,0.0,0.0,0.0,0.0,0.0,0.0,0.0,0.0,0.0,0.0,0.0,0.0,0.0,0.0,0.0,0.0,0.0,0.0,0.0,0.0,0.0,0.0,0.0,0.0,0.0,0.0,0.0,0.5045,0.509,0.4917,0.4783,0.4694,0.0,0.0,0.0,0.0,0.0,0.0,0.0,0.0,0.0,0.0,0.0,0.0,0.0,0.0,0.0,0.0,0.0,0.0,0.0,0.0,0.0,0.0,0.0,0.0,0.0,0.0,0.0,0.0,0.0,0.0,0.0,0.0,0.0,0.0,0.0,0.0,0.0,0.0,0.0,0.0,0.0,0.0,0.0,0.0,0.0,0.0,0.0,0.0,0.0,0.0,0.0,0.0,0.0,0.0,0.0,0.0,0.0,0.0,0.0,0.0,0.0,0.0,0.0,0.0,0.0,0.0,0.0,0.0,0.0,0.0,0.0,0.0,0.0,0.0,0.0,0.0,0.0,0.0,0.0,0.0,0.0,0.0,0.0,0.0,0.0,0.0,0.0,0.0,0.0,0.0,0.0,0.0,0.0,0.0,0.0,0.0,0.0,0.0,0.0,0.0,0.0,0.0,0.0,0.0,0.0,0.0,0.0,0.0,0.0,0.0,0.0,0.0,0.5162,0.4854,0.4715,0.0,0.0,0.0,0.0,0.0,0.0,0.0,0.0,0.0,0.0,0.0,0.0,0.0,0.0,0.0,0.0,0.0,0.0,0.0,0.0,0.0,0.0,0.0,0.0,0.0,0.0,0.0,0.0,0.0,0.0,0.0,0.0,0.0,0.0,0.0,0.0,0.0,0.0,0.0,0.0,0.0,0.0,0.0,0.0,0.0,0.0,0.0,0.0,0.0,0.0,0.0,0.0,0.0,0.0,0.0,0.0,0.0,0.0,0.0,0.0,0.0,0.0,0.0,0.0,0.0,0.0,0.0,0.0,0.0,0.0,0.0,0.0,0.0,0.0,0.0,0.0,0.0,0.0,0.0,0.0,0.0,0.0,0.0,0.0,0.0,0.0,0.0,0.0,0.0,0.0,0.0,0.0,0.0,0.0,0.0,0.0,0.0,0.0,0.0,0.0,0.0,0.0,0.0,0.0,0.0,0.0,0.0,0.0,0.0,0.0,0.5556,0.6857,0.572,0.0,0.4722,0.0,0.0,0.0,0.0,0.0,0.0,0.0,0.0,0.0,0.0,0.0,0.0,0.0,0.0,0.0,0.0,0.0,0.0,0.0,0.0,0.0,0.0,0.0,0.0,0.0,0.0,0.0,0.0,0.0,0.0,0.0,0.0,0.0,0.0,0.0,0.0,0.0,0.0,0.0,0.0,0.0,0.0,0.0,0.0,0.0,0.0,0.0,0.0,0.0,0.0,0.0,0.0,0.0,0.0,0.0,0.0,0.0,0.0,0.0,0.0,0.0,0.0,0.0,0.0,0.0,0.0,0.0,0.0,0.0,0.0,0.0,0.0,0.0,0.0,0.0,0.0,0.0,0.0,0.0,0.0,0.0,0.0,0.0,0.0,0.0,0.0,0.0,0.0,0.0,0.0,0.0,0.0,0.0,0.0,0.0,0.0,0.0,0.0,0.0,0.0,0.0,0.0,0.0,0.0,0.0,0.0,0.0,0.0,0.0,0.0,0.5807,0.6078,0.5808,0.5547,0.0,0.0,0.0,0.0,0.0,0.0,0.0,0.0,0.0,0.0,0.0,0.0,0.0,0.0,0.0,0.0,0.0,0.0,0.0,0.0,0.0,0.0,0.0,0.0,0.0,0.0,0.0,0.0,0.0,0.0,0.0,0.0,0.0,0.0,0.0,0.0,0.0,0.0,0.0,0.0,0.0,0.0,0.0,0.0,0.0,0.0,0.0,0.0,0.0,0.0,0.0,0.0,0.0,0.0,0.0,0.0,0.0,0.0,0.0,0.0,0.0,0.0,0.0,0.0,0.0,0.0,0.0,0.0,0.0,0.0,0.0,0.0,0.0,0.0,0.0,0.0,0.0,0.0,0.0,0.0,0.0,0.0,0.0,0.0,0.0,0.0,0.0,0.0,0.0,0.0,0.0,0.0,0.0,0.0,0.0,0.0,0.0,0.0,0.0,0.0,0.0,0.0,0.0,0.0,0.0,0.0,0.0,0.0,0.0,0.0,0.6386,0.5941,0.5454,0.5628,0.5659,0.5511,0.0,0.0,0.0,0.0,0.0,0.0,0.0,0.0,0.0,0.0,0.0,0.0,0.0,0.0,0.0,0.0,0.0,0.0,0.0,0.0,0.0,0.0,0.0,0.0,0.0,0.0,0.0,0.0,0.0,0.0,0.0,0.0,0.0,0.0,0.0,0.0,0.0,0.0,0.0,0.0,0.0,0.0,0.0,0.0,0.0,0.0,0.0,0.0,0.0,0.0,0.0,0.0,0.0,0.0,0.0,0.0,0.0,0.0,0.0,0.0,0.0,0.0,0.0,0.0,0.0,0.0,0.0,0.0,0.0,0.0,0.0,0.0,0.0,0.0,0.0,0.0,0.0,0.0,0.0,0.0,0.0,0.0,0.0,0.0,0.0,0.0,0.0,0.0,0.0,0.0,0.0,0.0,0.0,0.0,0.0,0.0,0.0,0.0,0.0,0.0,0.0,0.0,0.0,0.0,0.0,0.0,0.0,0.0,0.0,0.6842,0.5941,0.5418,0.5227,0.5032,0.0,0.0,0.0,0.0,0.0,0.0,0.0,0.0,0.0,0.0,0.0,0.0,0.0,0.0,0.0,0.0,0.0,0.0,0.0,0.0,0.0,0.0,0.0,0.0,0.0,0.0,0.0,0.0,0.0,0.0,0.0,0.0,0.0,0.0,0.0,0.0,0.0,0.0,0.0,0.0,0.0,0.0,0.0,0.0,0.0,0.0,0.0,0.0,0.0,0.0,0.0,0.0,0.0,0.0,0.0,0.0,0.0,0.0,0.0,0.0,0.0,0.0,0.0,0.0,0.0,0.0,0.0,0.0,0.0,0.0,0.0,0.0,0.0,0.0,0.0,0.0,0.0,0.0,0.0,0.0,0.0,0.0,0.0,0.0,0.0,0.0,0.0,0.0,0.0,0.0,0.0,0.0,0.0,0.0,0.0,0.0,0.0,0.0,0.0,0.0,0.0,0.0,0.0,0.0,0.0,0.0,0.0,0.0,0.0,0.735,0.6069,0.5426,0.5516,0.5544,0.5553,0.0,0.0,0.0,0.0,0.0,0.0,0.0,0.0,0.0,0.0,0.0,0.0,0.0,0.0,0.0,0.0,0.0,0.0,0.0,0.0,0.0,0.0,0.0,0.0,0.0,0.0,0.0,0.0,0.0,0.0,0.0,0.0,0.0,0.0,0.0,0.0,0.0,0.0,0.0,0.0,0.0,0.0,0.0,0.0,0.0,0.0,0.0,0.0,0.0,0.0,0.0,0.0,0.0,0.0,0.0,0.0,0.0,0.0,0.0,0.0,0.0,0.0,0.0,0.0,0.0,0.0,0.0,0.0,0.0,0.0,0.0,0.0,0.0,0.0,0.0,0.0,0.0,0.0,0.0,0.0,0.0,0.0,0.0,0.0,0.0,0.0,0.0,0.0,0.0,0.0,0.0,0.0,0.0,0.0,0.0,0.0,0.0,0.0,0.0,0.0,0.0,0.0,0.0,0.0,0.0,0.0,0.0,0.0,0.0,0.7279,0.0,0.6036,0.0,0.5964,0.5787,0.0,0.0,0.0,0.0,0.0,0.0,0.0,0.0,0.0,0.0,0.0,0.0,0.0,0.0,0.0,0.0,0.0,0.0,0.0,0.0,0.0,0.0,0.0,0.0,0.0,0.0,0.0,0.0,0.0,0.0,0.0,0.0,0.0,0.0,0.0,0.0,0.0,0.0,0.0,0.0,0.0,0.0,0.0,0.0,0.0,0.0,0.0,0.0,0.0,0.0,0.0,0.0,0.0,0.0,0.0,0.0,0.0,0.0,0.0,0.0,0.0,0.0,0.0,0.0,0.0,0.0,0.0,0.0,0.0,0.0,0.0,0.0,0.0,0.0,0.0,0.0,0.0,0.0,0.0,0.0,0.0,0.0,0.0,0.0,0.0,0.0,0.0,0.0,0.0,0.0,0.0,0.0,0.0,0.0,0.0,0.0,0.0,0.0,0.0,0.0,0.0,0.0,0.0,0.0,0.0,0.0,0.0,0.0,0.8135,0.7973,0.8163,0.7758,0.6925,0.6422,0.5679,0.0,0.0,0.0,0.0,0.0,0.0,0.0,0.0,0.0,0.0,0.0,0.0,0.0,0.0,0.0,0.0,0.0,0.0,0.0,0.0,0.0,0.0,0.0,0.0,0.0,0.0,0.0,0.0,0.0,0.0,0.0,0.0,0.0,0.0,0.0,0.0,0.0,0.0,0.0,0.0,0.0,0.0,0.0,0.0,0.0,0.0,0.0,0.0,0.0,0.0,0.0,0.0,0.0,0.0,0.0,0.0,0.0,0.0,0.0,0.0,0.0,0.0,0.0,0.0,0.0,0.0,0.0,0.0,0.0,0.0,0.0,0.0,0.0,0.0,0.0,0.0,0.0,0.0,0.0,0.0,0.0,0.0,0.0,0.0,0.0,0.0,0.0,0.0,0.0,0.0,0.0,0.0,0.0,0.0,0.0,0.0,0.0,0.0,0.0,0.0,0.0,0.0,0.0,0.0,0.0,0.0,0.0,0.0,0.0,0.6675,0.7022,0.7177,0.7007,0.6325,0.6168,0.0,0.0,0.0,0.0,0.0,0.0,0.0,0.0,0.0,0.0,0.0,0.0,0.0,0.0,0.0,0.0,0.0,0.0,0.0,0.0,0.0,0.0,0.0,0.0,0.0,0.0,0.0,0.0,0.0,0.0,0.0,0.0,0.0,0.0,0.0,0.0,0.0,0.0,0.0,0.0,0.0,0.0,0.0,0.0,0.0,0.0,0.0,0.0,0.0,0.0,0.0,0.0,0.0,0.0,0.0,0.0,0.0,0.0,0.0,0.0,0.0,0.0,0.0,0.0,0.0,0.0,0.0,0.0,0.0,0.0,0.0,0.0,0.0,0.0,0.0,0.0,0.0,0.0,0.0,0.0,0.0,0.0,0.0,0.0,0.0,0.0,0.0,0.0,0.0,0.0,0.0,0.0,0.0,0.0,0.0,0.0,0.0,0.0,0.0,0.0,0.0,0.0,0.0,0.0,0.0,0.0,0.0,0.0,0.0,0.7289,0.8129,0.8476,0.8138,0.7525,0.732,0.758,0.0,0.0,0.0,0.0,0.0,0.0,0.0,0.0,0.0,0.0,0.0,0.0,0.0,0.0,0.0,0.0,0.0,0.0,0.0,0.0,0.0,0.0,0.0,0.0,0.0,0.0,0.0,0.0,0.0,0.0,0.0,0.0,0.0,0.0,0.0,0.0,0.0,0.0,0.0,0.0,0.0,0.0,0.0,0.0,0.0,0.0,0.0,0.0,0.0,0.0,0.0,0.0,0.0,0.0,0.0,0.0,0.0,0.0,0.0,0.0,0.0,0.0,0.0,0.0,0.0,0.0,0.0,0.0,0.0,0.0,0.0,0.0,0.0,0.0,0.0,0.0,0.0,0.0,0.0,0.0,0.0,0.0,0.0,0.0,0.0,0.0,0.0,0.0,0.0,0.0,0.0,0.0,0.0,0.0,0.0,0.0,0.0,0.0,0.0,0.0,0.0,0.0,0.0,0.0,0.0,0.0,0.0,0.0,0.9298,1.1044,1.1283,0.9982,0.9579,0.8888,0.0,0.0,0.0,0.0,0.0,0.0,0.0,0.0,0.0,0.0,0.0,0.0,0.0,0.0,0.0,0.0,0.0,0.0,0.0,0.0,0.0,0.0,0.0,0.0,0.0,0.0,0.0,0.0,0.0,0.0,0.0,0.0,0.0,0.0,0.0,0.0,0.0,0.0,0.0,0.0,0.0,0.0,0.0,0.0,0.0,0.0,0.0,0.0,0.0,0.0,0.0,0.0,0.0,0.0,0.0,0.0,0.0,0.0,0.0,0.0,0.0,0.0,0.0,0.0,0.0,0.0,0.0,0.0,0.0,0.0,0.0,0.0,0.0,0.0,0.0,0.0,0.0,0.0,0.0,0.0,0.0,0.0,0.0,0.0,0.0,0.0,0.0,0.0,0.0,0.0,0.0,0.0,0.0,0.0,0.0,0.0,0.0,0.0,0.0,0.0,0.0,0.0,0.0,0.0,0.0,0.0,0.0,0.0,0.0,1.148,1.2387,1.2172,1.074,0.9396,0.9131,0.0,0.0,0.0,0.0,0.0,0.0,0.0,0.0,0.0,0.0,0.0,0.0,0.0,0.0,0.0,0.0,0.0,0.0,0.0,0.0,0.0,0.0,0.0,0.0,0.0,0.0,0.0,0.0,0.0,0.0,0.0,0.0,0.0,0.0,0.0,0.0,0.0,0.0,0.0,0.0,0.0,0.0,0.0,0.0,0.0,0.0,0.0,0.0,0.0,0.0,0.0,0.0,0.0,0.0,0.0,0.0,0.0,0.0,0.0,0.0,0.0,0.0,0.0,0.0,0.0,0.0,0.0,0.0,0.0,0.0,0.0,0.0,0.0,0.0,0.0,0.0,0.0,0.0,0.0,0.0,0.0,0.0,0.0,0.0,0.0,0.0,0.0,0.0,0.0,0.0,0.0,0.0,0.0,0.0,0.0,0.0,0.0,0.0,0.0,0.0,0.0,0.0,0.0,0.0,0.0,0.0,0.0,0.0,1.1957,1.2656,1.3127,1.2969,1.2121,1.09,1.047,0.0,0.0,0.0,0.0,0.0,0.0,0.0,0.0,0.0,0.0,0.0,0.0,0.0,0.0,0.0,0.0,0.0,0.0,0.0,0.0,0.0,0.0,0.0,0.0,0.0,0.0,0.0,0.0,0.0,0.0,0.0,0.0,0.0,0.0,0.0,0.0,0.0,0.0,0.0,0.0,0.0,0.0,0.0,0.0,0.0,0.0,0.0,0.0,0.0,0.0,0.0,0.0,0.0,0.0,0.0,0.0,0.0,0.0,0.0,0.0,0.0,0.0,0.0,0.0,0.0,0.0,0.0,0.0,0.0,0.0,0.0,0.0,0.0,0.0,0.0,0.0,0.0,0.0,0.0,0.0,0.0,0.0,0.0,0.0,0.0,0.0,0.0,0.0,0.0,0.0,0.0,0.0,0.0,0.0,0.0,0.0,0.0,0.0,0.0,0.0,0.0,0.0,0.0,0.0,0.0,0.0,0.0,0.0,1.239,1.322,1.3514,1.364,1.3586,1.2998,1.2179,0.0,0.0,0.0,0.0,0.0,0.0,0.0,0.0,0.0,0.0,0.0,0.0,0.0,0.0,0.0,0.0,0.0,0.0,0.0,0.0,0.0,0.0,0.0,0.0,0.0,0.0,0.0,0.0,0.0,0.0,0.0,0.0,0.0,0.0,0.0,0.0,0.0,0.0,0.0,0.0,0.0,0.0,0.0,0.0,0.0,0.0,0.0,0.0,0.0,0.0,0.0,0.0,0.0,0.0,0.0,0.0,0.0,0.0,0.0,0.0,0.0,0.0,0.0,0.0,0.0,0.0,0.0,0.0,0.0,0.0,0.0,0.0,0.0,0.0,0.0,0.0,0.0,0.0,0.0,0.0,0.0,0.0,0.0,0.0,0.0,0.0,0.0,0.0,0.0,0.0,0.0,0.0,0.0,0.0,0.0,0.0,0.0,0.0,0.0,0.0,0.0,0.0,0.0,0.0,0.0,0.0,0.0,0.0,1.2898,1.3503,1.3831,1.3871,1.359,1.2415,1.1746,0.0,0.0,0.0,0.0,0.0,0.0,0.0,0.0,0.0,0.0,0.0,0.0,0.0,0.0,0.0,0.0,0.0,0.0,0.0,0.0,0.0,0.0,0.0,0.0,0.0,0.0,0.0,0.0,0.0,0.0,0.0,0.0,0.0,0.0,0.0,0.0,0.0,0.0,0.0,0.0,0.0,0.0,0.0,0.0,0.0,0.0,0.0,0.0,1.1182,0.0,0.0,0.0,0.0,0.0,0.0,0.0,0.0,0.0,0.0,0.0,0.0,0.0,0.0,0.0,0.0,0.0,0.0,0.0,0.0,0.0,0.0,0.0,0.0,0.0,0.0,0.0,0.0,0.0,0.0,0.0,0.0,0.0,0.0,0.0,0.0,0.0,0.0,0.0,0.0,0.0,0.0,0.0,0.0,0.0,0.0,0.0,0.0,0.0,0.0,0.0,0.0,0.0,0.0,0.0,0.0,0.0,0.0,0.0,1.3196,1.36,1.3935,1.4015,1.38,1.2947,1.2286,0.0,0.0,0.0,0.0,0.0,0.0,0.0,0.0,0.0,0.0,0.0,0.0,0.0,0.0,0.0,0.0,0.0,0.0,0.0,0.0,0.0,0.0,0.0,0.0,0.0,0.0,0.0,0.0,0.0,0.0,0.0,0.0,0.0,0.0,0.0,0.0,0.0,0.0,0.0,0.0,0.0,0.0,0.0,0.0,0.0,0.0,0.0,0.0,0.0,0.0,0.0,0.0,0.0,0.0,0.0,0.0,0.0,0.0,0.0,0.0,0.0,0.0,0.0,0.0,0.0,0.0,0.0,0.0,0.0,0.0,0.0,0.0,0.0,0.0,0.0,0.0,0.0,0.0,0.0,0.0,0.0,0.0,0.0,0.0,0.0,0.0,0.0,0.0,0.0,0.0,0.0,0.0,0.0,0.0,0.0,0.0,0.0,0.0,0.0,0.0,0.0,0.0,0.0,0.0,0.0,0.0,0.0,1.2795,1.3337,1.372,1.3975,1.4129,1.4148,1.3794,1.3077,1.202,0.0,0.0,0.0,0.0,0.0,0.0,0.0,0.0,0.0,0.0,0.0,0.0,0.0,0.0,0.0,0.0,0.0,0.0,0.0,0.0,0.0,0.0,0.0,0.0,0.0,0.0,0.0,0.0,0.0,0.0,0.0,0.0,0.0,0.0,0.0,0.0,0.0,0.0,1.0857,1.1551,0.0,0.0,0.0,0.0,0.0,0.0,0.0,0.0,1.1097,0.0,0.0,0.0,0.0,0.0,0.0,0.0,0.0,0.0,0.0,0.0,0.0,0.0,0.0,0.0,0.0,0.0,0.0,0.0,0.0,0.0,0.0,0.0,0.0,0.0,0.0,0.0,0.0,0.0,0.0,0.0,0.0,0.0,0.0,0.0,0.0,0.0,0.0,0.0,0.0,0.0,0.0,0.0,0.0,0.0,0.0,0.0,0.0,0.0,0.0,0.0,0.0,0.0,0.0,0.0,0.0,1.2959,1.2918,1.3363,1.4317,1.4199,1.4212,1.4416,1.389,1.317,1.2301,0.0,0.0,0.0,0.0,0.0,0.0,0.0,0.0,0.0,0.0,0.0,0.0,0.0,0.0,0.0,0.0,0.0,0.0,0.0,0.0,0.0,0.0,0.0,0.0,0.0,0.0,0.0,0.0,0.0,0.0,0.0,0.0,0.0,0.0,0.0,0.0,0.0,0.0,0.0,1.2386,1.2677,0.0,0.0,0.0,0.0,0.0,0.0,0.0,0.0,1.1382,0.0,0.0,0.0,0.0,0.0,0.0,0.0,0.0,0.0,0.0,0.0,0.0,0.0,0.0,0.0,0.0,0.0,0.0,0.0,0.0,0.0,0.0,0.0,0.0,0.0,0.0,0.0,0.0,0.0,0.0,0.0,0.0,0.0,0.0,0.0,0.0,0.0,0.0,0.0,0.0,0.0,0.0,0.0,0.0,0.0,0.0,0.0,0.0,0.0,0.0,0.0,0.0,0.0,0.0,0.0,1.2929,1.3447,1.4025,1.4734,1.4649,1.4536,1.4487,1.3917,1.3207,0.0,0.0,0.0,0.0,0.0,0.0,0.0,0.0,0.0,0.0,0.0,0.0,0.0,0.0,0.0,0.0,0.0,0.0,0.0,0.0,0.0,0.0,0.0,0.0,0.0,0.0,0.0,0.0,0.0,0.0,0.0,0.0,0.0,0.0,0.0,0.0,0.0,0.0,0.0,0.0,1.269,1.2904,1.3183,0.0,0.0,0.0,0.0,0.0,0.0,1.1748,1.1663,0.0,0.0,0.0,0.0,0.0,0.0,0.0,0.0,0.0,0.0,0.0,0.0,0.0,0.0,0.0,0.0,0.0,0.0,0.0,0.0,0.0,0.0,0.0,0.0,0.0,0.0,0.0,0.0,0.0,0.0,0.0,0.0,0.0,0.0,0.0,0.0,0.0,0.0,0.0,0.0,0.0,0.0,0.0,0.0,0.0,0.0,0.0,0.0,0.0,0.0,0.0,0.0,0.0,0.0,0.0,1.2807,1.3811,1.4554,1.5051,1.5013,1.4879,1.4616,1.4053,1.3327,0.0,0.0,0.0,0.0,0.0,0.0,0.0,0.0,0.0,0.0,0.0,0.0,0.0,0.0,0.0,0.0,0.0,0.0,0.0,0.0,0.0,0.0,0.0,0.0,0.0,0.0,0.0,0.0,0.0,0.0,0.0,0.0,0.0,0.0,0.0,0.0,0.0,0.0,0.0,0.0,0.0,1.3233,1.3477,1.2936,0.0,0.0,0.0,0.0,1.2158,1.2221,0.0,0.0,0.0,0.0,0.0,0.0,0.0,0.0,0.0,0.0,0.0,0.0,0.0,0.0,0.0,0.0,0.0,0.0,0.0,0.0,0.0,0.0,0.0,0.0,0.0,0.0,0.0,0.0,0.0,0.0,0.0,0.0,0.0,0.0,0.0,0.0,0.0,0.0,0.0,0.0,0.0,0.0,0.0,0.0,0.0,0.0,0.0,0.0,0.0,0.0,0.0,0.0,0.0,0.0,0.0,0.0,1.2776,1.338,1.4237,1.5282,1.5108,1.4984,1.4932,1.4578,1.3737,0.0,0.0,0.0,0.0,0.0,0.0,0.0,0.0,0.0,0.0,0.0,0.0,0.0,0.0,0.0,0.0,0.0,0.0,0.0,0.0,0.0,0.0,0.0,0.0,0.0,0.0,0.0,0.0,0.0,0.0,0.0,0.0,0.0,0.0,0.0,0.0,0.0,0.0,0.0,0.0,0.0,1.4034,1.334,1.3153,1.3013,0.0,0.0,1.2784,1.3013,1.3247,0.0,0.0,0.0,0.0,0.0,0.0,0.0,0.0,0.0,0.0,0.0,0.0,0.0,0.0,0.0,0.0,0.0,0.0,0.0,0.0,0.0,0.0,0.0,0.0,0.0,0.0,0.0,0.0,0.0,0.0,0.0,0.0,0.0,0.0,0.0,0.0,0.0,0.0,0.0,0.0,0.0,0.0,0.0,0.0,0.0,0.0,0.0,0.0,0.0,0.0,0.0,0.0,0.0,0.0,0.0,1.2015,1.3019,1.3921,1.4779,1.5593,1.5524,1.5297,1.501,1.452,1.3654,0.0,0.0,0.0,0.0,0.0,0.0,0.0,0.0,0.0,0.0,0.0,0.0,0.0,0.0,0.0,0.0,0.0,0.0,0.0,0.0,0.0,0.0,0.0,0.0,0.0,0.0,0.0,0.0,0.0,0.0,0.0,0.0,0.0,0.0,0.0,0.0,0.0,0.0,0.0,0.0,0.0,0.0,1.394,1.3814,0.0,0.0,0.0,1.3578,1.3704,0.0,0.0,0.0,0.0,0.0,0.0,0.0,0.0,0.0,0.0,0.0,0.0,0.0,0.0,0.0,0.0,0.0,0.0,0.0,0.0,0.0,0.0,0.0,0.0,0.0,0.0,0.0,0.0,0.0,0.0,0.0,0.0,0.0,0.0,0.0,0.0,0.0,0.0,0.0,0.0,0.0,0.0,0.0,0.0,0.0,0.0,0.0,0.0,0.0,0.0,0.0,0.0,0.0,0.0,0.0,0.0,0.0,1.3203,1.4453,1.5324,1.5781,1.582,1.5551,1.501,1.4568,0.0,0.0,0.0,0.0,0.0,0.0,0.0,0.0,0.0,0.0,0.0,0.0,0.0,0.0,0.0,0.0,0.0,0.0,0.0,0.0,0.0,0.0,0.0,0.0,0.0,0.0,0.0,0.9105,0.0,0.0,0.0,0.0,0.0,0.0,0.0,0.0,0.0,0.0,0.0,0.0,0.0,0.0,1.4023,1.4552,1.4453,1.444,0.0,0.0,1.4333,1.4424,1.4493,1.4245,0.0,0.0,0.0,0.0,0.0,0.0,0.0,0.0,0.0,0.0,0.0,0.0,0.0,0.0,0.0,0.0,0.0,0.0,0.0,0.0,0.0,0.0,0.0,0.0,0.0,0.0,0.0,0.0,0.0,0.0,0.0,0.0,0.0,0.0,0.0,0.0,0.0,0.0,0.0,0.0,0.0,0.0,0.0,0.0,0.0,0.0,0.0,0.0,0.0,0.0,0.0,0.0,0.0,0.0,0.0,1.322,1.464,1.5499,1.5795,1.582,1.5528,1.5013,1.4957,1.4103,0.0,0.0,0.0,0.0,0.0,0.0,0.0,0.0,0.0,0.0,0.0,0.0,0.0,0.0,0.0,0.0,0.0,0.0,0.0,0.0,0.0,0.0,0.0,0.0,0.0,0.0,0.0,0.0,0.0,0.0,0.0,0.0,0.0,0.0,0.0,0.0,0.0,0.0,0.0,0.0,0.0,1.4576,1.493,1.4943,1.5133,0.0,1.5271,1.5037,1.5282,1.5501,1.5221,1.38,0.0,0.0,0.0,0.0,0.0,0.0,0.0,0.0,0.0,0.0,0.0,0.0,0.0,0.0,0.0,0.0,0.0,0.0,0.0,0.0,0.0,0.0,0.0,0.0,0.0,0.0,0.0,0.0,0.0,0.0,0.0,0.0,0.0,0.0,0.0,0.0,0.0,0.0,0.0,0.0,0.0,0.0,0.0,0.0,0.0,0.0,0.0,0.0,0.0,0.0,0.0,0.0,0.0,1.2673,1.346,1.4725,1.5526,1.5795,1.582,1.5631,1.5255,1.5068,1.4258,0.0,0.0,0.0,0.0,0.0,0.0,0.0,0.0,0.0,0.0,0.0,0.0,0.0,0.0,0.0,0.0,0.0,0.0,0.0,0.0,0.0,0.0,0.0,0.0,0.0,0.0,0.0,0.0,1.0496,1.0557,1.0656,0.0,0.0,0.0,0.0,0.0,0.0,0.0,0.0,0.0,0.0,1.4986,1.5431,1.567,0.0,0.0,1.6056,1.5829,1.5949,1.5737,1.5234,1.4301,1.3829,0.0,0.0,0.0,0.0,0.0,0.0,0.0,0.0,0.0,0.0,0.0,0.0,0.0,0.0,0.0,0.0,0.0,0.0,0.0,0.0,0.0,0.0,0.0,0.0,0.0,0.0,0.0,0.0,0.0,0.0,0.0,0.0,0.0,0.0,0.0,0.0,0.0,0.0,0.0,0.0,0.0,0.0,0.0,0.0,0.0,0.0,0.0,0.0,0.0,0.0,0.0,0.0,1.282,1.36,1.4861,1.5606,1.582,1.582,1.5661,1.5404,1.5144,1.4341,0.0,0.0,0.0,0.0,0.0,0.0,0.0,0.0,0.0,0.0,0.0,0.0,0.0,0.0,0.0,0.0,0.0,0.0,0.0,0.0,0.0,0.0,0.0,0.0,0.0,0.0,0.0,0.0,1.1044,1.0972,1.0891,0.0,0.0,0.0,0.0,0.0,0.0,0.0,0.0,0.0,0.0,1.5349,1.598,1.6192,1.6392,1.6673,1.638,1.6191,1.6284,1.587,1.5313,1.475,0.0,0.0,0.0,0.0,0.0,0.0,0.0,0.0,0.0,0.0,0.0,0.0,0.0,0.0,0.0,0.0,0.0,0.0,0.0,0.0,0.0,0.0,0.0,0.0,0.0,0.0,0.0,0.9211,0.0,0.0,0.8884,0.0,0.0,0.0,0.0,0.0,0.0,0.0,0.0,0.0,0.0,0.0,0.0,0.0,0.0,0.0,0.0,0.0,0.0,0.0,0.0,0.0,0.0,1.3059,1.3603,1.505,1.5796,1.5821,1.5808,1.5675,1.5418,1.5146,1.4424,1.3227,0.0,0.0,0.0,0.0,0.0,0.0,0.0,0.0,0.0,0.0,0.0,0.0,0.0,0.0,0.0,0.0,0.0,0.0,0.0,0.0,0.0,0.0,0.0,0.0,0.0,0.0,1.1361,1.1139,1.0905,0.0,0.0,0.0,0.0,0.0,0.0,0.0,0.0,0.0,1.4301,1.5006,1.5698,1.6541,1.6459,1.6431,1.6688,1.6234,1.594,1.627,1.6007,1.5606,0.0,0.0,0.0,0.0,0.0,0.0,0.0,0.0,0.0,0.0,0.0,0.0,0.0,0.0,0.0,0.0,0.0,0.0,0.0,0.0,0.0,0.0,0.0,0.0,0.0,0.0,0.0,1.2259,1.1279,0.0,0.0,0.0,0.0,0.0,0.0,0.0,0.0,0.0,0.0,0.0,1.5701,1.7031,0.0,0.0,0.0,0.0,0.0,0.0,0.0,0.0,0.0,0.0,0.0,0.0,1.344,1.421,1.5483,1.6219,1.6381,1.6219,1.6084,1.6003,1.5534,1.4531,1.2975,0.0,0.0,0.0,0.0,0.0,0.0,0.0,0.0,0.0,0.0,0.0,0.0,0.0,0.0,0.0,0.0,0.0,0.0,0.0,0.0,0.0,0.0,0.0,0.0,0.0,1.1124,0.0,0.0,0.0,0.0,0.0,0.0,0.0,0.0,0.0,0.0,0.0,1.4148,1.4747,1.5313,1.5927,1.6607,1.6819,1.706,0.0,0.0,0.0,0.0,0.0,0.0,0.0,0.0,0.0,0.0,0.0,0.0,0.0,0.0,1.684,1.4108,1.363,1.3269,1.198,0.0,0.0,0.0,0.0,0.0,0.0,0.0,0.0,0.0,0.0,0.0,0.0,0.0,0.0,1.4547,1.3737,1.4075,0.0,0.0,0.0,0.0,0.0,0.0,0.0,0.0,1.7497,1.7865,1.7991,1.9232,1.9314,1.8416,1.8388,1.6993,0.0,0.0,0.0,0.0,0.0,0.0,0.0,0.0,1.3963,1.5193,1.5935,1.6432,1.6661,1.6444,1.6297,1.6296,1.5616,1.456,1.3136,1.2402,1.1673,0.0,0.0,0.0,0.0,0.0,0.0,0.0,0.0,0.0,0.0,0.0,0.0,0.0,0.0,0.0,0.0,0.0,0.0,0.0,0.0,0.0,0.0,0.0,1.194,0.0,0.0,0.0,0.0,0.0,0.0,0.0,0.0,0.0,1.376,1.4314,1.5017,1.5523,1.5979,1.6433,1.682,0.0,0.0,0.0,0.0,0.0,0.0,0.0,1.6286,1.6286,1.6299,1.6394,1.6699,1.7086,1.7623,1.8495,0.0,0.0,1.6273,1.5847,1.5499,1.4115,1.6197,1.9431,2.3455,2.1852,1.9841,0.0,0.0,0.0,0.0,1.5538,0.0,0.0,0.0,1.6415,1.6471,0.0,1.6147,0.0,0.0,0.0,0.0,1.6312,1.7761,0.0,0.0,2.0994,2.1639,2.1297,2.1727,2.1728,2.1376,2.2066,2.1172,1.8753,1.6096,0.0,0.0,0.0,0.0,0.0,0.0,1.4611,1.6459,1.6402,1.6471,1.6714,1.6484,1.6324,1.6284,1.5467,1.4598,1.3703,1.3357,1.2673,1.1517,1.1196,0.0,0.0,0.0,0.0,0.0,0.0,0.0,0.0,0.0,0.0,0.0,0.0,0.0,0.0,0.0,0.0,0.0,0.0,0.0,0.0,1.3393,0.0,0.0,0.0,0.0,0.0,0.0,0.0,0.0,0.0,0.0,1.5143,1.5206,1.5785,1.658,0.0,0.0,0.0,0.0,1.7408,1.6901,1.6768,1.6794,1.682,1.706,1.7246,1.7259,0.0,0.0,1.7808,1.7821,1.7952,1.7652,1.946,2.0408,2.0152,1.9697,1.8838,1.7081,1.8262,2.1532,2.6513,2.5094,2.2782,1.9822,0.0,0.0,0.0,0.0,1.7968,1.8791,1.9586,2.0064,1.9786,1.8978,1.9154,0.0,0.0,0.0,0.0,0.0,0.0,1.8935,2.1112,2.1278,2.1938,2.3066,2.3485,2.3622,2.3474,2.3155,2.2618,2.1843,2.0145,1.7418,1.3882,0.0,0.0,0.0,0.0,1.5066,1.5984,1.6631,1.7086,1.7341,1.7073,1.6738,1.631,1.5641,1.5068,1.4614,1.4105,1.348,1.2713,1.2189,0.0,0.0,0.0,0.0,0.0,0.0,0.0,0.0,0.0,0.0,0.0,0.0,0.0,0.0,0.0,0.0,0.0,0.0,0.0,1.2877,1.3812,1.4252,0.0,0.0,0.0,0.0,0.0,0.0,0.0,0.0,0.0,1.8929,1.7999,1.7155,0.0,0.0,1.6939,1.7166,1.7434,1.7756,1.821,1.8116,0.0,1.8558,1.833,1.821,1.8384,1.985,2.0957,2.0897,2.2023,2.3263,2.4156,2.4881,2.5266,2.5069,2.3339,2.1105,1.8883,2.0731,2.4354,2.808,2.8026,2.6949,2.2492,2.0058,1.9289,1.9327,1.9931,2.0519,2.1248,2.2066,2.2476,2.2322,2.1741,2.1824,2.1212,2.0139,2.0449,0.0,0.0,0.0,2.0878,2.2635,2.2481,2.3003,2.402,2.4274,2.4414,2.4394,2.3917,2.3663,2.3663,2.286,2.0673,1.7211,0.0,1.6374,1.5847,1.641,1.7269,1.8375,1.8662,1.8929,1.9212,1.8931,1.8251,1.7135,1.6744,1.613,1.5196,1.479,1.4325,1.3737,1.314,1.2718,0.0,0.0,0.0,0.0,0.0,0.0,0.0,0.0,0.0,0.0,0.0,1.2725,1.1499,0.0,0.0,0.0,1.3875,1.473,1.5598,1.6161,0.0,0.0,0.0,0.0,0.0,0.0,0.0,2.002,2.0822,2.1465,2.21,2.1382,2.0213,1.8507,1.829,1.8194,1.7902,0.0,1.9154,1.9111,1.8959,1.8972,1.9334,1.9186,1.9119,1.937,2.1088,2.2346,2.2449,2.3891,2.536,2.6244,2.6907,2.7325,2.7325,2.6272,2.4496,2.1392,2.3099,2.6277,2.9469,2.9805,2.9244,2.4606,2.4446,2.2676,2.2441,2.3235,2.2666,2.2994,2.3875,2.3887,2.4113,2.4422,2.4035,2.3644,2.3275,2.2852,0.0,2.2685,2.3496,2.3828,2.3917,2.4297,2.4481,2.4489,2.452,2.452,2.4508,2.4461,2.4461,2.4442,2.4391,2.353,2.1858,2.0337,1.9812,2.026,1.9682,2.0349,2.2179,2.1519,2.1279,2.1516,2.1209,2.0126,1.8222,1.8142,1.7324,1.5689,1.5554,1.5355,1.4876,1.418,1.3981,1.4355,0.0,0.0,0.0,0.0,0.0,0.0,0.0,0.0,0.0,0.0,0.0,0.0,0.0,0.0,0.0,1.6616,0.0,1.9704,1.9491,0.0,0.0,0.0,1.8654,1.8907,2.098,2.2547,2.2965,0.0,0.0,2.4675,2.4866,2.4136,2.1565,2.11,2.0479,1.9145,2.043,2.1131,1.9686,1.9613,1.9712,2.0025,2.0306,2.0676,2.094,2.2048,2.3302,2.3481,2.469,2.5533,2.5904,2.6723,2.7648,2.762,2.87,2.8601,2.505,2.5522,2.7411,3.0131,3.0427,2.9985,2.6394,2.633,2.5887,2.5092,2.4137,2.4326,2.4547,2.4789,2.4801,2.4848,2.4906,2.4473,2.4188,2.409,2.3993,2.3942,2.3965,2.418,2.4453,2.4789,2.4875,2.5098,2.5374,2.5394,2.5394,2.5374,2.5078,2.4926,2.4914,2.4559,2.4026,2.332,2.2896,2.1649,1.966,2.005,2.0531,2.1014,2.1038,2.073,2.0112,1.9818,1.8855,1.7128,1.6868,1.6902,1.7142,1.6899,1.7157,1.7908,1.6302,1.567,1.6345,1.3421,0.0,0.0,0.0,0.0,0.0,0.0,0.0,0.0,0.0,1.5872,1.3196,0.0,1.6563,0.0,1.8338,1.9307,1.9364,1.9544,0.0,0.0,2.0039,2.0712,2.3206,2.2715,2.2905,2.4801,2.5102,2.5617,2.6768,2.6273,2.5828,2.5698,2.4351,2.2372,1.9828,2.0859,2.1569,2.0437,2.1228,2.2299,2.2535,2.3703,2.4401,2.4617,2.5931,2.7024,2.7039,2.8406,2.9512,2.9512,2.9779,3.0026,2.9978,3.0378,3.0287,2.9379,2.902,2.9174,3.0613,3.0756,3.0658,2.7012,2.7012,2.7012,2.6452,2.5574,2.584,2.595,2.595,2.5937,2.595,2.5918,2.5671,2.5554,2.5554,2.5542,2.5457,2.5312,2.5293,2.5332,2.5371,2.5371,2.5496,2.5686,2.5686,2.5815,2.6003,2.5586,2.5481,2.5637,2.5203,2.4847,2.4668,2.4844,2.4018,2.2234,2.2075,2.2101,2.2292,2.2643,2.2668,2.2324,2.2166,2.0954,1.8643,1.8898,1.8648,1.7734,1.803,1.8229,1.8224,1.7012,1.6521,1.7023,1.4974,1.4348,0.0,0.0,0.0,0.0,0.0,0.0,0.0,0.0,0.0,0.0,0.0,1.8146,1.8532,2.0079,2.1097,2.1217,2.179,2.234,2.2839,2.2906,2.3643,2.5482,2.5039,2.5188,2.6678,2.6798,2.7191,2.8363,2.8191,2.779,2.7582,2.7333,2.5683,2.2009,2.1935,2.2064,2.09,2.2142,2.338,2.3574,2.4348,2.4932,2.5131,2.6862,2.8426,2.8456,2.9785,3.0913,3.0913,3.0913,3.0913,3.0913,3.0913,3.0913,3.0845,3.0514,3.0387,3.0802,3.0921,3.0913,2.7168,2.7175,2.7175,2.7162,2.7187,2.7162,2.7097,2.7012,2.7012,2.7012,2.7012,2.7012,2.7012,2.7012,2.7012,2.6816,2.6484,2.6465,2.6257,2.5881,2.5862,2.5874,2.5874,2.5874,2.6069,2.6445,2.6057,2.6081,2.6477,2.6062,2.5854,2.5815,2.6179,2.6172,2.5667,2.4598,2.4199,2.4481,2.4895,2.5182,2.5346,2.5327,2.3801,2.0908,2.17,2.0983,1.8353,1.9165,1.9189,1.8022,1.7535,1.7466,1.7756,1.7173,1.7135,0.0,1.7632,0.0,0.0,0.0,0.0,0.0,0.0,0.0,0.0,1.9396,1.9678,2.0406,2.1914,2.3164,2.3965,2.4789,2.5258,2.5278,2.604,2.6575,2.6653,2.7311,2.7956,2.8412,2.873,2.9088,2.9565,3.0009,2.9618,2.8639,2.9275,2.8454,2.4838,2.3823,2.3353,2.1731,2.2827,2.424,2.4825,2.4809,2.4917,2.504,2.7015,2.8664,2.8813,2.9947,3.0932,3.0972,3.0952,3.0932,3.0972,3.0952,3.0918,3.0918,3.0869,3.0913,3.1084,3.1167,3.1074,2.806,2.8047,2.8047,2.8047,2.8047,2.8047,2.7656,2.7012,2.7012,2.7012,2.7012,2.7012,2.7012,2.7012,2.7012,2.6947,2.6894,2.6882,2.6843,2.6752,2.6765,2.6765,2.6765,2.6752,2.6816,2.6882,2.6791,2.6804,2.6882,2.6804,2.6589,2.6269,2.6348,2.6159,2.5706,0.0,0.0,0.0,2.5063,2.4579,2.3535,2.3183,2.2091,2.0152,2.0288,0.0,2.0624,2.0848,2.1277,2.1908,2.0793,0.0,0.0,0.0,0.0,0.0,0.0,0.0,0.0,0.0,0.0,0.0,2.0827,2.0056,1.9956,2.1685,2.2906,2.3091,2.4014,2.4805,2.5289,2.584,2.6145,2.6184,2.6939,2.7585,2.7904,2.8099,2.847,2.9266,2.9101,2.9205,2.9961,3.0156,3.0217,3.017,2.9474,2.8539,2.7589,2.7212,2.6206,2.39,2.4579,2.6518,2.9131,2.9287,2.8967,2.9652,2.9859,3.0362,3.0377,3.0572,3.1035,3.1269,3.1133,3.103,3.1294,3.1133,3.0918,3.092,3.0934,3.1106,3.1801,3.1944,3.1964,2.8301,2.8301,2.8301,2.8301,0.0,2.8301,2.8164,2.7936,2.7721,2.7656,2.7637,2.7637,2.7637,2.7656,2.7637,2.7539,2.7344,2.7357,2.7226,2.6999,2.7012,2.7012,2.7012,2.7012,2.7129,2.7337,2.7097,2.7129,2.7337,2.7116,2.6882,2.6712,2.6939,2.6927,2.6699,2.6667,2.6367,2.5747,2.5735,2.5483,2.4982,2.4582,2.359,2.1965,2.2274,0.0,0.0,0.0,0.0,0.0,0.0,0.0,0.0,0.0,0.0,2.1467,2.0957,2.0876,2.1509,2.1491,2.2126,2.361,2.3717,2.3279,2.2255,2.3757,2.4832,2.507,2.5512,2.5911,2.6303,2.6758,2.7103,2.7337,2.7904,2.8379,2.8574,2.8822,2.9096,2.95,2.957,2.9824,3.0464,3.0561,3.0639,3.0825,3.0216,2.9713,2.9733,2.8504,2.7066,2.662,2.6436,2.7388,2.9467,3.0201,3.0121,2.9873,3.0521,3.1035,3.0937,3.0913,3.0972,3.1152,3.1016,3.0991,3.1133,3.1016,3.0923,3.0948,3.1237,3.1794,3.2588,3.2794,3.2664,2.8516,2.8542,2.8529,2.8529,2.8529,2.8529,2.8711,2.9023,2.8652,0.0,0.0,2.8549,2.8476,2.8398,2.8398,2.8177,2.7819,2.78,2.7604,2.7233,2.7233,2.7233,2.7233,2.7233,2.7435,2.7793,2.7435,2.7422,2.7793,2.7402,2.7233,2.7285,2.7611,2.78,2.78,2.78,2.7467,2.677,2.6516,2.6562,2.6862,2.6497,2.5617,2.4233,2.4794,2.4447,2.3109,2.3587,2.3307,2.2102,2.1695,2.1525,2.1533,2.1854,2.2618,2.3916,2.4336,2.4442,2.4289,2.4914,2.5188,2.4883,2.5969,2.6094,2.484,2.5484,2.6128,2.6595,2.6646,2.6816,2.7292,2.7676,2.8073,2.849,2.8828,2.9043,2.916,2.9389,2.9637,2.9813,3.0039,3.0371,3.0815,3.0972,3.0996,3.1016,3.1059,3.1284,3.1258,2.9214,2.8079,2.9472,2.8762,2.8227,2.9379,2.9943,2.9727,2.9446,3.0437,3.121,3.1011,3.0913,3.0932,3.1055,3.0957,3.0952,3.0991,3.0957,3.0928,3.0908,3.1601,3.2434,3.3157,3.3265,3.2985,2.9417,2.9408,2.9408,2.9422,2.9422,2.9408,2.9461,2.95,2.9428,2.9422,2.9422,2.9422,2.9193,2.8814,2.8814,2.8613,2.8216,2.8216,2.8177,2.8125,2.8119,2.8119,2.8119,2.8119,2.8144,2.8216,2.8144,2.8158,2.8197,2.8144,2.8125,2.8125,2.8197,2.8216,2.8216,2.8216,2.8158,2.8021,2.6934,2.6419,2.6477,2.603,2.5691,2.546,2.5217,2.5004,2.4748,2.4477,2.4216,2.402,2.3951,2.3912,2.3924,2.3947,2.4283,2.4855,2.4965,2.5285,2.5981,2.6145,2.6328,2.6628,2.7181,2.7115,2.6243,2.655,2.6999,2.7467,2.7506,2.7826,2.8522,2.8678,2.8887,2.933,2.9461,2.9623,2.9922,2.978,2.9911,3.0537,3.0391,3.0391,3.0874,3.1211,3.1391,3.145,3.166,3.2085,3.2025,3.0708,3.0122,3.121,3.0436,3.0171,3.1055,3.1412,3.1118,3.1103,3.0931,3.1069,3.0932,3.0913,3.0996,3.1348,3.1094,3.105,3.1289,3.1133,3.0961,3.0943,3.1573,3.2379,3.3118,3.2858,3.2591,2.9598,2.9598,2.9598,2.9598,2.9618,2.9819,2.9902,2.9955,3.0204,3.0028,2.9618,2.9598,2.9481,2.9277,2.9291,2.9193,2.9012,2.9012,2.8998,2.9012,2.9012,2.8998,2.8998,2.8998,2.8998,2.9012,2.8998,2.9012,2.9012,2.9012,2.9012,2.8992,2.875,2.8633,2.8613,2.8418,2.8301,2.8281,2.7728,2.7448,2.7435,2.7012,2.679,2.6777,2.6348,2.6126,2.6126,2.5703,2.5488,2.5488,2.5242,2.5222,2.5457,2.5488,2.5696,2.6106,2.6145,2.6309,2.6699,2.6966,2.7266,2.7663,2.8105,2.8184,2.778,2.7734,2.7891,2.8301,2.834,2.8607,2.9199,2.9291,2.9453,2.9863,2.9916,3.0,3.019,3.0322,3.0366,3.0522,3.0566,3.0742,3.1172,3.1391,3.1606,3.1831,3.2085,3.2218,3.2148,3.1566,3.1382,3.2223,3.1673,3.1317,3.1754,3.2019,3.1819,3.1319,3.1275,3.1192,3.1006,3.0913,3.0976,3.1133,3.0996,3.0991,3.1157,3.1035,3.0922,3.0941,3.1157,3.183,3.2427,3.2424,3.2377,2.9906,2.9911,2.9891,2.9877,2.9931,3.0229,3.0351,3.0405,3.0723,3.0522,2.995,2.9891,2.9833,2.9741,2.9735,2.9662,2.9618,2.9598,2.9598,2.9598,2.9598,2.9598,2.9598,2.9598,2.9598,2.9598,2.9598,2.9598,2.9598,2.9598,2.9598,2.9579,2.9238,2.9049,2.9049,2.875,2.8574,2.8588,2.8607,2.849,2.8281,2.7982,2.7839,2.78,2.7383,2.7168,2.7161,2.6758,2.6543,2.6536,2.6198,2.6147,2.6504,2.6543,2.6719,2.7122,2.7155,2.7233,2.7428,2.7767,2.8158,2.8568,2.8867,2.9049,2.9029,2.8783,2.8711,2.9004,2.9049,2.9238,2.9623,2.9721,2.9897,3.0293,3.0351,3.0385,3.0405,3.0698,3.0762,3.0449,3.0684,3.105,3.1372,3.1508,3.1665,3.2046,3.2198,3.2027,3.1777,3.1929,3.2164,3.2344,3.232,3.204,3.1753,3.1961,3.1908,3.1108,3.1255,3.1231,3.1006,3.0913,3.0913,3.0932,3.0932,3.0913,3.0913,3.0913,3.0913,3.0924,3.1165,3.1455,3.1783,3.1966,3.209,3.0776,3.0796,3.0737,3.0776,3.0757,3.0815,3.0815,3.0835,3.0893,3.0874,3.0737,3.0796,3.0522,3.0176,3.0137,2.9975,2.9657,2.9618,2.9637,2.9637,2.9598,2.9598,2.9657,2.9618,2.9598,2.9637,2.9637,2.9676,2.9676,2.9637,2.9618,2.9598,2.9573,2.9526,2.952,2.9481,2.9461,2.9481,2.9495,2.9109,2.834,2.8255,2.8255,2.8242,2.7858,2.7624,2.7611,2.72,2.694,2.694,2.6921,2.6901,2.696,2.696,2.7148,2.7604,2.7643,2.7943,2.8619,2.8756,2.8965,2.9422,2.95,2.954,2.954,2.9506,2.9481,2.9545,2.9559,2.9701,3.0078,3.0137,3.0312,3.0718,3.0796,3.0835,3.0815,3.0859,3.0879,3.084,3.0854,3.1055,3.1411,3.1528,3.1704,3.214,3.2198,3.2179,3.2081,3.1836,3.1719,3.1777,3.1914,3.214,3.2022,3.1758,3.1573,3.1387,3.1167,3.1025,3.0947,3.0913,3.0913,3.0913,3.0913,3.0913,3.0952,3.0913,3.0908,3.1012,3.1355,3.1839,3.1309,3.1412,3.1782,3.0913,3.0913,3.0913,3.0913,3.0913,3.0913,3.0913,3.0913,3.0913,3.0913,3.0913,3.0913,3.0781,3.0605,3.0605,3.0522,3.0366,3.0366,3.0366,3.0366,3.038,3.0366,3.0366,3.038,3.0366,3.0366,3.038,3.038,3.0366,3.0366,3.0366,3.0327,3.0112,2.9955,2.9936,2.9715,2.9598,2.9598,2.9598,2.9436,2.9129,2.907,2.8939,2.8672,2.8496,2.8295,2.8073,2.7851,2.7773,2.7773,2.7773,2.7773,2.7773,2.7773,2.7969,2.8392,2.8666,2.8959,2.9291,2.9311,2.9389,2.9598,2.9833,2.9955,2.9975,3.021,3.0366,3.0346,3.0112,3.0117,3.0527,3.062,3.0703,3.0874,3.0913,3.0913,3.0913,3.0913,3.0913,3.0913,3.0913,3.1035,3.143,3.1738,3.1968,3.2179,3.2198,3.2198,3.2179,3.2027,3.1949,3.1929,3.2101,3.1925,3.1597,3.1289,3.1191,3.1133,3.103,3.0913,3.0952,3.0913,3.0913,3.0932,3.0972,3.1089,3.125,3.1245,3.1224,3.1249,3.1567,3.2061,3.1714,3.18,3.2027,3.1245,3.1265,3.123,3.1245,3.1245,3.123,3.1265,3.1265,3.123,3.125,3.1245,3.1245,3.1245,3.1226,3.1016,3.0913,3.0913,3.0913,3.0913,3.0913,3.0913,3.0913,3.0913,3.0913,3.0913,3.0913,3.0893,3.0893,3.0913,3.0913,3.0913,3.0854,3.0547,3.0391,3.0351,3.0092,2.9955,2.997,2.995,2.9955,2.995,2.995,2.9682,2.916,2.9101,2.8945,2.8666,2.8666,2.8646,2.8679,2.8646,2.8666,2.8679,2.8666,2.8803,2.9082,2.9422,2.9657,2.9741,2.976,2.9833,2.9955,3.0249,3.0391,3.0464,3.0698,3.0893,3.0854,3.06,3.0547,3.0835,3.0913,3.0913,3.0913,3.0913,3.0913,3.0913,3.0913,3.0913,3.0913,3.0913,3.1055,3.1484,3.1957,3.2339,3.2237,3.2198,3.2198,3.2198,3.2179,3.2179,3.2198,3.2198,3.1964,3.1382,3.1362,3.1279,3.1265,3.1323,3.1343,3.1265,3.1279,3.1279,3.1514,3.1338,3.1323,3.1616,3.1674,3.1687,3.1539,3.1904,3.2508,3.2539,3.2409,3.2213,3.214,3.214,3.214,3.2101,3.212,3.2101,3.212,3.2061,3.2101,3.212,3.2081,3.2101,3.212,3.2042,3.1304,3.0913,3.0913,3.0932,3.0932,3.0913,3.0913,3.0913,3.0913,3.0913,3.0913,3.0972,3.0972,3.0932,3.0913,3.0913,3.0913,3.0893,3.0854,3.0854,3.0835,3.0776,3.0835,3.0757,3.0757,3.0796,3.0815,3.083,3.0385,2.9696,2.9579,2.9526,2.95,2.952,2.9534,2.952,2.9481,2.95,2.952,2.9506,2.9526,2.9579,2.9598,2.9813,3.0131,3.0176,3.0351,3.0737,3.0796,3.0874,3.0874,3.0874,3.0913,3.0913,3.0854,3.0854,3.0893,3.0913,3.0913,3.0913,3.0913,3.0913,3.0913,3.0952,3.0913,3.0952,3.1011,3.1191,3.1508,3.2246,3.2476,3.2335,3.2218,3.2257,3.2335,3.2276,3.2296,3.2296,3.2296,3.2198,3.214,3.1944,3.1988,3.1949,3.1866,3.2042,3.212,3.2155,3.2116,3.2061,3.1964,3.1964,3.2101,3.2198,3.2207,3.231,3.2693,3.3095,3.3037,3.2588,3.2451,3.2198,3.2198,3.2198,3.2198,3.2198,3.2198,3.2198,3.2198,3.2198,3.2198,3.2198,3.2198,3.2198,3.2194,3.1885,3.1577,3.1309,3.1274,3.1152,3.0932,3.0913,3.1035,3.1255,3.1289,3.1274,3.1289,3.1274,3.1138,3.0932,3.0913,3.0913,3.0913,3.0913,3.0913,3.0913,3.0913,3.0913,3.0913,3.0913,3.0913,3.0913,3.0913,3.0737,3.0444,3.0131,2.9858,2.9618,2.9598,2.9598,2.9598,2.9598,2.9598,2.9618,2.9838,2.9975,3.0014,3.0268,3.0503,3.0605,3.0659,3.0854,3.1196,3.1035,3.1016,3.1172,3.1055,3.0913,3.0913,3.0913,3.0913,3.0913,3.0913,3.0913,3.0913,3.0913,3.0932,3.0972,3.1128,3.1289,3.1328,3.1519,3.1792,3.1929,3.2222,3.2437,3.2574,3.2574,3.2691,3.291,3.2969,3.291,3.2949,3.2969,3.2953,3.2969,3.2457,3.2183,3.2179,3.2159,3.2179,3.2218,3.2296,3.2257,3.2316,3.2316,3.2433,3.2496,3.275,3.2773,3.2914,3.3326,3.3349,3.3378,3.2971,3.2898,3.2578,3.2593,3.2593,3.2609,3.2593,3.2593,3.2593,3.2593,3.2593,3.2574,3.2593,3.2593,3.2593,3.2554,3.2472,3.2144,3.1738,3.1567,3.1274,3.0918,3.0913,3.1113,3.143,3.1387,3.145,3.166,3.1548,3.1337,3.1079,3.0957,3.0957,3.1094,3.1094,3.1172,3.1284,3.1323,3.1265,3.1147,3.1079,3.1035,3.0932,3.0913,3.0913,3.0854,3.0586,3.0307,3.0014,3.0028,3.0014,2.9995,3.0014,2.995,2.9838,3.0053,3.021,3.0268,3.0639,3.0913,3.0913,3.0913,3.103,3.1269,3.1089,3.1035,3.1269,3.1055,3.0932,3.0913,3.0913,3.0913,3.0932,3.103,3.1035,3.0972,3.1016,3.1094,3.1128,3.1465,3.1714,3.1792,3.2105,3.2355,3.2413,3.2515,3.273,3.2969,3.2988,3.3129,3.3344,3.3386,3.3386,3.3386,3.3328,3.3308,3.3285,3.2895,3.2715,3.2695,3.2633,3.2554,3.2476,3.2515,3.2531,3.2554,3.2633,3.275,3.2949,3.3207,3.3344,3.3367,3.3387,3.3364,3.3399,3.3375,3.3265,3.3383,3.3328,3.3367,3.3324,3.3285,3.3285,3.3363,3.3304,3.3324,3.3265,3.3226,3.3308,3.3265,3.3265,3.293,3.2578,3.2183,3.1816,3.1367,3.0932,3.0913,3.1113,3.1455,3.1177,3.1441,3.2066,3.168,3.1508,3.1489,3.1172,3.1133,3.145,3.1508,3.168,3.2174,3.2061,3.189,3.1548,3.143,3.1269,3.0972,3.0913,3.0913,3.0913,3.0874,3.084,3.0874,3.0835,3.0796,3.0815,3.082,3.0678,3.0273,3.0254,3.0234,3.0312,3.0664,3.0893,3.0913,3.0913,3.0913,3.103,3.0918,3.0937,3.1035,3.0972,3.0913,3.0913,3.0952,3.0952,3.103,3.1289,3.1352,3.1035,3.1274,3.1508,3.1601,3.191,3.2218,3.2296,3.2593,3.2773,3.2871,3.3047,3.3262,3.3285,3.3324,3.3324,3.3383,3.3386,3.3386,3.3386,3.3386,3.3386,3.3386,3.3367,3.3347,3.3308,3.3246,3.3148,3.307,3.3051,3.3027,3.3031,3.3012,3.3129,3.3109,3.3363,3.3347,3.3386,3.3386,3.3386,3.3386,3.3386,3.3386,3.3386,3.3386,3.3386,3.3386,3.3386,3.3386,3.3386,3.3386,3.3386,3.3386,3.3386,3.3386,3.3386,3.3383,3.3265,3.2988,3.2613,3.2422,3.1855,3.1069,3.0932,3.1152,3.143,3.1406,3.1636,3.2003,3.1441,3.1406,3.1797,3.1508,3.1543,3.189,3.1968,3.2061,3.2183,3.2179,3.1968,3.1548,3.1508,3.1294,3.0952,3.0913,3.0913,3.0913,3.0913,3.1016,3.1289,3.1069,3.0913,3.0913,3.0913,3.082,3.0703,3.0678,3.0684,3.0698,3.0815,3.0913,3.0913,3.0913,3.1016,3.1191,3.1069,3.1074,3.1216,3.1074,3.0952,3.0972,3.1152,3.1313,3.1372,3.1699,3.1773,3.1352,3.1699,3.1973,3.2051,3.2344,3.273,3.3004,3.3129,3.3207,3.3207,3.3383,3.3441,3.3425,3.3425,3.3445,3.3425,3.3484,3.3386,3.3386,3.3386,3.3503,3.3581,3.364,3.364,3.3578,3.3519,3.3406,3.3386,3.3386,3.3386,3.3386,3.3386,3.3386,3.3386,3.3386,3.3386,3.3425,3.3445,3.3425,3.3386,3.3464,3.3601,3.3386,3.3386,3.3386,3.35,3.3652,3.3672,3.3656,3.3672,3.3652,3.3558,3.3441,3.3386,3.3386,3.3363,3.3246,3.3047,3.2793,3.2652,3.2144,3.148,3.1382,3.1616,3.1957,3.2153,3.2246,3.23,3.187,3.1875,3.2359,3.2007,3.191,3.2159,3.2339,3.2418,3.2418,3.2398,3.2187,3.1797,3.1587,3.1294,3.103,3.1035,3.1069,3.0937,3.105,3.1172,3.1269,3.103,3.0991,3.1016,3.084,3.0703,3.0874,3.0757,3.0703,3.0874,3.0913,3.0913,3.0913,3.0913,3.1011,3.1191,3.1172,3.123,3.143,3.1348,3.1397,3.1441,3.1616,3.1758,3.1816,3.2164,3.2261,3.2031,3.2226,3.2461,3.2617,3.2871,3.3086,3.3304,3.3367,3.3386,3.3386,3.3597,3.3636,3.3672,3.3773,3.3871,3.3871,3.3894,3.3871,3.3851,3.3968,3.4007,3.3949,3.3929,3.3913,3.3812,3.3691,3.35,3.3386,3.3386,3.3386,3.3386,3.3386,3.3386,3.3386,3.3386,3.3406,3.3429,3.3541,3.3809,3.3961,3.3988,3.4085,3.3464,3.348,3.3461,3.3711,3.4039,3.4039,3.4,3.4016,3.4075,3.3824,3.3461,3.3386,3.3386,3.3304,3.3105,3.293,3.2773,3.2574,3.2418,3.2281,3.2276,3.2398,3.2559,3.2797,3.2851,3.2754,3.2637,3.2695,3.2828,3.2418,3.2257,3.2378,3.2691,3.2832,3.2832,3.2832,3.2598,3.2124,3.1758,3.1387,3.0972,3.1211,3.1294,3.0991,3.1274,3.1372,3.1304,3.1245,3.123,3.1313,3.0703,3.0561,3.0742,3.0469,3.0508,3.0893,3.0932,3.0957,3.0937,3.1089,3.1108,3.1187,3.1426,3.1533,3.1626,3.187,3.2022,3.2046,3.2179,3.2222,3.2296,3.2593,3.2793,3.2887,3.2851,3.2988,3.3289,3.3386,3.348,3.348,3.3461,3.3484,3.3597,3.3926,3.4079,3.4176,3.4375,3.4492,3.4531,3.4473,3.4629,3.459,3.4453,3.4414,3.4297,3.4297,3.4281,3.4219,3.4062,3.391,3.3714,3.3695,3.3714,3.3675,3.3578,3.3503,3.3527,3.3647,3.3511,3.3434,3.3743,3.4287,3.4567,3.4619,3.4437,3.4355,3.4336,3.4023,3.3981,3.4095,3.4079,3.3903,3.3672,3.3981,3.3828,3.348,3.3386,3.3386,3.3367,3.3285,3.3246,3.3168,3.309,3.307,3.307,3.307,3.275,3.2437,3.2476,3.2656,3.2769,3.2613,3.2656,3.3168,3.2832,3.2789,3.3086,3.3125,3.3207,3.3246,3.3187,3.2851,3.2296,3.2101,3.1621,3.1069,3.1069,3.1172,3.1352,3.1469,3.1797,3.2207,3.2285,3.1816,3.1094,3.0879,3.0776,3.0952,3.0835,3.0854,3.1011,3.1211,3.1348,3.1406,3.1636,3.1827,3.1851,3.191,3.2007,3.2007,3.2105,3.2198,3.2242,3.2437,3.2652,3.2695,3.3027,3.3344,3.3649,3.3492,3.3344,3.348,3.3727,3.3922,3.3926,3.416,3.4258,3.43,3.4414,3.4531,3.4567,3.4668,3.4785,3.4863,3.4863,3.4922,3.4766,3.4648,3.4668,3.4648,3.4648,3.4629,3.4606,3.4547,3.4512,3.4394,3.4355,3.4375,3.4394,3.4219,3.4105,3.4173,3.4261,3.3952,3.3608,3.4231,3.4874,3.5143,3.5248,3.4861,3.4687,3.4648,3.4274,3.4196,3.4313,3.4157,3.3942,3.3769,3.3961,3.3844,3.348,3.3386,3.3386,3.3386,3.3386,3.3386,3.3386,3.3386,3.3367,3.3367,3.3347,3.3109,3.2793,3.273,3.2832,3.3008,3.2812,3.2988,3.3285,3.3148,3.3125,3.3129,3.3324,3.3308,3.3125,3.3129,3.2949,3.2511,3.2296,3.191,3.1514,3.1616,3.1695,3.1855,3.1918,3.2285,3.2535,3.2535,3.2164,3.1597,3.146,3.1534,3.1675,3.1534,3.1534,3.166,3.1777,3.1812,3.1831,3.2046,3.2179,3.2237,3.2335,3.2437,3.2476,3.2574,3.2711,3.2769,3.3101,3.3297,3.3414,3.3711,3.4043,3.4238,3.4101,3.3949,3.3965,3.4215,3.4333,3.4411,3.4547,3.4707,3.4707,3.4863,3.4977,3.5039,3.5179,3.5273,3.5332,3.5254,3.5195,3.5137,3.5156,3.5234,3.5273,3.5273,3.5234,3.5176,3.5098,3.5078,3.4883,3.4824,3.4766,3.4746,3.4726,3.471,3.4719,3.4673,3.4428,3.4411,3.4955,3.5299,3.5547,3.5663,3.5269,3.4805,3.4762,3.4349,3.4352,3.4531,3.4254,3.402,3.4,3.4059,3.3828,3.3445,3.3386,3.3386,3.3386,3.3386,3.3386,3.3386,3.3386,3.3386,3.3386,3.3386,3.3308,3.3285,3.3246,3.3265,3.3324,3.3367,3.3347,3.3367,3.3367,3.3207,3.3109,3.3285,3.3223,3.3066,3.2949,3.2851,3.273,3.2472,3.2242,3.212,3.2281,3.2339,3.232,3.2602,3.2637,3.2535,3.2452,3.2344,3.2335,3.2257,3.2276,3.2554,3.2316,3.2316,3.2461,3.232,3.2257,3.2276,3.2355,3.2433,3.2554,3.2847,3.2984,3.3125,3.3398,3.3539,3.3539,3.3942,3.4059,3.4157,3.4508,3.4707,3.4785,3.4766,3.4824,3.4824,3.4805,3.4766,3.4785,3.4805,3.4844,3.4941,3.5156,3.5466,3.5449,3.5589,3.5647,3.5703,3.5667,3.5706,3.5745,3.5803,3.5901,3.592,3.592,3.5862,3.5803,3.5725,3.5608,3.5254,3.5117,3.498,3.4944,3.5176,3.5195,3.5061,3.4943,3.4843,3.4993,3.5393,3.5661,3.5874,3.5857,3.5628,3.553,3.5215,3.4766,3.443,3.4251,3.4153,3.3903,3.3578,3.3942,3.3824,3.348,3.3406,3.3406,3.3425,3.348,3.3386,3.348,3.348,3.3386,3.3386,3.3386,3.3386,3.3425,3.3464,3.3425,3.3425,3.3386,3.3406,3.3425,3.348,3.3383,3.3363,3.3344,3.3363,3.3304,3.3226,3.3105,3.2851,3.2711,3.2535,3.2316,3.2374,3.2535,3.2695,3.309,3.3226,3.3168,3.3148,3.3148,3.3008,3.2633,3.2472,3.2437,3.2335,3.2374,3.2496,3.2672,3.2711,3.275,3.3008,3.3316,3.357,3.3688,3.3958,3.4258,3.4277,3.4394,3.4434,3.4512,3.457,3.4668,3.5,3.5231,3.5349,3.5527,3.5686,3.5684,3.5432,3.5273,3.5293,3.5508,3.5706,3.5723,3.5801,3.5918,3.5901,3.594,3.6018,3.6077,3.6135,3.6194,3.6291,3.6272,3.633,3.633,3.633,3.633,3.633,3.6291,3.6252,3.5898,3.5684,3.5647,3.5667,3.5745,3.5667,3.5452,3.5569,3.5543,3.5677,3.5736,3.5847,3.5959,3.5999,3.6018,3.5764,3.5368,3.4902,3.4453,3.4098,3.3864,3.3633,3.348,3.3652,3.3785,3.3766,3.373,3.3828,3.4004,3.4023,3.4007,3.4023,3.4023,3.4007,3.4027,3.4043,3.4027,3.4023,3.3984,3.3945,3.3789,3.373,3.3809,3.391,3.3848,3.3848,3.3929,3.3636,3.3574,3.3652,3.3539,3.332,3.3148,3.307,3.2969,3.2793,3.2754,3.2984,3.3379,3.3789,3.4007,3.4007,3.4023,3.4007,3.3906,3.359,3.3141,3.2812,3.2754,3.2847,3.3101,3.3258,3.3516,3.3695,3.3871,3.4101,3.4352,3.4391,3.4489,3.4629,3.4687,3.4687,3.4746,3.4883,3.5078,3.5276,3.5471,3.5723,3.6013,3.6189,3.6404,3.6465,3.6074,3.5684,3.5762,3.6035,3.623,3.6328,3.6406,3.6562,3.6621,3.6641,3.6682,3.6721,3.6779,3.6721,3.676,3.6719,3.6719,3.6701,3.6721,3.6777,3.6797,3.6816,3.6816,3.666,3.6543,3.6448,3.633,3.6116,3.5979,3.5842,3.5999,3.6077,3.5945,3.5925,3.5982,3.6038,3.6096,3.6057,3.5667,3.5254,3.4785,3.4372,3.3981,3.3672,3.3539,3.3539,3.3578,3.3926,3.4137,3.4212,3.4316,3.459,3.4629,3.4668,3.4668,3.4665,3.4551,3.4551,3.4551,3.4551,3.457,3.4547,3.4528,3.4293,3.4215,3.4372,3.4453,3.4391,3.4297,3.4492,3.4007,3.389,3.4039,3.3848,3.3675,3.3675,3.3675,3.3656,3.3617,3.3597,3.3809,3.4118,3.4375,3.457,3.457,3.459,3.4629,3.4687,3.4687,3.4297,3.3832,3.3617,3.375,3.4137,3.4118,3.4215,3.4394,3.459,3.4648,3.4766,3.4805,3.4863,3.4922,3.5019,3.5039,3.5156,3.5371,3.5779,3.6057,3.6213,3.6406,3.6658,3.6775,3.6951,3.707,3.6621,3.6311,3.6309,3.6543,3.6719,3.6836,3.6934,3.7148,3.7305,3.7324,3.7324,3.7344,3.7305,3.7187,3.709,3.7012,3.6992,3.6992,3.7031,3.709,3.7148,3.7207,3.7226,3.7244,3.7051,3.6818,3.6562,3.635,3.6291,3.6311,3.6484,3.6428,3.616,3.6059,3.6113,3.6161,3.6196,3.625,3.5234,3.4766,3.4372,3.3942,3.3597,3.3844,3.3981,3.4055,3.4297,3.4512,3.459,3.4626,3.4629,3.4746,3.4707,3.4707,3.4824,3.4844,3.4805,3.4805,3.4805,3.4805,3.4844,3.4883,3.4902,3.5,3.4844,3.4726,3.4746,3.4629,3.4707,3.4687,3.4512,3.4492,3.4531,3.4476,3.4355,3.4316,3.4336,3.4355,3.4355,3.443,3.4453,3.4609,3.4785,3.4824,3.4785,3.4726,3.4687,3.4687,3.4687,3.4629,3.4531,3.4492,3.4531,3.4587,3.4626,3.4687,3.4824,3.4785,3.4941,3.5156,3.5312,3.5488,3.5684,3.5801,3.5801,3.5898,3.6152,3.6502,3.6597,3.6795,3.7051,3.7187,3.7207,3.7266,3.7305,3.7226,3.709,3.7109,3.7205,3.7225,3.7285,3.7383,3.7539,3.7637,3.7617,3.7598,3.7578,3.7519,3.7402,3.7324,3.7246,3.7246,3.7246,3.7285,3.7344,3.7422,3.7461,3.7498,3.7459,3.7324,3.7129,3.709,3.6992,3.6934,3.6973,3.6953,3.6735,3.6439,3.6342,3.6279,3.6697,3.706,3.6964,3.5117,3.4687,3.4489,3.4176,3.3867,3.4235,3.4411,3.445,3.4609,3.4844,3.5,3.5095,3.5195,3.5315,3.5374,3.5374,3.5354,3.5391,3.5374,3.5371,3.5391,3.5391,3.5351,3.5351,3.5488,3.5605,3.5469,3.5335,3.5335,3.5156,3.5176,3.5254,3.498,3.4805,3.4958,3.4785,3.4746,3.4726,3.4726,3.4726,3.4746,3.4902,3.5039,3.5098,3.5273,3.5354,3.5391,3.5374,3.5374,3.5374,3.5374,3.5371,3.5371,3.5335,3.5276,3.5137,3.5078,3.5176,3.5315,3.5391,3.551,3.5686,3.5915,3.613,3.6348,3.6523,3.6604,3.6682,3.6777,3.701,3.7029,3.7226,3.7383,3.7578,3.7637,3.7734,3.7889,3.793,3.7891,3.785,3.7734,3.7676,3.7676,3.7793,3.793,3.7949,3.793,3.7891,3.7851,3.785,3.7791,3.783,3.7793,3.7793,3.7773,3.7754,3.7772,3.7791,3.7811,3.783,3.7869,3.783,3.7928,3.7987,3.7832,3.748,3.7285,3.7187,3.6959,3.6802,3.6853,3.7051,3.7628,3.7918,3.7728,3.5176,3.4844,3.4746,3.4528,3.4329,3.4665,3.4844,3.4844,3.4944,3.5179,3.5488,3.5527,3.5686,3.592,3.5979,3.5979,3.6018,3.5959,3.594,3.592,3.592,3.5959,3.5999,3.6018,3.5959,3.5901,3.592,3.6018,3.5825,3.5628,3.5742,3.5686,3.5218,3.5101,3.5371,3.5234,3.4983,3.4944,3.4961,3.4961,3.5059,3.5312,3.5527,3.5527,3.5842,3.5942,3.5901,3.5881,3.5979,3.6055,3.6133,3.6172,3.6233,3.6252,3.6096,3.582,3.5703,3.5859,3.6035,3.6269,3.6272,3.635,3.6619,3.6756,3.6853,3.7029,3.7226,3.7305,3.7402,3.7422,3.7441,3.7537,3.7734,3.7931,3.8068,3.8126,3.8377,3.8456,3.8416,3.8338,3.8184,3.8144,3.8144,3.8125,3.828,3.8299,3.826,3.8299,3.828,3.8338,3.8338,3.8416,3.8436,3.8436,3.8397,3.8338,3.8299,3.826,3.828,3.828,3.8377,3.8456,3.8495,3.8436,3.8182,3.785,3.7635,3.7557,3.7608,3.7631,3.7582,3.7745,3.8139,3.8287,3.818,3.5388,3.529,3.4863,3.4668,3.4707,3.5117,3.5312,3.5351,3.5644,3.5845,3.5881,3.592,3.592,3.5999,3.6018,3.6018,3.6018,3.6018,3.6018,3.6018,3.6018,3.6018,3.6018,3.6018,3.6057,3.6077,3.6077,3.6018,3.6077,3.5999,3.592,3.592,3.592,3.5881,3.5881,3.5898,3.5862,3.5842,3.5859,3.5859,3.5879,3.5937,3.5959,3.5979,3.6038,3.6135,3.6174,3.6194,3.6272,3.658,3.6619,3.6795,3.707,3.7148,3.7129,3.6973,3.6795,3.6577,3.6658,3.6816,3.6975,3.6975,3.7168,3.7244,3.7342,3.7361,3.7441,3.7324,3.7617,3.7814,3.793,3.8202,3.8397,3.8496,3.8574,3.8592,3.8728,3.8964,3.8925,3.8866,3.873,3.8671,3.8631,3.8592,3.8573,3.8592,3.8612,3.8671,3.8729,3.8846,3.8866,3.8944,3.8964,3.8964,3.8983,3.8925,3.8885,3.8807,3.8788,3.8788,3.8846,3.8885,3.8671,3.8573,3.8358,3.828,3.8162,3.8202,3.8358,3.8299,3.8123,3.8241,3.8511,3.8564,3.85,3.5605,3.5371,3.5176,3.5098,3.5156,3.5566,3.5742,3.5764,3.592,3.6018,3.6018,3.6018,3.6018,3.6018,3.6018,3.6018,3.6018,3.6018,3.6018,3.6038,3.6038,3.6038,3.6018,3.6038,3.6077,3.6367,3.6443,3.6601,3.6523,3.6233,3.6018,3.6077,3.625,3.6367,3.6426,3.6604,3.6719,3.6738,3.6738,3.6738,3.6721,3.6721,3.6738,3.6701,3.6701,3.6682,3.6699,3.6738,3.6816,3.7049,3.7049,3.709,3.7246,3.7285,3.7285,3.7285,3.7383,3.7266,3.7107,3.7246,3.7324,3.7402,3.7519,3.7754,3.793,3.8026,3.8008,3.8045,3.8202,3.8281,3.8379,3.871,3.8848,3.8965,3.9082,3.9218,3.9237,3.9335,3.9433,3.9374,3.9315,3.9237,3.9159,3.912,3.9121,3.9218,3.9257,3.9315,3.9374,3.9472,3.9472,3.9452,3.9452,3.9434,3.9473,3.9473,3.9453,3.9433,3.9433,3.9413,3.9316,3.9258,3.9061,3.8846,3.8671,3.8631,3.8651,3.8573,3.8495,3.8534,3.8592,3.8592,3.8592,3.8591,3.8566,3.584,3.5547,3.5547,3.5547,3.555,3.5881,3.5999,3.5999,3.5999,3.6018,3.6018,3.6018,3.6018,3.6018,3.6018,3.6018,3.6018,3.6116,3.6172,3.6174,3.6272,3.6369,3.6428,3.6426,3.6543,3.6834,3.6834,3.6953,3.6953,3.6758,3.6426,3.6348,3.668,3.6834,3.6931,3.7051,3.7187,3.7187,3.7207,3.7207,3.7226,3.7246,3.7246,3.7266,3.7285,3.7305,3.7305,3.7266,3.7266,3.7441,3.7461,3.7502,3.7676,3.7772,3.7734,3.7791,3.791,3.791,3.7754,3.7715,3.7635,3.7715,3.7832,3.8203,3.8456,3.8651,3.8749,3.8672,3.8905,3.8944,3.8983,3.9237,3.9316,3.9473,3.9609,3.9785,3.9902,3.9843,3.9765,3.9648,3.9668,3.9844,3.9766,3.9649,3.9669,3.9824,3.9883,3.9922,3.9922,3.996,3.9882,3.9784,3.9746,3.9746,3.9747,3.9824,3.9883,3.998,3.9999,3.9921,3.9765,3.9609,3.9434,3.9219,3.9043,3.912,3.9237,3.8905,3.8592,3.8592,3.8592,3.8592,3.8592,3.8631,3.871,3.5999,3.5959,3.5959,3.594,3.594,3.5999,3.6018,3.6018,3.6018,3.6018,3.6018,3.6038,3.6077,3.6057,3.6152,3.6135,3.6077,3.6445,3.6599,3.6775,3.6973,3.7051,3.7051,3.7051,3.7148,3.7264,3.7266,3.7285,3.7344,3.7402,3.7207,3.7244,3.7246,3.7246,3.7305,3.7422,3.75,3.75,3.748,3.7461,3.7441,3.7422,3.7402,3.7383,3.7361,3.7322,3.7324,3.7422,3.7578,3.7871,3.7873,3.8008,3.8221,3.828,3.828,3.8416,3.8456,3.8514,3.8495,3.8436,3.8493,3.8532,3.8591,3.8671,3.8827,3.9042,3.9121,3.9199,3.9413,3.9609,3.9706,3.9843,3.9844,3.9922,4.0039,4.0156,4.0215,4.0156,4.0077,3.9941,4.0039,4.0273,4.0391,4.0273,4.0195,4.0293,4.0292,4.0312,4.0215,4.0195,4.0117,4.0019,4.0,3.9961,3.9904,4.0001,4.0158,4.0293,4.035,4.0214,4.0058,3.9921,3.9825,3.9766,3.9629,3.9707,3.9706,3.9315,3.8964,3.871,3.8633,3.87,3.8851,3.8964,3.9061,3.6018,3.6018,3.6018,3.6018,3.6018,3.6018,3.6018,3.6018,3.6018,3.6018,3.6038,3.6306,3.6443,3.6502,3.6719,3.6797,3.6816,3.6953,3.7049,3.7107,3.7226,3.7285,3.7305,3.7383,3.7402,3.7617,3.7695,3.7889,3.8104,3.8006,3.8104,3.8045,3.7814,3.7697,3.7716,3.7891,3.8026,3.8065,3.8065,3.8084,3.8104,3.8104,3.8104,3.8104,3.8104,3.8104,3.8123,3.8104,3.8184,3.8281,3.834,3.8514,3.865,3.8671,3.8788,3.8944,3.8965,3.91,3.9237,3.9159,3.91,3.9374,3.9413,3.9374,3.9296,3.955,3.9609,3.9707,3.9805,4.0,3.9922,4.0117,4.0274,4.0332,4.043,4.0566,4.0585,4.0527,4.0527,4.0468,4.0625,4.0839,4.0879,4.0898,4.082,4.0781,4.0722,4.0664,4.0585,4.0546,4.0488,4.0468,4.0449,4.0488,4.0488,4.0489,4.0509,4.0586,4.0701,4.0604,4.0487,4.0332,4.0254,4.0196,4.0117,4.0039,3.9902,3.9628,3.9319,3.8975,3.8865,3.885,3.9038,3.9334,3.9414,3.6018,3.6018,3.6018,3.6018,3.6018,3.6018,3.6018,3.6038,3.6172,3.6309,3.6408,3.6756,3.6873,3.697,3.7146,3.7266,3.7266,3.7383,3.7461,3.7559,3.7637,3.7656,3.7676,3.7754,3.7928,3.8068,3.8125,3.8319,3.8513,3.8591,3.8631,3.8574,3.8476,3.8302,3.8184,3.8397,3.8592,3.8592,3.8592,3.8592,3.8573,3.8553,3.8553,3.8552,3.8532,3.8612,3.8671,3.8729,3.8828,3.8964,3.9022,3.8984,3.9003,3.9042,3.9141,3.9297,3.9453,3.959,3.9687,3.9687,3.9569,3.9765,3.9805,3.9824,3.9902,4.0,4.0078,4.0079,4.0195,4.0273,4.0273,4.0566,4.0723,4.0781,4.0859,4.0957,4.0976,4.0957,4.0996,4.1035,4.1133,4.1113,4.1113,4.1113,4.1094,4.1035,4.0976,4.0957,4.0957,4.0937,4.0976,4.0976,4.0996,4.1074,4.1152,4.0977,4.0821,4.0879,4.0976,4.1035,4.0937,4.0781,4.0703,4.0703,4.0585,4.0332,4.0292,4.0292,3.9811,3.9199,3.937,3.9692,3.9765,4.0065,3.992,3.6018,3.6018,3.6018,3.6018,3.6057,3.6018,3.6038,3.6135,3.6504,3.6853,3.7111,3.7266,3.7285,3.7305,3.7441,3.7519,3.7578,3.7775,3.7892,3.7988,3.8164,3.8418,3.8456,3.8416,3.8397,3.8534,3.8592,3.8612,3.8729,3.8845,3.8964,3.9101,3.9101,3.8945,3.865,3.8592,3.8612,3.8631,3.869,3.8749,3.8768,3.8788,3.8807,3.8827,3.8827,3.8965,3.9141,3.9199,3.9336,3.9551,3.9609,3.9629,3.9648,3.9668,3.9746,3.9844,3.9863,3.9902,3.9922,3.9902,4.0,4.0097,4.0195,4.0156,4.0078,4.0254,4.0489,4.0527,4.0781,4.1015,4.1113,4.1152,4.1172,4.1289,4.1387,4.1426,4.1465,4.1484,4.1543,4.1582,4.1387,4.123,4.123,4.125,4.1308,4.1269,4.1211,4.1211,4.1211,4.1211,4.1191,4.1211,4.1211,4.1211,4.1211,4.1211,4.1152,4.1211,4.1211,4.1211,4.1211,4.1054,4.1054,4.1133,4.0996,4.0761,4.0918,4.1113,4.051,4.0026,4.052,4.0804,4.082,4.0688,4.0523,3.6018,3.6038,3.6328,3.6462,3.6462,3.6482,3.6482,3.6541,3.6912,3.7168,3.7344,3.7559,3.7697,3.7756,3.7988,3.8104,3.8162,3.8203,3.8359,3.8416,3.8573,3.8553,3.8631,3.8729,3.8788,3.8944,3.9022,3.918,3.9492,3.9374,3.9472,3.9648,3.9687,3.959,3.9511,3.9472,3.9491,3.9453,3.9491,3.9472,3.9452,3.9414,3.9394,3.9394,3.9375,3.9473,3.9629,3.9648,3.9785,3.9961,4.0,4.0,3.998,3.998,4.0078,4.0234,4.0293,4.0469,4.0644,4.0781,4.0761,4.0742,4.0683,4.0664,4.08,4.0879,4.0937,4.0996,4.1191,4.1387,4.1504,4.1562,4.166,4.1973,4.209,4.209,4.207,4.209,4.2109,4.2129,4.2012,4.1914,4.1894,4.1738,4.1719,4.1641,4.1602,4.1387,4.1328,4.125,4.1211,4.1191,4.1211,4.1211,4.1211,4.125,4.1348,4.1406,4.1308,4.1211,4.1211,4.1328,4.1308,4.1348,4.1269,4.1211,4.1211,4.1172,4.1094,4.1014,4.1146,4.1202,4.1068,4.1011,4.0995,3.6077,3.6269,3.656,3.6792,3.691,3.6912,3.697,3.7129,3.7402,3.7598,3.7811,3.8047,3.8144,3.8242,3.8436,3.8592,3.8592,3.8592,3.8749,3.8768,3.8807,3.8964,3.9042,3.9023,3.9258,3.9394,3.9473,3.9609,3.9805,3.9863,3.9961,4.0098,4.0273,4.0371,4.0273,4.0117,3.9824,3.9785,3.9766,3.9805,3.9805,3.9824,3.9844,3.9844,3.9863,3.996,4.0059,4.0137,4.0176,4.0273,4.0331,4.0331,4.0312,4.0371,4.0469,4.0684,4.0781,4.0918,4.1074,4.1348,4.1328,4.1367,4.1308,4.1269,4.1367,4.1387,4.1504,4.1562,4.1582,4.1738,4.1953,4.2012,4.2128,4.2441,4.246,4.2441,4.2421,4.2402,4.2402,4.246,4.248,4.246,4.246,4.2343,4.2226,4.2089,4.1973,4.1758,4.1582,4.1523,4.1523,4.1523,4.1562,4.166,4.1542,4.1365,4.1463,4.1601,4.1621,4.1602,4.1641,4.1855,4.1699,4.1582,4.1562,4.1465,4.1269,4.1172,4.1113,4.1113,4.1171,4.119,4.1211,4.1211,4.125,3.6269,3.6675,3.6697,3.6953,3.7266,3.7363,3.7578,3.791,3.7912,3.8164,3.8553,3.8514,3.8514,3.8553,3.8592,3.8592,3.8651,3.8631,3.8866,3.912,3.918,3.9434,3.9648,3.9746,3.9766,3.9844,3.9941,3.998,3.9961,4.0156,4.0332,4.0528,4.082,4.0918,4.0761,4.0488,4.0176,4.0195,4.0195,4.0195,4.0234,4.0117,4.0175,4.0195,4.0176,4.0312,4.0449,4.0547,4.0761,4.0918,4.1094,4.1113,4.1172,4.1191,4.1211,4.1211,4.1211,4.125,4.1426,4.1699,4.1777,4.1777,4.1523,4.1562,4.168,4.1836,4.1933,4.207,4.2128,4.2265,4.2402,4.2441,4.248,4.2577,4.2637,4.2597,4.2597,4.2597,4.2597,4.2636,4.2656,4.2675,4.2714,4.2675,4.2734,4.2714,4.2616,4.2577,4.2382,4.2109,4.2089,4.2089,4.2148,4.2246,4.2067,4.1772,4.1753,4.1972,4.2367,4.2446,4.2444,4.2265,4.2089,4.1973,4.1914,4.1816,4.1679,4.1444,4.1189,4.1229,4.1328,4.1289,4.1328,4.1348,4.1367,3.6269,3.6734,3.701,3.7363,3.7736,3.8066,3.8299,3.8397,3.8397,3.8495,3.8592,3.8592,3.8592,3.8592,3.8592,3.8612,3.871,3.8866,3.9043,3.9277,3.957,3.9746,3.9883,4.0,4.0098,4.0254,4.0371,4.0469,4.0742,4.0781,4.0781,4.1035,4.1113,4.1172,4.1094,4.0918,4.082,4.0742,4.0684,4.0703,4.0722,4.0703,4.0722,4.0703,4.0703,4.082,4.0918,4.0976,4.1152,4.1211,4.123,4.1211,4.1211,4.1211,4.125,4.1621,4.166,4.1738,4.1992,4.2148,4.2226,4.2266,4.2109,4.2109,4.2207,4.2265,4.2344,4.2499,4.2597,4.2675,4.2832,4.2891,4.2948,4.3046,4.3086,4.3105,4.3105,4.3105,4.3105,4.3105,4.3105,4.3105,4.3105,4.3183,4.3262,4.328,4.328,4.3222,4.3105,4.2812,4.2656,4.2636,4.2616,4.2695,4.2538,4.2243,4.2263,4.2363,4.2779,4.2957,4.2679,4.2499,4.2441,4.2402,4.2363,4.2305,4.2167,4.1931,4.1752,4.1554,4.1615,4.1522,4.1465,4.1602,4.1641,3.6523,3.697,3.7363,3.7793,3.8184,3.8475,3.8592,3.8592,3.8592,3.8592,3.8592,3.8592,3.8592,3.8631,3.8768,3.8866,3.8905,3.9297,3.959,3.9863,3.9981,4.0273,4.0332,4.0391,4.0586,4.0723,4.0801,4.0879,4.1152,4.1211,4.1172,4.1152,4.1211,4.1191,4.1152,4.1133,4.1152,4.1152,4.1152,4.1211,4.1211,4.1211,4.1211,4.123,4.123,4.1289,4.1426,4.1445,4.1484,4.1621,4.1699,4.168,4.168,4.1699,4.1719,4.2011,4.2031,4.2148,4.2304,4.2558,4.2656,4.2734,4.2792,4.2909,4.2851,4.2832,4.287,4.2968,4.2987,4.3047,4.3203,4.334,4.3496,4.3652,4.3652,4.3672,4.3672,4.3672,4.3652,4.3652,4.3633,4.3633,4.3652,4.3691,4.3691,4.3594,4.3555,4.3535,4.3457,4.328,4.3183,4.3164,4.3105,4.3066,4.287,4.2792,4.287,4.2969,4.3227,4.3267,4.293,4.289,4.2948,4.2909,4.2851,4.2714,4.2558,4.2577,4.2436,4.2257,4.222,4.2445,4.2368,4.215,4.215,3.6912,3.7324,3.7775,3.8165,3.8553,3.8592,3.8592,3.8592,3.8592,3.8592,3.8592,3.8592,3.8631,3.8768,3.8965,3.918,3.9375,3.9726,4.0059,4.0489,4.0547,4.0723,4.0957,4.1172,4.1015,4.1113,4.1172,4.1113,4.1152,4.1211,4.1211,4.123,4.1289,4.1367,4.1504,4.1484,4.1523,4.1543,4.1484,4.1465,4.1348,4.1289,4.1308,4.1348,4.1406,4.1504,4.1738,4.1894,4.2011,4.2265,4.2363,4.2324,4.2304,4.2285,4.2324,4.2441,4.246,4.2577,4.2754,4.2988,4.3106,4.3263,4.3497,4.3496,4.3359,4.3263,4.3281,4.3319,4.3359,4.3379,4.3496,4.3516,4.3633,4.3691,4.3691,4.3691,4.3691,4.3691,4.3691,4.3691,4.3691,4.3691,4.3691,4.3691,4.3691,4.3691,4.3691,4.3691,4.3691,4.3633,4.3594,4.3555,4.3457,4.3379,4.3418,4.3379,4.3496,4.3614,4.3676,4.3656,4.334,4.3398,4.3516,4.3398,4.3223,4.3065,4.2948,4.2987,4.3007,4.285,4.2953,4.3457,4.3358,4.2878,4.2639,3.6931,3.7363,3.8123,3.8495,3.8611,3.8592,3.8592,3.8592,3.8592,3.8612,3.8592,3.8631,3.8789,3.9082,3.9219,3.9453,3.9785,4.0137,4.0371,4.0644,4.082,4.0996,4.1191,4.1211,4.1211,4.1211,4.1211,4.1211,4.1211,4.123,4.1387,4.1621,4.1641,4.1738,4.1972,4.1992,4.1992,4.1953,4.2031,4.1914,4.1758,4.1953,4.2109,4.207,4.2089,4.207,4.2246,4.2265,4.2304,4.2402,4.2402,4.2382,4.2382,4.2421,4.2597,4.2872,4.293,4.3047,4.3223,4.3379,4.3477,4.3536,4.3633,4.3672,4.3652,4.3594,4.3574,4.3652,4.3691,4.3691,4.3711,4.3711,4.375,4.375,4.3769,4.3769,4.3769,4.3769,4.3769,4.3769,4.375,4.3769,4.3789,4.3769,4.3711,4.3691,4.3691,4.3711,4.3789,4.3769,4.3789,4.375,4.3672,4.3633,4.3711,4.3691,4.3691,4.3691,4.3693,4.3692,4.3711,4.3672,4.3613,4.3652,4.3555,4.3379,4.334,4.3476,4.3458,4.3302,4.3325,4.363,4.3708,4.3324,4.3166,3.7205,3.7619,3.8319,3.8592,3.8592,3.8592,3.8592,3.8631,3.8769,3.8866,3.8848,3.8905,3.9101,3.9531,3.9669,3.9825,4.0234,4.0605,4.0781,4.0937,4.1015,4.1113,4.1211,4.1211,4.1211,4.1211,4.1211,4.1191,4.1269,4.1445,4.166,4.1855,4.1973,4.2187,4.2421,4.2421,4.2441,4.2382,4.2597,4.2558,4.2305,4.2421,4.2421,4.2402,4.2421,4.2499,4.2695,4.2734,4.2831,4.2909,4.3026,4.3026,4.3046,4.3046,4.3124,4.3281,4.3379,4.3457,4.3633,4.3691,4.3691,4.3691,4.3691,4.3691,4.3691,4.3633,4.3633,4.3691,4.3691,4.3691,4.3808,4.3848,4.4023,4.4101,4.4316,4.4453,4.4453,4.4453,4.4453,4.4453,4.4453,4.4453,4.4453,4.4432,4.4414,4.4414,4.4316,4.4238,4.4198,4.4042,4.4023,4.3984,4.3945,4.3789,4.3691,4.3691,4.3691,4.3691,4.3691,4.373,4.373,4.3711,4.3691,4.373,4.375,4.3652,4.3672,4.3691,4.3691,4.3556,4.3575,4.3695,4.3691,4.3691,4.3516,3.7578,3.8009,3.8436,3.8592,3.8592,3.8592,3.8631,3.8749,3.9043,3.9277,3.9414,3.9414,3.9629,3.9961,4.0293,4.0469,4.0664,4.0937,4.1113,4.1152,4.1152,4.1211,4.1211,4.1211,4.125,4.1308,4.1348,4.1426,4.1504,4.1738,4.1933,4.2031,4.2266,4.2539,4.2538,4.2577,4.2695,4.2812,4.2988,4.3125,4.2988,4.2793,4.2714,4.2616,4.2597,4.2773,4.3047,4.3243,4.3398,4.3476,4.3555,4.3535,4.3514,4.3496,4.3535,4.3613,4.3594,4.3633,4.3691,4.3691,4.3691,4.3691,4.3711,4.373,4.3769,4.3808,4.3828,4.3906,4.3906,4.3906,4.4023,4.416,4.4355,4.4512,4.4764,4.4979,4.4959,4.4959,4.4959,4.4959,4.4959,4.4959,4.4979,4.4998,4.4998,4.5037,4.5037,4.5018,4.4901,4.4627,4.4452,4.4394,4.4336,4.4141,4.3808,4.3709,4.3707,4.3691,4.3711,4.375,4.3808,4.3906,4.3945,4.3867,4.3848,4.3769,4.3711,4.3691,4.3691,4.3709,4.3691,4.3691,4.3691,4.3691,4.3691,3.7754,3.8475,3.8591,3.8592,3.8592,3.863,3.8788,3.9062,3.918,3.957,4.0059,4.0235,4.0332,4.0391,4.043,4.0625,4.0957,4.1191,4.1191,4.1191,4.1211,4.1211,4.1269,4.1406,4.1445,4.1562,4.1719,4.1875,4.1933,4.2148,4.248,4.2774,4.2852,4.3126,4.3398,4.3379,4.332,4.3359,4.3379,4.3496,4.3535,4.3437,4.3496,4.3457,4.3436,4.3516,4.3574,4.3574,4.3633,4.3672,4.3691,4.3691,4.3691,4.3691,4.3691,4.3691,4.3691,4.3769,4.3769,4.3808,4.3828,4.3906,4.3945,4.4023,4.4121,4.4277,4.4375,4.4608,4.4608,4.451,4.4588,4.4746,4.4902,4.494,4.5135,4.5135,4.5135,4.5135,4.5135,4.5135,4.5135,4.5154,4.5154,4.5154,4.5174,4.5193,4.5213,4.5193,4.5232,4.5057,4.4901,4.4803,4.4746,4.4277,4.3887,4.3743,4.3702,4.3707,4.3769,4.3906,4.4062,4.4238,4.4258,4.4238,4.4004,4.3848,4.3789,4.3862,4.3702,4.37,4.3709,4.3691,4.373,4.3808,4.3906]}]]